[[{"header":{"parameterUnit":"m.s-1","parameterCategory":1,"la1":31.0,"la2":29.5877,"lo1":-88.7671,"lo2":-86.6584,"dy":0.0162,"dx":0.0185,"nx":115,"ny":88,"refTime":"2024-03-27T06:00:00:Z","depth":0,"parameterNumber":2,"parameterNumberName":"U-component_of_WINDS"},"data":[0.0,0.0,0.0,0.0,0.0,0.0,0.0,0.0,0.0,0.0,0.0,0.0,0.0,0.0,0.0,0.0,0.0,0.0,0.0,0.0,0.0,0.0,0.0,0.0,0.0,0.0,0.0,0.0,0.0,0.0,0.0,0.0,0.0,0.0,0.0,0.0,0.0,0.0,0.0,0.0,0.0,0.0,0.0,0.0,0.0,0.0,0.0,0.0,0.0,0.0,0.0,0.0,0.0,0.0,0.0,0.0,0.0,0.0,0.0,0.0,0.0,0.0,0.0,0.0,0.0,0.0,0.0,0.0,0.0,0.0,0.0,0.0,0.0,0.0,0.0,0.0,0.0,0.0,0.0,0.0,0.0,0.0,0.0,0.0,0.0,0.0,0.0,0.0,0.0,0.0,0.0,0.0,0.0,0.0,0.0,0.0,0.0,0.0,0.0,0.0,0.0,0.0,0.0,0.0,0.0,0.0,0.0,0.0,0.0,0.0,0.0,0.0,0.0,0.0,0.0,0.0,0.0,0.0,0.0,0.0,0.0,0.0,0.0,0.0,0.0,0.0,0.0,0.0,0.0,0.0,0.0,0.0,0.0,0.0,0.0,0.0,0.0,0.0,0.0,0.0,0.0,0.0,0.0,0.0,0.0,0.0,0.0,0.0,0.0,0.0,0.0,0.0,0.0,0.0,0.0,0.0,0.0,0.0,0.0,0.0,0.0,0.0,0.0,0.0,0.0,0.0,0.0,0.0,0.0,0.0,0.0,0.0,0.0,0.0,0.0,0.0,0.0,0.0,0.0,0.0,0.0,0.0,0.0,0.0,0.0,0.0,0.0,0.0,0.0,0.0,0.0,0.0,0.0,0.0,0.0,0.0,0.0,0.0,0.0,0.0,0.0,0.0,0.0,0.0,0.0,0.0,0.0,0.0,0.0,0.0,0.0,0.0,0.0,0.0,0.0,0.0,0.0,0.0,0.0,0.0,0.0,0.0,0.0,0.0,0.0,0.0,0.0,0.0,0.0,0.0,0.0,0.0,0.0,0.0,0.0,0.0,0.0,0.0,0.0,0.0,0.0,0.0,0.0,0.0,0.0,0.0,0.0,0.0,0.0,0.0,0.0,0.0,0.0,0.0,0.0,0.0,0.0,0.0,0.0,0.0,0.0,0.0,0.0,0.0,0.0,0.0,0.0,0.0,0.0,0.0,0.0,0.0,0.0,0.0,0.0,0.0,0.0,0.0,0.0,0.0,0.0,0.0,0.0,0.0,0.0,0.0,0.0,0.0,0.0,0.0,0.0,0.0,0.0,0.0,0.0,0.0,0.0,0.0,0.0,0.0,0.0,0.0,0.0,0.0,0.0,0.0,0.0,0.0,0.0,0.0,0.0,0.0,0.0,0.0,0.0,0.0,0.0,0.0,0.0,0.0,0.0,0.0,0.0,0.0,0.0,0.0,0.0,0.0,0.0,0.0,0.0,0.0,0.0,0.0,0.0,0.0,0.0,0.0,0.0,0.0,0.0,0.0,0.0,0.0,0.0,0.0,0.0,0.0,0.0,0.0,0.0,0.0,0.0,0.0,0.0,0.0,0.0,0.0,0.0,0.0,0.0,0.0,0.0,0.0,0.0,0.0,0.0,0.0,0.0,0.0,0.0,0.0,0.0,0.0,0.0,0.0,0.0,0.0,0.0,0.0,0.0,0.0,0.0,0.0,0.0,0.0,0.0,0.0,0.0,0.0,0.0,0.0,0.0,0.0,0.0,0.0,0.0,0.0,0.0,0.0,0.0,0.0,0.0,0.0,0.0,0.0,0.0,0.0,0.0,0.0,0.0,0.0,0.0,0.0,0.0,0.0,0.0,0.0,0.0,0.0,0.0,0.0,0.0,0.0,0.0,0.0,0.0,0.0,0.0,0.0,0.0,0.0,0.0,0.0,0.0,0.0,0.0,0.0,0.0,0.0,0.0,0.0,0.0,0.0,0.0,0.0,0.0,0.0,0.0,0.0,0.0,0.0,0.0,0.0,0.0,0.0,0.0,0.0,0.0,0.0,0.0,0.0,0.0,0.0,0.0,0.0,0.0,0.0,0.0,0.0,0.0,0.0,0.0,0.0,0.0,0.0,0.0,0.0,0.0,0.0,0.0,0.0,0.0,0.0,0.0,0.0,0.0,0.0,0.0,0.0,0.0,0.0,0.0,0.0,0.0,0.0,0.0,0.0,0.0,0.0,0.0,0.0,0.0,0.0,0.0,0.0,0.0,0.0,0.0,0.0,0.0,0.0,0.0,0.0,0.0,0.0,0.0,0.0,0.0,0.0,0.0,0.0,0.0,0.0,0.0,0.0,0.0,0.0,0.0,0.0,0.0,0.0,0.0,0.0,0.0,0.0,0.0,0.0,0.0,0.0,0.0,0.0,0.0,0.0,0.0,0.0,0.0,0.0,0.0,0.0,0.0,0.0,0.0,0.0,0.0,0.0,0.0,0.0,0.0,0.0,0.0,0.0,0.0,0.0,0.0,0.0,0.0,0.0,0.0,0.0,0.0,0.0,0.0,0.0,0.0,0.0,0.0,0.0,0.0,0.0,0.0,0.0,0.0,0.0,0.0,0.0,0.0,0.0,0.0,0.0,0.0,0.0,0.0,0.0,0.0,0.0,0.0,0.0,0.0,0.0,0.0,0.0,0.0,0.0,0.0,0.0,0.0,0.0,0.0,0.0,0.0,0.0,0.0,0.0,0.0,0.0,0.0,0.0,0.0,0.0,0.0,0.0,0.0,0.0,0.0,0.0,0.0,0.0,0.0,0.0,0.0,0.0,0.0,0.0,0.0,0.0,0.0,0.0,0.0,0.0,0.0,0.0,0.0,0.0,0.0,0.0,0.0,0.0,0.0,0.0,0.0,0.0,0.0,0.0,0.0,0.0,0.0,0.0,0.0,0.0,0.0,0.0,0.0,0.0,0.0,0.0,0.0,0.0,0.0,0.0,0.0,0.0,0.0,0.0,0.0,0.0,0.0,0.0,0.0,0.0,0.0,0.0,0.0,0.0,0.0,0.0,0.0,0.0,0.0,0.0,0.0,0.0,0.0,0.0,0.0,0.0,0.0,0.0,0.0,0.0,0.0,0.0,0.0,0.0,0.0,0.0,0.0,0.0,0.0,0.0,0.0,0.0,0.0,0.0,0.0,0.0,0.0,0.0,0.0,0.0,0.0,0.0,0.0,0.0,0.0,0.0,0.0,0.0,0.0,0.0,0.0,0.0,0.0,0.0,0.0,0.0,0.0,0.0,0.0,0.0,0.0,0.0,0.0,0.0,0.0,0.0,0.0,0.0,0.0,0.0,0.0,0.0,0.0,0.0,0.0,0.0,0.0,0.0,0.0,0.0,0.0,0.0,0.0,0.0,0.0,0.0,0.0,0.0,0.0,0.0,0.0,0.0,0.0,0.0,0.0,0.0,0.0,0.0,0.0,0.0,0.0,0.0,0.0,0.0,0.0,0.0,0.0,0.0,0.0,0.0,0.0,0.0,0.0,0.0,0.0,0.0,0.0,0.0,0.0,0.0,0.0,0.0,0.0,0.0,0.0,0.0,0.0,0.0,0.0,0.0,0.0,0.0,0.0,0.0,0.0,0.0,0.0,0.0,0.0,0.0,0.0,0.0,0.0,0.0,0.0,0.0,0.0,0.0,0.0,0.0,0.0,0.0,0.0,0.0,0.0,0.0,0.0,0.0,0.0,0.0,0.0,0.0,0.0,0.0,0.0,0.0,0.0,0.0,0.0,0.0,0.0,0.0,0.0,0.0,0.0,0.0,0.0,0.0,0.0,0.0,0.0,0.0,0.0,0.0,0.0,0.0,0.0,0.0,0.0,0.0,0.0,0.0,0.0,0.0,0.0,0.0,0.0,0.0,0.0,0.0,0.0,0.0,0.0,0.0,0.0,0.0,0.0,0.0,0.0,0.0,0.0,0.0,0.0,0.0,0.0,0.0,0.0,0.0,0.0,0.0,0.0,0.0,0.0,0.0,0.0,0.0,0.0,0.0,0.0,0.0,0.0,0.0,0.0,0.0,0.0,0.0,0.0,0.0,0.0,0.0,0.0,0.0,0.0,0.0,0.0,0.0,0.0,0.0,0.0,0.0,0.0,0.0,0.0,0.0,0.0,0.0,0.0,0.0,0.0,0.0,0.0,0.0,0.0,0.0,0.0,0.0,0.0,0.0,0.0,0.0,0.0,0.0,0.0,0.0,0.0,0.0,0.0,0.0,0.0,0.0,0.0,0.0,0.0,0.0,0.0,0.0,2.9433,0.0,0.0,0.0,0.0,0.0,0.0,0.0,0.0,0.0,0.0,0.0,0.0,0.0,0.0,0.0,0.0,0.0,0.0,0.0,0.0,0.0,0.0,0.0,0.0,0.0,0.0,0.0,0.0,0.0,0.0,0.0,0.0,0.0,0.0,0.0,0.0,0.0,0.0,0.0,0.0,0.0,0.0,0.0,0.0,0.0,0.0,0.0,0.0,0.0,0.0,0.0,0.0,0.0,0.0,0.0,0.0,0.0,0.0,0.0,0.0,0.0,0.0,0.0,0.0,0.0,0.0,0.0,0.0,0.0,0.0,0.0,0.0,0.0,0.0,0.0,0.0,0.0,0.0,0.0,0.0,0.0,0.0,0.0,0.0,0.0,0.0,0.0,0.0,0.0,0.0,0.0,0.0,0.0,0.0,0.0,0.0,0.0,0.0,0.0,0.0,0.0,0.0,0.0,0.0,0.0,0.0,0.0,0.0,0.0,0.0,3.1275,3.0433,3.1237,3.0941,2.9356,0.0,0.0,0.0,0.0,0.0,0.0,0.0,0.0,0.0,0.0,0.0,0.0,0.0,0.0,0.0,0.0,0.0,0.0,0.0,0.0,0.0,0.0,0.0,0.0,0.0,0.0,0.0,0.0,0.0,0.0,0.0,0.0,0.0,0.0,0.0,0.0,0.0,0.0,0.0,0.0,0.0,0.0,0.0,0.0,0.0,0.0,0.0,0.0,0.0,0.0,0.0,0.0,0.0,0.0,0.0,0.0,0.0,0.0,0.0,0.0,0.0,0.0,0.0,0.0,0.0,0.0,0.0,0.0,0.0,0.0,0.0,0.0,0.0,0.0,0.0,0.0,0.0,0.0,0.0,0.0,0.0,0.0,0.0,0.0,0.0,0.0,0.0,0.0,0.0,0.0,0.0,0.0,0.0,0.0,0.0,0.0,0.0,0.0,0.0,0.0,0.0,0.0,0.0,0.0,0.0,0.0,0.0,0.0,0.0,0.0,0.0,0.0,3.2468,3.2173,3.0739,0.0,0.0,0.0,0.0,0.0,0.0,0.0,0.0,0.0,0.0,0.0,0.0,0.0,0.0,0.0,0.0,0.0,0.0,0.0,0.0,0.0,0.0,0.0,0.0,0.0,0.0,0.0,0.0,0.0,0.0,0.0,0.0,0.0,0.0,0.0,0.0,0.0,0.0,0.0,0.0,0.0,0.0,0.0,0.0,0.0,0.0,0.0,0.0,0.0,0.0,0.0,0.0,0.0,0.0,0.0,0.0,0.0,0.0,0.0,0.0,0.0,0.0,0.0,0.0,0.0,0.0,0.0,0.0,0.0,0.0,0.0,0.0,0.0,0.0,0.0,0.0,0.0,0.0,0.0,0.0,0.0,0.0,0.0,0.0,0.0,0.0,0.0,0.0,0.0,0.0,0.0,0.0,0.0,0.0,0.0,0.0,0.0,0.0,0.0,0.0,0.0,0.0,0.0,0.0,0.0,0.0,0.0,0.0,0.0,0.0,3.2324,3.6006,3.6181,0.0,3.4878,0.0,0.0,0.0,0.0,0.0,0.0,0.0,0.0,0.0,0.0,0.0,0.0,0.0,0.0,0.0,0.0,0.0,0.0,0.0,0.0,0.0,0.0,0.0,0.0,0.0,0.0,0.0,0.0,0.0,0.0,0.0,0.0,0.0,0.0,0.0,0.0,0.0,0.0,0.0,0.0,0.0,0.0,0.0,0.0,0.0,0.0,0.0,0.0,0.0,0.0,0.0,0.0,0.0,0.0,0.0,0.0,0.0,0.0,0.0,0.0,0.0,0.0,0.0,0.0,0.0,0.0,0.0,0.0,0.0,0.0,0.0,0.0,0.0,0.0,0.0,0.0,0.0,0.0,0.0,0.0,0.0,0.0,0.0,0.0,0.0,0.0,0.0,0.0,0.0,0.0,0.0,0.0,0.0,0.0,0.0,0.0,0.0,0.0,0.0,0.0,0.0,0.0,0.0,0.0,0.0,0.0,0.0,0.0,0.0,0.0,3.3188,3.5917,3.5064,3.4162,0.0,0.0,0.0,0.0,0.0,0.0,0.0,0.0,0.0,0.0,0.0,0.0,0.0,0.0,0.0,0.0,0.0,0.0,0.0,0.0,0.0,0.0,0.0,0.0,0.0,0.0,0.0,0.0,0.0,0.0,0.0,0.0,0.0,0.0,0.0,0.0,0.0,0.0,0.0,0.0,0.0,0.0,0.0,0.0,0.0,0.0,0.0,0.0,0.0,0.0,0.0,0.0,0.0,0.0,0.0,0.0,0.0,0.0,0.0,0.0,0.0,0.0,0.0,0.0,0.0,0.0,0.0,0.0,0.0,0.0,0.0,0.0,0.0,0.0,0.0,0.0,0.0,0.0,0.0,0.0,0.0,0.0,0.0,0.0,0.0,0.0,0.0,0.0,0.0,0.0,0.0,0.0,0.0,0.0,0.0,0.0,0.0,0.0,0.0,0.0,0.0,0.0,0.0,0.0,0.0,0.0,0.0,0.0,0.0,0.0,3.3468,3.478,3.696,3.4975,3.3349,3.2378,0.0,0.0,0.0,0.0,0.0,0.0,0.0,0.0,0.0,0.0,0.0,0.0,0.0,0.0,0.0,0.0,0.0,0.0,0.0,0.0,0.0,0.0,0.0,0.0,0.0,0.0,0.0,0.0,0.0,0.0,0.0,0.0,0.0,0.0,0.0,0.0,0.0,0.0,0.0,0.0,0.0,0.0,0.0,0.0,0.0,0.0,0.0,0.0,0.0,0.0,0.0,0.0,0.0,0.0,0.0,0.0,0.0,0.0,0.0,0.0,0.0,0.0,0.0,0.0,0.0,0.0,0.0,0.0,0.0,0.0,0.0,0.0,0.0,0.0,0.0,0.0,0.0,0.0,0.0,0.0,0.0,0.0,0.0,0.0,0.0,0.0,0.0,0.0,0.0,0.0,0.0,0.0,0.0,0.0,0.0,0.0,0.0,0.0,0.0,0.0,0.0,0.0,0.0,0.0,0.0,0.0,0.0,0.0,3.9441,3.6883,3.7321,4.1131,3.7571,3.5047,0.0,0.0,0.0,0.0,0.0,0.0,0.0,0.0,0.0,0.0,0.0,0.0,0.0,0.0,0.0,0.0,0.0,0.0,0.0,0.0,0.0,0.0,0.0,0.0,0.0,0.0,0.0,0.0,0.0,0.0,0.0,0.0,0.0,0.0,0.0,0.0,0.0,0.0,0.0,0.0,0.0,0.0,0.0,0.0,0.0,0.0,0.0,0.0,0.0,0.0,0.0,0.0,0.0,0.0,0.0,0.0,0.0,0.0,0.0,0.0,0.0,0.0,0.0,0.0,0.0,0.0,0.0,0.0,0.0,0.0,0.0,0.0,0.0,0.0,0.0,0.0,0.0,0.0,0.0,0.0,0.0,0.0,0.0,0.0,0.0,0.0,0.0,0.0,0.0,0.0,0.0,0.0,0.0,0.0,0.0,0.0,0.0,0.0,0.0,0.0,0.0,0.0,0.0,0.0,0.0,0.0,0.0,0.0,0.0,3.3901,3.4955,3.7018,3.9972,3.6138,3.4032,0.0,0.0,0.0,0.0,0.0,0.0,0.0,0.0,0.0,0.0,0.0,0.0,0.0,0.0,0.0,0.0,0.0,0.0,0.0,0.0,0.0,0.0,0.0,0.0,0.0,0.0,0.0,0.0,0.0,0.0,0.0,0.0,0.0,0.0,0.0,0.0,0.0,0.0,0.0,0.0,0.0,0.0,0.0,0.0,0.0,0.0,0.0,0.0,0.0,0.0,0.0,0.0,0.0,0.0,0.0,0.0,0.0,0.0,0.0,0.0,0.0,0.0,0.0,0.0,0.0,0.0,0.0,0.0,0.0,0.0,0.0,0.0,0.0,0.0,0.0,0.0,0.0,0.0,0.0,0.0,0.0,0.0,0.0,0.0,0.0,0.0,0.0,0.0,0.0,0.0,0.0,0.0,0.0,0.0,0.0,0.0,0.0,0.0,0.0,0.0,0.0,0.0,0.0,0.0,0.0,0.0,0.0,0.0,0.0,3.2914,0.0,3.835,3.8837,3.5688,3.3237,0.0,0.0,0.0,0.0,0.0,0.0,0.0,0.0,0.0,0.0,0.0,0.0,0.0,0.0,0.0,0.0,0.0,0.0,0.0,0.0,0.0,0.0,0.0,0.0,0.0,0.0,0.0,0.0,0.0,0.0,0.0,0.0,0.0,0.0,0.0,0.0,0.0,0.0,0.0,0.0,0.0,0.0,0.0,0.0,0.0,0.0,0.0,0.0,0.0,0.0,0.0,0.0,0.0,0.0,0.0,0.0,0.0,0.0,0.0,0.0,0.0,0.0,0.0,0.0,0.0,0.0,0.0,0.0,0.0,0.0,0.0,0.0,0.0,0.0,0.0,0.0,0.0,0.0,0.0,0.0,0.0,0.0,0.0,0.0,0.0,0.0,0.0,0.0,0.0,0.0,0.0,0.0,0.0,0.0,0.0,0.0,0.0,0.0,0.0,0.0,0.0,0.0,0.0,0.0,0.0,0.0,0.0,0.0,3.1306,3.7793,4.1124,4.1246,3.8357,3.6485,3.2891,0.0,0.0,0.0,0.0,0.0,0.0,0.0,0.0,0.0,0.0,0.0,0.0,0.0,0.0,0.0,0.0,0.0,0.0,0.0,0.0,0.0,0.0,0.0,0.0,0.0,0.0,0.0,0.0,0.0,0.0,0.0,0.0,0.0,0.0,0.0,0.0,0.0,0.0,0.0,0.0,0.0,0.0,0.0,0.0,0.0,0.0,0.0,0.0,0.0,0.0,0.0,0.0,0.0,0.0,0.0,0.0,0.0,0.0,0.0,0.0,0.0,0.0,0.0,0.0,0.0,0.0,0.0,0.0,0.0,0.0,0.0,0.0,0.0,0.0,0.0,0.0,0.0,0.0,0.0,0.0,0.0,0.0,0.0,0.0,0.0,0.0,0.0,0.0,0.0,0.0,0.0,0.0,0.0,0.0,0.0,0.0,0.0,0.0,0.0,0.0,0.0,0.0,0.0,0.0,0.0,0.0,0.0,0.0,0.0,3.4642,3.7381,3.9801,4.1488,3.6112,3.3585,0.0,0.0,0.0,0.0,0.0,0.0,0.0,0.0,0.0,0.0,0.0,0.0,0.0,0.0,0.0,0.0,0.0,0.0,0.0,0.0,0.0,0.0,0.0,0.0,0.0,0.0,0.0,0.0,0.0,0.0,0.0,0.0,0.0,0.0,0.0,0.0,0.0,0.0,0.0,0.0,0.0,0.0,0.0,0.0,0.0,0.0,0.0,0.0,0.0,0.0,0.0,0.0,0.0,0.0,0.0,0.0,0.0,0.0,0.0,0.0,0.0,0.0,0.0,0.0,0.0,0.0,0.0,0.0,0.0,0.0,0.0,0.0,0.0,0.0,0.0,0.0,0.0,0.0,0.0,0.0,0.0,0.0,0.0,0.0,0.0,0.0,0.0,0.0,0.0,0.0,0.0,0.0,0.0,0.0,0.0,0.0,0.0,0.0,0.0,0.0,0.0,0.0,0.0,0.0,0.0,0.0,0.0,0.0,0.0,3.6511,3.9238,4.1289,4.2539,3.7219,3.4559,3.4839,0.0,0.0,0.0,0.0,0.0,0.0,0.0,0.0,0.0,0.0,0.0,0.0,0.0,0.0,0.0,0.0,0.0,0.0,0.0,0.0,0.0,0.0,0.0,0.0,0.0,0.0,0.0,0.0,0.0,0.0,0.0,0.0,0.0,0.0,0.0,0.0,0.0,0.0,0.0,0.0,0.0,0.0,0.0,0.0,0.0,0.0,0.0,0.0,0.0,0.0,0.0,0.0,0.0,0.0,0.0,0.0,0.0,0.0,0.0,0.0,0.0,0.0,0.0,0.0,0.0,0.0,0.0,0.0,0.0,0.0,0.0,0.0,0.0,0.0,0.0,0.0,0.0,0.0,0.0,0.0,0.0,0.0,0.0,0.0,0.0,0.0,0.0,0.0,0.0,0.0,0.0,0.0,0.0,0.0,0.0,0.0,0.0,0.0,0.0,0.0,0.0,0.0,0.0,0.0,0.0,0.0,0.0,0.0,4.2176,4.5687,4.5608,4.1836,3.9726,3.5913,0.0,0.0,0.0,0.0,0.0,0.0,0.0,0.0,0.0,0.0,0.0,0.0,0.0,0.0,0.0,0.0,0.0,0.0,0.0,0.0,0.0,0.0,0.0,0.0,0.0,0.0,0.0,0.0,0.0,0.0,0.0,0.0,0.0,0.0,0.0,0.0,0.0,0.0,0.0,0.0,0.0,0.0,0.0,0.0,0.0,0.0,0.0,0.0,0.0,0.0,0.0,0.0,0.0,0.0,0.0,0.0,0.0,0.0,0.0,0.0,0.0,0.0,0.0,0.0,0.0,0.0,0.0,0.0,0.0,0.0,0.0,0.0,0.0,0.0,0.0,0.0,0.0,0.0,0.0,0.0,0.0,0.0,0.0,0.0,0.0,0.0,0.0,0.0,0.0,0.0,0.0,0.0,0.0,0.0,0.0,0.0,0.0,0.0,0.0,0.0,0.0,0.0,0.0,0.0,0.0,0.0,0.0,0.0,0.0,4.497,4.902,5.0076,4.7656,4.2422,3.8514,0.0,0.0,0.0,0.0,0.0,0.0,0.0,0.0,0.0,0.0,0.0,0.0,0.0,0.0,0.0,0.0,0.0,0.0,0.0,0.0,0.0,0.0,0.0,0.0,0.0,0.0,0.0,0.0,0.0,0.0,0.0,0.0,0.0,0.0,0.0,0.0,0.0,0.0,0.0,0.0,0.0,0.0,0.0,0.0,0.0,0.0,0.0,0.0,0.0,0.0,0.0,0.0,0.0,0.0,0.0,0.0,0.0,0.0,0.0,0.0,0.0,0.0,0.0,0.0,0.0,0.0,0.0,0.0,0.0,0.0,0.0,0.0,0.0,0.0,0.0,0.0,0.0,0.0,0.0,0.0,0.0,0.0,0.0,0.0,0.0,0.0,0.0,0.0,0.0,0.0,0.0,0.0,0.0,0.0,0.0,0.0,0.0,0.0,0.0,0.0,0.0,0.0,0.0,0.0,0.0,0.0,0.0,0.0,4.4305,4.8089,5.2182,5.3635,5.2266,4.668,4.1873,0.0,0.0,0.0,0.0,0.0,0.0,0.0,0.0,0.0,0.0,0.0,0.0,0.0,0.0,0.0,0.0,0.0,0.0,0.0,0.0,0.0,0.0,0.0,0.0,0.0,0.0,0.0,0.0,0.0,0.0,0.0,0.0,0.0,0.0,0.0,0.0,0.0,0.0,0.0,0.0,0.0,0.0,0.0,0.0,0.0,0.0,0.0,0.0,0.0,0.0,0.0,0.0,0.0,0.0,0.0,0.0,0.0,0.0,0.0,0.0,0.0,0.0,0.0,0.0,0.0,0.0,0.0,0.0,0.0,0.0,0.0,0.0,0.0,0.0,0.0,0.0,0.0,0.0,0.0,0.0,0.0,0.0,0.0,0.0,0.0,0.0,0.0,0.0,0.0,0.0,0.0,0.0,0.0,0.0,0.0,0.0,0.0,0.0,0.0,0.0,0.0,0.0,0.0,0.0,0.0,0.0,0.0,0.0,4.6934,5.1062,5.4712,5.623,5.5351,5.1016,4.5106,0.0,0.0,0.0,0.0,0.0,0.0,0.0,0.0,0.0,0.0,0.0,0.0,0.0,0.0,0.0,0.0,0.0,0.0,0.0,0.0,0.0,0.0,0.0,0.0,0.0,0.0,0.0,0.0,0.0,0.0,0.0,0.0,0.0,0.0,0.0,0.0,0.0,0.0,0.0,0.0,0.0,0.0,0.0,0.0,0.0,0.0,0.0,0.0,0.0,0.0,0.0,0.0,0.0,0.0,0.0,0.0,0.0,0.0,0.0,0.0,0.0,0.0,0.0,0.0,0.0,0.0,0.0,0.0,0.0,0.0,0.0,0.0,0.0,0.0,0.0,0.0,0.0,0.0,0.0,0.0,0.0,0.0,0.0,0.0,0.0,0.0,0.0,0.0,0.0,0.0,0.0,0.0,0.0,0.0,0.0,0.0,0.0,0.0,0.0,0.0,0.0,0.0,0.0,0.0,0.0,0.0,0.0,0.0,4.752,5.1205,5.4755,5.651,5.6328,5.0156,4.4465,0.0,0.0,0.0,0.0,0.0,0.0,0.0,0.0,0.0,0.0,0.0,0.0,0.0,0.0,0.0,0.0,0.0,0.0,0.0,0.0,0.0,0.0,0.0,0.0,0.0,0.0,0.0,0.0,0.0,0.0,0.0,0.0,0.0,0.0,0.0,0.0,0.0,0.0,0.0,0.0,0.0,0.0,0.0,0.0,0.0,0.0,0.0,0.0,3.5671,0.0,0.0,0.0,0.0,0.0,0.0,0.0,0.0,0.0,0.0,0.0,0.0,0.0,0.0,0.0,0.0,0.0,0.0,0.0,0.0,0.0,0.0,0.0,0.0,0.0,0.0,0.0,0.0,0.0,0.0,0.0,0.0,0.0,0.0,0.0,0.0,0.0,0.0,0.0,0.0,0.0,0.0,0.0,0.0,0.0,0.0,0.0,0.0,0.0,0.0,0.0,0.0,0.0,0.0,0.0,0.0,0.0,0.0,0.0,4.8929,5.2399,5.5182,5.6601,5.6406,5.1094,4.5685,0.0,0.0,0.0,0.0,0.0,0.0,0.0,0.0,0.0,0.0,0.0,0.0,0.0,0.0,0.0,0.0,0.0,0.0,0.0,0.0,0.0,0.0,0.0,0.0,0.0,0.0,0.0,0.0,0.0,0.0,0.0,0.0,0.0,0.0,0.0,0.0,0.0,0.0,0.0,0.0,0.0,0.0,0.0,0.0,0.0,0.0,0.0,0.0,0.0,0.0,0.0,0.0,0.0,0.0,0.0,0.0,0.0,0.0,0.0,0.0,0.0,0.0,0.0,0.0,0.0,0.0,0.0,0.0,0.0,0.0,0.0,0.0,0.0,0.0,0.0,0.0,0.0,0.0,0.0,0.0,0.0,0.0,0.0,0.0,0.0,0.0,0.0,0.0,0.0,0.0,0.0,0.0,0.0,0.0,0.0,0.0,0.0,0.0,0.0,0.0,0.0,0.0,0.0,0.0,0.0,0.0,0.0,4.5454,5.0043,5.3712,5.5655,5.6523,5.6367,5.25,4.7415,4.1167,0.0,0.0,0.0,0.0,0.0,0.0,0.0,0.0,0.0,0.0,0.0,0.0,0.0,0.0,0.0,0.0,0.0,0.0,0.0,0.0,0.0,0.0,0.0,0.0,0.0,0.0,0.0,0.0,0.0,0.0,0.0,0.0,0.0,0.0,0.0,0.0,0.0,0.0,3.005,3.2182,0.0,0.0,0.0,0.0,0.0,0.0,0.0,0.0,3.8207,0.0,0.0,0.0,0.0,0.0,0.0,0.0,0.0,0.0,0.0,0.0,0.0,0.0,0.0,0.0,0.0,0.0,0.0,0.0,0.0,0.0,0.0,0.0,0.0,0.0,0.0,0.0,0.0,0.0,0.0,0.0,0.0,0.0,0.0,0.0,0.0,0.0,0.0,0.0,0.0,0.0,0.0,0.0,0.0,0.0,0.0,0.0,0.0,0.0,0.0,0.0,0.0,0.0,0.0,0.0,0.0,4.2629,4.5198,4.8866,5.3852,5.5701,5.625,5.5469,5.2695,4.8,4.1323,0.0,0.0,0.0,0.0,0.0,0.0,0.0,0.0,0.0,0.0,0.0,0.0,0.0,0.0,0.0,0.0,0.0,0.0,0.0,0.0,0.0,0.0,0.0,0.0,0.0,0.0,0.0,0.0,0.0,0.0,0.0,0.0,0.0,0.0,0.0,0.0,0.0,0.0,0.0,3.7069,3.8945,0.0,0.0,0.0,0.0,0.0,0.0,0.0,0.0,3.7264,0.0,0.0,0.0,0.0,0.0,0.0,0.0,0.0,0.0,0.0,0.0,0.0,0.0,0.0,0.0,0.0,0.0,0.0,0.0,0.0,0.0,0.0,0.0,0.0,0.0,0.0,0.0,0.0,0.0,0.0,0.0,0.0,0.0,0.0,0.0,0.0,0.0,0.0,0.0,0.0,0.0,0.0,0.0,0.0,0.0,0.0,0.0,0.0,0.0,0.0,0.0,0.0,0.0,0.0,0.0,4.1952,4.6396,5.0165,5.3242,5.5039,5.5078,5.3281,4.9859,4.562,0.0,0.0,0.0,0.0,0.0,0.0,0.0,0.0,0.0,0.0,0.0,0.0,0.0,0.0,0.0,0.0,0.0,0.0,0.0,0.0,0.0,0.0,0.0,0.0,0.0,0.0,0.0,0.0,0.0,0.0,0.0,0.0,0.0,0.0,0.0,0.0,0.0,0.0,0.0,0.0,3.9264,4.0476,4.1541,0.0,0.0,0.0,0.0,0.0,0.0,3.9073,3.8163,0.0,0.0,0.0,0.0,0.0,0.0,0.0,0.0,0.0,0.0,0.0,0.0,0.0,0.0,0.0,0.0,0.0,0.0,0.0,0.0,0.0,0.0,0.0,0.0,0.0,0.0,0.0,0.0,0.0,0.0,0.0,0.0,0.0,0.0,0.0,0.0,0.0,0.0,0.0,0.0,0.0,0.0,0.0,0.0,0.0,0.0,0.0,0.0,0.0,0.0,0.0,0.0,0.0,0.0,0.0,4.0665,4.6678,5.0678,5.2383,5.4141,5.3867,5.1445,4.7679,4.3857,0.0,0.0,0.0,0.0,0.0,0.0,0.0,0.0,0.0,0.0,0.0,0.0,0.0,0.0,0.0,0.0,0.0,0.0,0.0,0.0,0.0,0.0,0.0,0.0,0.0,0.0,0.0,0.0,0.0,0.0,0.0,0.0,0.0,0.0,0.0,0.0,0.0,0.0,0.0,0.0,0.0,4.1882,4.2421,4.2296,0.0,0.0,0.0,0.0,4.1147,4.1029,0.0,0.0,0.0,0.0,0.0,0.0,0.0,0.0,0.0,0.0,0.0,0.0,0.0,0.0,0.0,0.0,0.0,0.0,0.0,0.0,0.0,0.0,0.0,0.0,0.0,0.0,0.0,0.0,0.0,0.0,0.0,0.0,0.0,0.0,0.0,0.0,0.0,0.0,0.0,0.0,0.0,0.0,0.0,0.0,0.0,0.0,0.0,0.0,0.0,0.0,0.0,0.0,0.0,0.0,0.0,0.0,3.9607,4.3514,4.742,5.1367,5.3242,5.3281,5.1445,4.9452,4.5753,0.0,0.0,0.0,0.0,0.0,0.0,0.0,0.0,0.0,0.0,0.0,0.0,0.0,0.0,0.0,0.0,0.0,0.0,0.0,0.0,0.0,0.0,0.0,0.0,0.0,0.0,0.0,0.0,0.0,0.0,0.0,0.0,0.0,0.0,0.0,0.0,0.0,0.0,0.0,0.0,0.0,4.4881,4.2806,4.4001,4.453,0.0,0.0,4.2048,4.3602,4.5086,0.0,0.0,0.0,0.0,0.0,0.0,0.0,0.0,0.0,0.0,0.0,0.0,0.0,0.0,0.0,0.0,0.0,0.0,0.0,0.0,0.0,0.0,0.0,0.0,0.0,0.0,0.0,0.0,0.0,0.0,0.0,0.0,0.0,0.0,0.0,0.0,0.0,0.0,0.0,0.0,0.0,0.0,0.0,0.0,0.0,0.0,0.0,0.0,0.0,0.0,0.0,0.0,0.0,0.0,0.0,3.5406,3.9609,4.4447,4.8202,5.0625,5.1914,5.1719,5.0039,4.5937,4.23,0.0,0.0,0.0,0.0,0.0,0.0,0.0,0.0,0.0,0.0,0.0,0.0,0.0,0.0,0.0,0.0,0.0,0.0,0.0,0.0,0.0,0.0,0.0,0.0,0.0,0.0,0.0,0.0,0.0,0.0,0.0,0.0,0.0,0.0,0.0,0.0,0.0,0.0,0.0,0.0,0.0,0.0,4.5055,4.6128,0.0,0.0,0.0,4.512,4.6278,0.0,0.0,0.0,0.0,0.0,0.0,0.0,0.0,0.0,0.0,0.0,0.0,0.0,0.0,0.0,0.0,0.0,0.0,0.0,0.0,0.0,0.0,0.0,0.0,0.0,0.0,0.0,0.0,0.0,0.0,0.0,0.0,0.0,0.0,0.0,0.0,0.0,0.0,0.0,0.0,0.0,0.0,0.0,0.0,0.0,0.0,0.0,0.0,0.0,0.0,0.0,0.0,0.0,0.0,0.0,0.0,0.0,3.9325,4.4862,4.8305,4.9531,5.0351,5.0078,4.8555,4.3476,0.0,0.0,0.0,0.0,0.0,0.0,0.0,0.0,0.0,0.0,0.0,0.0,0.0,0.0,0.0,0.0,0.0,0.0,0.0,0.0,0.0,0.0,0.0,0.0,0.0,0.0,0.0,2.6666,0.0,0.0,0.0,0.0,0.0,0.0,0.0,0.0,0.0,0.0,0.0,0.0,0.0,0.0,4.563,4.6453,4.7817,4.8548,0.0,0.0,4.7663,4.8009,4.776,4.6359,0.0,0.0,0.0,0.0,0.0,0.0,0.0,0.0,0.0,0.0,0.0,0.0,0.0,0.0,0.0,0.0,0.0,0.0,0.0,0.0,0.0,0.0,0.0,0.0,0.0,0.0,0.0,0.0,0.0,0.0,0.0,0.0,0.0,0.0,0.0,0.0,0.0,0.0,0.0,0.0,0.0,0.0,0.0,0.0,0.0,0.0,0.0,0.0,0.0,0.0,0.0,0.0,0.0,0.0,0.0,3.843,4.2848,4.6035,4.7734,4.8633,4.8633,4.7695,4.4922,4.1846,0.0,0.0,0.0,0.0,0.0,0.0,0.0,0.0,0.0,0.0,0.0,0.0,0.0,0.0,0.0,0.0,0.0,0.0,0.0,0.0,0.0,0.0,0.0,0.0,0.0,0.0,0.0,0.0,0.0,0.0,0.0,0.0,0.0,0.0,0.0,0.0,0.0,0.0,0.0,0.0,0.0,4.5624,4.5663,4.8432,5.051,0.0,0.0,4.897,4.8221,5.0663,4.9949,4.199,0.0,0.0,0.0,0.0,0.0,0.0,0.0,0.0,0.0,0.0,0.0,0.0,0.0,0.0,0.0,0.0,0.0,0.0,0.0,0.0,0.0,0.0,0.0,0.0,0.0,0.0,0.0,0.0,0.0,0.0,0.0,0.0,0.0,0.0,0.0,0.0,0.0,0.0,0.0,0.0,0.0,0.0,0.0,0.0,0.0,0.0,0.0,0.0,0.0,0.0,0.0,0.0,0.0,3.6288,3.833,4.2715,4.5824,4.75,4.793,4.793,4.7617,4.4064,4.0758,0.0,0.0,0.0,0.0,0.0,0.0,0.0,0.0,0.0,0.0,0.0,0.0,0.0,0.0,0.0,0.0,0.0,0.0,0.0,0.0,0.0,0.0,0.0,0.0,0.0,0.0,0.0,0.0,2.9087,3.0314,3.1314,0.0,0.0,0.0,0.0,0.0,0.0,0.0,0.0,0.0,0.0,4.6359,4.8432,5.0279,0.0,0.0,5.1145,5.0837,5.0491,5.0183,4.8606,4.4311,4.2572,0.0,0.0,0.0,0.0,0.0,0.0,0.0,0.0,0.0,0.0,0.0,0.0,0.0,0.0,0.0,0.0,0.0,0.0,0.0,0.0,0.0,0.0,0.0,0.0,0.0,0.0,0.0,0.0,0.0,0.0,0.0,0.0,0.0,0.0,0.0,0.0,0.0,0.0,0.0,0.0,0.0,0.0,0.0,0.0,0.0,0.0,0.0,0.0,0.0,0.0,0.0,0.0,3.6477,3.8675,4.2354,4.5195,4.7148,4.7226,4.7182,4.7103,4.351,4.0294,0.0,0.0,0.0,0.0,0.0,0.0,0.0,0.0,0.0,0.0,0.0,0.0,0.0,0.0,0.0,0.0,0.0,0.0,0.0,0.0,0.0,0.0,0.0,0.0,0.0,0.0,0.0,0.0,3.0444,3.1737,3.3122,0.0,0.0,0.0,0.0,0.0,0.0,0.0,0.0,0.0,0.0,4.7127,5.024,5.1587,5.2395,5.2626,5.2241,5.1818,5.1587,4.9856,4.7604,4.4877,0.0,0.0,0.0,0.0,0.0,0.0,0.0,0.0,0.0,0.0,0.0,0.0,0.0,0.0,0.0,0.0,0.0,0.0,0.0,0.0,0.0,0.0,0.0,0.0,0.0,0.0,0.0,0.0,0.0,0.0,0.0,0.0,0.0,0.0,0.0,0.0,0.0,0.0,0.0,0.0,0.0,0.0,0.0,0.0,0.0,0.0,0.0,0.0,0.0,0.0,0.0,0.0,0.0,3.6203,3.9513,4.1553,4.375,4.625,4.6328,4.6357,4.6303,4.3698,4.1054,3.8364,0.0,0.0,0.0,0.0,0.0,0.0,0.0,0.0,0.0,0.0,0.0,0.0,0.0,0.0,0.0,0.0,0.0,0.0,0.0,0.0,0.0,0.0,0.0,0.0,0.0,0.0,3.2545,3.2814,3.3199,0.0,0.0,0.0,0.0,0.0,0.0,0.0,0.0,0.0,0.0,4.4746,4.778,5.0317,5.2087,5.3356,5.4203,5.2933,5.1605,5.0835,4.9912,4.7645,0.0,0.0,0.0,0.0,0.0,0.0,0.0,0.0,0.0,0.0,0.0,0.0,0.0,0.0,0.0,0.0,0.0,0.0,0.0,0.0,0.0,0.0,0.0,0.0,0.0,0.0,0.0,3.2891,3.3359,0.0,0.0,0.0,0.0,0.0,0.0,0.0,0.0,0.0,0.0,0.0,3.4441,3.5882,0.0,0.0,0.0,0.0,0.0,0.0,0.0,0.0,0.0,0.0,0.0,0.0,3.6763,3.9557,4.203,4.4258,4.6211,4.6289,4.6284,4.627,4.3746,4.0281,3.5921,0.0,0.0,0.0,0.0,0.0,0.0,0.0,0.0,0.0,0.0,0.0,0.0,0.0,0.0,0.0,0.0,0.0,0.0,0.0,0.0,0.0,0.0,0.0,0.0,0.0,3.2532,0.0,0.0,0.0,0.0,0.0,0.0,0.0,0.0,0.0,0.0,0.0,3.936,4.2975,4.4938,4.6935,4.951,5.0818,5.1625,0.0,0.0,0.0,0.0,0.0,0.0,0.0,0.0,0.0,0.0,0.0,0.0,0.0,0.0,4.9317,4.3667,4.2415,4.214,4.1863,0.0,0.0,0.0,0.0,0.0,0.0,0.0,0.0,0.0,0.0,0.0,0.0,0.0,0.0,0.0,0.0,3.3906,0.0,0.0,0.0,0.0,0.0,0.0,0.0,0.0,3.5701,3.696,3.7055,3.8539,3.8797,0.0,3.7359,3.6023,0.0,0.0,0.0,0.0,0.0,0.0,0.0,0.0,3.7055,3.9624,4.2025,4.4219,4.6211,4.6289,4.6289,4.625,4.3436,3.983,3.547,3.2993,3.1314,0.0,0.0,0.0,0.0,0.0,0.0,0.0,0.0,0.0,0.0,0.0,0.0,0.0,0.0,0.0,0.0,0.0,0.0,0.0,0.0,0.0,0.0,0.0,3.348,0.0,0.0,0.0,0.0,0.0,0.0,0.0,0.0,0.0,3.8309,3.8975,4.0777,4.4687,4.5686,4.6991,4.951,0.0,0.0,0.0,0.0,0.0,0.0,0.0,4.8143,4.7812,4.7776,4.7778,4.7778,4.9817,5.1202,5.0394,0.0,0.0,4.5819,4.4414,4.3871,4.3628,4.3782,4.4289,4.5406,4.5858,4.6225,0.0,0.0,0.0,0.0,0.0,0.0,0.0,0.0,3.2617,3.3984,0.0,3.4414,0.0,0.0,0.0,0.0,0.0,0.0,0.0,0.0,3.83,3.9611,3.9779,4.073,4.0764,4.0063,4.1292,4.0612,3.8001,3.3134,0.0,0.0,0.0,0.0,0.0,0.0,3.7102,3.9702,4.1588,4.3711,4.6211,4.6289,4.625,4.6133,4.2788,3.9616,3.7021,3.5084,3.3045,3.0621,3.1929,0.0,0.0,0.0,0.0,0.0,0.0,0.0,0.0,0.0,0.0,0.0,0.0,0.0,0.0,0.0,0.0,0.0,0.0,0.0,0.0,3.3327,0.0,0.0,0.0,0.0,0.0,0.0,0.0,0.0,0.0,0.0,3.9389,4.0915,4.3136,4.6513,0.0,0.0,0.0,0.0,5.0971,5.1779,5.2587,5.3087,5.3069,5.3049,5.2202,4.9855,0.0,0.0,4.9894,5.0317,5.0702,4.9817,5.051,5.0837,5.0741,4.9142,4.779,4.7047,4.6326,4.6394,4.7761,4.7818,4.7795,3.957,0.0,0.0,0.0,0.0,3.7031,3.7695,3.8633,3.8633,3.8672,3.8711,3.7578,0.0,0.0,0.0,0.0,0.0,0.0,3.6843,3.7469,4.0689,4.2279,4.2395,4.3986,4.4292,4.3396,4.1993,4.0577,3.909,3.5868,3.4301,3.4378,0.0,0.0,0.0,0.0,3.745,4.0539,4.2407,4.4297,4.625,4.6289,4.5703,4.4453,4.2164,3.9665,3.7031,3.5199,3.3583,3.2237,3.1506,0.0,0.0,0.0,0.0,0.0,0.0,0.0,0.0,0.0,0.0,0.0,0.0,0.0,0.0,0.0,0.0,0.0,0.0,0.0,3.4519,3.3838,3.3763,0.0,0.0,0.0,0.0,0.0,0.0,0.0,0.0,0.0,4.3325,4.3662,4.485,0.0,0.0,4.8471,5.0433,5.0702,5.0971,5.1779,0.0,0.0,0.0,5.1779,5.1376,5.1203,5.2626,5.3759,5.3895,5.4087,5.4164,5.3895,5.3626,5.3395,5.3261,5.101,4.9124,4.8739,4.8951,4.9567,5.0548,5.1065,5.1523,4.3125,4.1797,4.0273,3.9414,3.9141,3.9492,4.0039,4.0664,4.0703,4.0742,4.082,3.9648,3.8242,3.668,3.4961,0.0,0.0,0.0,3.8715,4.0123,4.2309,4.3722,4.4434,4.5646,4.5777,4.4882,4.2948,4.1579,4.0639,3.8411,3.7274,3.707,0.0,0.0,3.4861,3.6207,3.8098,4.0524,4.2285,4.4023,4.5742,4.5781,4.4961,4.3242,4.17,3.983,3.7584,3.5391,3.3776,3.2929,3.166,3.0994,0.0,0.0,0.0,0.0,0.0,0.0,0.0,0.0,0.0,0.0,0.0,3.0968,3.1056,0.0,0.0,0.0,3.2377,3.3838,3.4654,3.4015,0.0,0.0,0.0,0.0,0.0,0.0,0.0,3.9032,3.9875,4.1646,4.513,4.5701,4.6814,4.9567,4.8854,4.8854,5.0875,0.0,5.1087,5.2241,5.2702,5.3049,5.3356,5.301,5.2838,5.3338,5.4241,5.5066,5.5588,5.5703,5.5703,5.5626,5.5318,5.4972,5.4972,5.3261,5.153,5.0644,5.1085,5.1836,5.2318,5.3123,5.3793,4.5937,4.5,4.2617,4.1055,4.0312,4.1133,4.1055,4.0312,4.0391,4.1211,4.2344,4.0859,4.0078,3.9805,3.8242,0.0,0.0,3.9353,4.0954,4.3201,4.3381,4.4305,4.5881,4.6046,4.5763,4.5078,4.4141,4.33,4.2458,4.0746,3.9839,3.9647,3.7298,3.6047,3.6012,3.7497,3.8866,4.0,4.1601,4.3242,4.4844,4.4766,4.3945,4.234,4.1193,3.982,3.819,3.5559,3.3737,3.2929,3.2071,3.1225,3.0456,0.0,0.0,0.0,0.0,0.0,0.0,0.0,0.0,0.0,0.0,0.0,0.0,0.0,0.0,0.0,3.1595,0.0,3.3343,3.4075,0.0,0.0,0.0,3.593,3.6815,3.693,3.7613,3.9417,0.0,0.0,0.0,0.0,4.8721,5.047,4.9373,4.9314,5.1759,5.1548,5.1587,5.3241,5.4049,5.4839,5.5318,5.5434,5.5395,5.5434,5.5703,5.5626,5.5588,5.5549,5.5588,5.5549,5.5588,5.5588,5.5665,5.5434,5.4857,5.2354,5.2738,5.3392,5.3486,5.4084,5.4797,4.7187,4.6875,4.5586,4.4219,4.2891,4.3711,4.3984,4.3867,4.4492,4.4258,4.3359,4.2969,4.1719,3.9922,4.0156,4.0246,4.0256,4.1784,4.3052,4.4179,4.4927,4.5555,4.6051,4.6193,4.6156,4.5937,4.5078,4.4566,4.4259,4.2598,4.1373,4.0622,3.95,3.852,3.7773,3.7643,3.8659,4.0859,4.1875,4.293,4.3945,4.2773,4.1846,4.1334,3.914,3.7722,3.7203,3.4635,3.3122,3.2891,3.1494,3.0609,3.0417,3.1032,0.0,0.0,0.0,0.0,0.0,0.0,0.0,0.0,0.0,3.1737,3.1814,0.0,3.3158,0.0,3.2519,3.3693,3.5185,3.4808,0.0,0.0,3.6378,3.7007,3.8507,3.87,3.9576,4.1932,4.2541,4.3987,4.7101,4.7835,4.874,5.0433,5.0893,5.168,5.3587,5.3741,5.3933,5.4818,5.5203,5.5472,5.5665,5.5703,5.5703,5.5703,5.5703,5.5511,5.4895,5.478,5.478,5.478,5.478,5.5011,5.5549,5.5241,5.4391,5.3315,5.407,5.5093,5.5126,5.528,5.5472,4.7969,4.7539,4.668,4.5742,4.4883,4.5391,4.5586,4.5625,4.6094,4.5547,4.4258,4.3867,4.293,4.1641,4.2109,4.2396,4.2615,4.3573,4.4414,4.5098,4.5723,4.6021,4.6116,4.622,4.6094,4.5703,4.4844,4.4219,4.3789,4.2493,4.1602,4.1094,4.0281,3.9814,3.9609,3.8867,3.9375,4.1172,4.1992,4.2461,4.2539,4.168,4.0999,4.0485,3.8227,3.6841,3.6408,3.452,3.3493,3.343,3.2569,3.1915,3.1532,3.1634,3.1492,0.0,0.0,0.0,0.0,0.0,0.0,0.0,0.0,0.0,0.0,0.0,3.4256,0.0,3.4239,0.0,3.6406,3.6343,3.6581,3.7459,3.7762,3.8416,3.97,4.0508,4.1678,4.342,4.3965,4.518,4.7735,4.8084,4.874,5.0471,5.1395,5.2395,5.3626,5.3933,5.4241,5.5011,5.5164,5.5318,5.5626,5.5703,5.5549,5.5263,5.5186,5.4895,5.4087,5.3895,5.3933,5.3933,5.3933,5.4164,5.4934,5.4451,5.3836,5.3933,5.4187,5.4554,5.4587,5.5182,5.5703,4.8437,4.7656,4.6719,4.6289,4.6289,4.6289,4.6289,4.6289,4.6289,4.5859,4.5117,4.4375,4.4023,4.4062,4.4023,4.4318,4.4892,4.4945,4.5278,4.5847,4.6025,4.6103,4.6119,4.6236,4.5898,4.5156,4.4258,4.3476,4.2734,4.1797,4.1367,4.1328,4.0508,4.043,4.1133,4.0547,4.0586,4.1328,4.2031,4.2109,4.1523,4.1211,4.0664,3.9844,3.7802,3.6381,3.5789,3.4648,3.4095,3.4199,3.4096,3.3672,3.2929,3.2326,3.2004,0.0,3.1405,0.0,0.0,0.0,0.0,0.0,0.0,0.0,0.0,3.4156,3.5072,3.6094,3.6172,3.6484,3.7305,3.8086,3.8557,3.8556,3.9268,4.0069,4.0931,4.2354,4.3547,4.4388,4.5141,4.6219,4.785,4.8084,4.874,5.0394,5.1376,5.2184,5.2856,5.3164,5.3587,5.4357,5.4489,5.4759,5.5143,5.5395,5.5203,5.4531,5.4339,5.4031,5.3164,5.3049,5.301,5.3049,5.3049,5.3318,5.4164,5.3605,5.3297,5.3818,5.3474,5.3205,5.3605,5.4566,5.5511,4.8789,4.8516,4.6953,4.6289,4.6289,4.6289,4.6289,4.6289,4.6289,4.6211,4.6055,4.5898,4.5781,4.582,4.582,4.5819,4.5848,4.5841,4.595,4.6061,4.6064,4.6169,4.6267,4.6286,4.6211,4.6016,4.5156,4.4687,4.4492,4.293,4.2187,4.2148,4.1367,4.1016,4.1211,0.0,0.0,0.0,4.2344,4.2656,4.3125,4.1211,4.0039,3.9687,3.6632,0.0,3.556,3.402,3.3468,3.4122,3.3519,0.0,0.0,0.0,0.0,0.0,0.0,0.0,0.0,0.0,0.0,0.0,3.4982,3.5117,3.4404,3.4549,3.5343,3.6875,3.707,3.7422,3.8242,3.8984,3.9708,4.0256,4.1042,4.204,4.3393,4.3855,4.4393,4.5257,4.5526,4.6236,4.7812,4.8084,4.8779,5.0433,5.1376,5.1914,5.2125,5.2741,5.351,5.4318,5.4357,5.4241,5.3738,5.4314,5.4489,5.3703,5.3454,5.3107,5.2356,5.2164,5.2164,5.2164,5.2164,5.2433,5.3241,5.2759,5.2239,5.2374,5.2261,5.2589,5.3951,5.4468,5.4912,4.8906,0.0,4.7031,4.6289,0.0,4.6289,4.6289,4.6289,4.6289,4.6289,4.6289,4.6289,4.6289,4.6289,4.6289,4.6211,4.6094,4.6164,4.6162,4.6116,4.6187,4.625,4.6289,4.6289,4.6055,4.5625,4.4766,4.4141,4.3672,4.2422,4.1797,4.1797,4.1797,4.1797,4.1836,4.2617,4.3047,4.3047,4.3047,4.3242,4.3594,4.1641,4.0508,4.0351,0.0,0.0,0.0,0.0,0.0,0.0,0.0,0.0,0.0,0.0,0.0,3.4276,3.4623,3.4841,3.4878,3.5262,3.5353,3.493,3.5853,3.6281,3.5949,3.5955,3.6523,3.7812,3.832,3.8945,3.9805,4.0586,4.1314,4.2027,4.2847,4.364,4.4201,4.4701,4.5124,4.547,4.5586,4.624,4.7855,4.8086,4.8817,5.0394,5.1029,5.1453,5.1856,5.2241,5.2741,5.3146,5.3203,5.322,5.3294,5.393,5.399,5.2992,5.2935,5.2627,5.151,5.1318,5.1318,5.1318,5.1318,5.1587,5.2279,5.1875,5.1413,5.1739,5.1587,5.1722,5.2972,5.3874,5.4759,4.8906,4.875,4.7031,4.6289,4.6289,4.6289,4.6289,4.6289,0.0,0.0,0.0,4.6289,4.6289,4.6289,4.6289,4.625,4.6133,4.625,4.6226,4.6137,4.6245,4.6289,4.6289,4.6289,4.5937,4.5195,4.4336,4.3555,4.2851,4.2031,4.1641,4.168,4.2305,4.2695,4.2891,4.3555,4.3984,4.4141,4.4023,4.4023,4.4101,4.2383,4.1406,4.1406,3.8711,3.6898,3.6279,3.6084,3.5916,3.5968,3.7238,3.7661,3.6978,3.693,3.6329,3.5018,3.4889,3.4889,3.4889,3.5518,3.5968,3.6059,3.692,3.7464,3.75,3.7539,3.7969,3.8984,3.9726,4.0547,4.1562,4.2383,4.3073,4.3592,4.438,4.4799,4.4624,4.5163,4.5547,4.5586,4.5586,4.6222,4.7838,4.8087,4.874,5.024,5.0741,5.0894,5.1548,5.1818,5.1933,5.1799,5.1991,5.2182,5.2661,5.3605,5.351,5.2049,5.2396,5.2377,5.1183,5.0702,5.0702,5.0741,5.0702,5.101,5.1471,5.1202,5.0933,5.1547,5.1182,5.0952,5.178,5.301,5.4259,4.8906,4.875,4.7031,4.6289,4.6289,4.6289,4.6289,4.6289,4.6289,4.6289,4.6289,4.6289,4.6289,4.6289,4.6289,4.6289,4.625,4.6289,4.6287,0.0,4.6288,4.6289,4.6289,4.6289,4.625,4.6055,4.5234,4.4766,4.457,4.375,4.3359,4.332,4.3476,4.3906,4.457,4.4766,4.5195,4.5898,4.5195,4.5195,4.5859,4.3516,4.2226,4.2109,3.957,3.8068,3.7973,3.7738,3.7661,3.7661,3.7853,3.793,3.7815,3.7815,3.7714,3.7473,3.7478,3.7463,3.7454,3.757,3.7752,3.791,3.8132,3.8287,3.8398,3.8398,3.9101,4.0625,4.0976,4.168,4.3164,4.4062,4.4518,4.4573,4.5258,4.5642,4.5393,4.5509,4.5586,4.5586,4.5586,4.6222,4.7761,4.8087,4.8779,5.024,5.0702,5.0741,5.0971,5.1471,5.1548,5.1145,5.1453,5.1607,5.151,5.2396,5.2549,5.1139,5.1605,5.1896,5.0875,5.0702,5.0702,5.0702,5.0702,5.0741,5.0894,5.0818,5.0779,5.0971,5.0779,5.0952,5.1665,5.2184,5.2856,4.8906,4.8672,4.7031,4.6289,4.6289,4.6289,4.6289,4.6289,4.6289,4.6289,4.6289,4.6289,4.6289,4.6289,4.6289,4.6289,4.6289,4.6289,4.6289,4.6289,4.6289,4.6289,4.6289,4.6289,4.6055,4.5586,4.5195,4.4766,4.4297,4.3906,4.3711,4.375,4.418,4.4844,4.5664,4.5703,4.5898,4.6289,4.5898,4.5898,4.625,4.4648,4.3594,4.3125,4.0898,3.9472,3.9037,3.8362,3.7978,3.8007,3.8854,3.9176,3.8753,3.9099,3.9176,3.8753,3.8247,3.7986,3.8001,3.807,3.835,3.8937,3.9083,3.9588,4.0586,4.0273,4.0508,4.1719,4.2266,4.3047,4.4258,4.4766,4.5104,4.5351,4.5684,4.5796,4.5642,4.5586,4.5586,4.5586,4.5586,4.624,4.7895,4.8106,4.876,5.0317,5.0702,5.0702,5.0702,5.0971,5.1125,5.0779,5.1029,5.1068,5.0818,5.1665,5.1856,5.0888,5.1355,5.1491,5.0875,5.0702,5.0702,5.0702,5.0702,5.0702,5.0702,5.0702,5.0702,5.0702,5.0702,5.0914,5.1183,5.1548,5.2202,4.9023,4.9023,4.7344,4.6601,4.6562,4.6367,4.6289,4.6289,4.6289,4.6289,4.6289,4.6289,4.6289,4.6289,4.6289,4.6289,4.6289,4.6289,4.6289,4.6289,4.6289,4.6289,4.6289,4.6289,4.5937,4.5351,4.5312,4.4961,4.4375,4.4297,4.4297,4.4336,4.4961,4.5625,4.6289,4.6289,4.6289,4.6289,4.6289,4.6289,4.6289,4.543,4.4687,4.3945,4.2344,4.115,4.0438,3.9615,3.9131,3.92,4.0392,4.0793,4.0231,4.0754,4.0816,4.02,3.95,3.9138,3.9154,3.9084,3.947,4.0361,4.0339,4.1005,4.2422,4.2344,4.2305,4.2969,4.3594,4.4336,4.5117,4.5312,4.5456,4.5866,4.5891,4.5834,4.5642,4.5586,4.5719,4.5834,4.5911,4.6547,4.7894,4.8394,4.9029,5.0317,5.0702,5.0702,5.0702,5.0702,5.0702,5.0702,5.0702,5.0702,5.0741,5.1626,5.1741,5.0947,5.1567,5.1645,5.1106,5.0702,5.0702,5.0702,5.0702,5.0702,5.0702,5.0702,5.0702,5.0702,5.0702,5.0779,5.1087,5.1741,5.2087,4.9375,4.9766,4.8164,4.7461,4.7344,4.6641,4.6367,4.6289,4.6289,4.6289,4.6289,4.6289,4.6289,4.6289,4.6289,4.6289,4.6289,4.6289,4.6289,4.6289,4.6289,4.6289,4.6289,4.6289,4.625,4.6133,4.6133,4.6055,4.5898,4.5976,4.6016,4.6055,4.6133,4.6172,4.6289,4.6328,4.6289,4.6289,4.6289,4.6289,4.625,4.5469,4.4961,4.4883,4.375,4.3139,4.2941,4.2777,4.2624,4.2624,4.2701,4.2816,4.2701,4.2794,4.2826,4.2688,4.2601,4.2646,4.2547,4.2079,4.2035,4.2896,4.2427,4.251,4.3476,4.4219,4.4648,4.4726,4.4805,4.5234,4.6055,4.6133,4.6016,4.5905,4.5891,4.5834,4.5642,4.5586,4.5911,4.6698,4.6565,4.7394,4.872,4.9202,4.9663,5.051,5.0702,5.0702,5.0702,5.0779,5.0818,5.0779,5.0741,5.0741,5.0914,5.205,5.2088,5.1125,5.205,5.2127,5.126,5.0741,5.0702,5.0702,5.0779,5.0818,5.0702,5.0702,5.0741,5.0702,5.0779,5.0933,5.1664,5.2395,5.2664,4.9883,5.0,4.832,4.7266,4.6914,4.7539,4.7266,4.6367,4.6836,4.6797,4.6328,4.6289,4.6289,4.6289,4.6289,4.6289,4.6289,4.6289,4.6289,4.6289,4.6289,4.6289,4.6289,4.6289,4.6289,4.6289,4.6289,4.6289,4.6289,4.6289,4.6289,4.6289,4.6289,4.6289,4.6328,4.6797,4.6836,4.6328,4.7305,4.7617,4.7031,4.6211,4.5781,4.5664,4.4741,4.4175,4.408,4.3492,4.3069,4.3124,4.3547,4.3585,4.3124,4.3547,4.3585,4.3162,4.309,4.309,4.3085,4.2941,4.3015,4.3389,4.326,4.3517,4.4375,4.4805,4.5195,4.5664,4.5781,4.5937,4.625,4.6289,4.6198,4.5944,4.5891,4.5834,4.5624,4.5586,4.5757,4.6065,4.6142,4.6817,4.8337,4.9548,5.024,5.0625,5.0702,5.0702,5.0702,5.1087,5.1395,5.1471,5.1799,5.1665,5.1145,5.1626,5.1799,5.1355,5.2105,5.2569,5.126,5.1164,5.1279,5.0818,5.1048,5.1048,5.0741,5.1106,5.1299,5.1068,5.1182,5.1528,5.1856,5.2587,5.2895,5.0195,4.9922,4.832,4.7383,4.707,4.7812,4.7617,4.6758,4.7109,4.6875,4.6328,4.6289,4.6289,4.6289,4.6289,4.6289,4.6289,4.6289,4.6289,4.6289,4.6289,4.6289,4.6289,4.6289,4.6289,4.6289,4.6289,4.6289,4.6289,4.6289,4.6289,4.6289,4.6289,4.6406,4.668,4.7305,4.7422,4.7187,4.832,4.8594,4.7969,4.7344,4.6875,4.6523,4.5564,4.503,4.4991,4.4222,4.3799,4.3816,4.4355,4.4393,4.3855,4.4338,4.4397,4.3841,4.3803,4.3782,4.3778,4.3772,4.3852,4.405,4.4117,4.4414,4.5156,4.5351,4.5625,4.6133,4.6289,4.6289,4.6289,4.6289,4.6172,4.5944,4.5877,4.5796,4.5624,4.574,4.6103,4.6219,4.6796,4.7163,4.8625,4.9913,5.0664,5.0664,5.0702,5.0702,5.0741,5.1164,5.1587,5.1895,5.2415,5.2376,5.1607,5.2281,5.2125,5.1949,5.2738,5.3049,5.1433,5.1664,5.1625,5.0971,5.1395,5.1433,5.0933,5.126,5.1742,5.1376,5.149,5.2008,5.2298,5.301,5.3587,5.0195,4.9961,4.8359,4.8086,4.8672,4.7226,4.6953,4.7422,4.6758,4.6367,4.6289,4.6289,4.6289,4.6289,4.6289,4.6289,4.6289,4.6289,4.6289,4.6289,4.6289,4.6289,4.6289,4.6289,4.6289,4.6289,4.6289,4.6289,4.6289,4.6328,4.6289,4.6328,4.6406,4.6758,4.7461,4.7695,4.8008,4.8594,4.8906,4.8945,4.8828,4.8789,4.8281,4.7383,4.6391,4.5796,4.5719,4.5547,4.5432,4.5432,4.5432,4.547,4.5432,4.547,4.5432,4.5393,4.5432,4.5432,4.5316,4.4893,4.4916,4.5472,4.5156,4.5273,4.6016,4.6211,4.625,4.6289,4.6445,4.6484,4.6406,4.6445,4.6289,4.6021,4.5969,4.5868,4.5701,4.6317,4.7142,4.7794,4.8412,4.9086,5.024,5.0625,5.0702,5.0702,5.0702,5.0741,5.0856,5.0856,5.1318,5.1913,5.2259,5.2239,5.2954,5.3435,5.3608,5.3336,5.3259,5.38,5.2741,5.1798,5.1433,5.1048,5.1125,5.1087,5.0933,5.1145,5.1568,5.1684,5.1836,5.2221,5.2741,5.378,5.4434,5.0664,5.0156,4.9531,4.9141,4.8906,4.8789,4.8359,4.7617,4.7266,4.6797,4.6367,4.6289,4.6289,4.6289,4.6289,4.6289,4.6289,4.6289,4.6289,4.6289,4.6289,4.6289,4.6289,4.6289,4.6289,4.6289,4.6289,4.6289,4.6367,4.6836,4.7109,4.7226,4.7695,4.8164,4.8476,4.8984,4.918,4.9023,4.9922,5.0234,4.9805,4.9726,4.9258,4.8242,4.7256,4.6429,4.5834,4.568,4.5586,4.5586,4.5586,4.5586,4.5586,4.5586,4.5586,4.5586,4.5586,4.5586,4.5586,4.547,4.5549,4.5822,4.5796,4.582,4.6328,4.6758,4.6914,4.6601,4.7422,4.7734,4.7226,4.7109,4.7018,4.68,4.6718,4.666,4.6509,4.674,4.7201,4.8028,4.8856,4.9548,4.9932,5.0356,5.0664,5.0702,5.0702,5.0933,5.1471,5.1895,5.251,5.3395,5.399,5.4413,5.4664,5.4472,5.4318,5.401,5.3895,5.3626,5.2874,5.2605,5.2318,5.1395,5.1164,5.1202,5.1299,5.1221,5.1625,5.1607,5.1818,5.2818,5.3126,5.428,5.5088,5.0273,4.9805,4.9766,4.9453,4.8984,4.9219,4.8867,4.793,4.7422,4.6836,4.6367,4.6289,4.6289,4.6289,4.6289,4.6289,4.6289,4.6289,4.6289,4.6289,4.6289,4.6289,4.6289,4.6289,4.6289,4.6289,4.6289,4.6406,4.6758,4.7305,4.7734,4.8047,4.8633,4.9062,4.9375,4.9922,4.9961,5.0,5.1133,5.1562,5.1055,5.1016,5.0547,4.957,4.8545,4.7295,4.5928,4.568,4.5586,4.5586,4.5586,4.5586,4.5586,4.5586,4.5586,4.5586,4.5586,4.5586,4.5624,4.5719,4.5835,4.5902,4.6016,4.6133,4.6328,4.6836,4.6914,4.707,4.7656,4.832,4.8476,4.8437,4.8203,4.7774,4.7632,4.7545,4.7355,4.7586,4.8125,4.8894,4.951,4.9836,4.9874,5.0356,5.0779,5.101,5.1087,5.1433,5.2202,5.2779,5.351,5.4357,5.478,5.5126,5.5318,5.5126,5.5011,5.4741,5.4549,5.4066,5.3528,5.3395,5.2895,5.1933,5.1548,5.1645,5.1625,5.1508,5.1528,5.153,5.253,5.3685,5.4223,5.4857,5.5576,4.8984,4.8984,4.8906,4.9023,4.8906,4.8164,4.8164,4.8476,4.707,4.6367,4.6289,4.6289,4.6289,4.6289,4.6289,4.6289,4.6289,4.6289,4.6289,4.6289,4.6289,4.6289,4.6289,4.6289,4.6367,4.6445,4.6367,4.6797,4.7578,4.7812,4.8242,4.8789,4.9023,4.957,5.0195,5.0312,5.0625,5.1211,5.2109,5.2578,5.2695,5.2578,5.2109,5.1172,5.018,4.8554,4.6082,4.5817,4.5778,4.5701,4.5663,4.5624,4.5624,4.5586,4.5586,4.5586,4.5586,4.5586,4.5624,4.5719,4.5796,4.592,4.6027,4.6133,4.6289,4.6562,4.6914,4.7344,4.7891,4.8437,4.9766,5.0039,4.9648,4.8729,4.8508,4.8412,4.8317,4.8856,4.9702,5.0317,5.0548,5.0664,5.0702,5.0837,5.1125,5.1721,5.1913,5.2241,5.301,5.3356,5.3664,5.4318,5.4857,5.5241,5.5511,5.5665,5.5665,5.5588,5.5434,5.5126,5.4259,5.3874,5.3433,5.2626,5.2202,5.2241,5.2492,5.2433,5.2549,5.2781,5.382,5.4416,5.4975,5.5478,5.6012,4.9453,4.8906,4.8906,4.9258,4.957,4.8242,4.8086,4.8672,4.7031,4.6289,4.6289,4.6289,4.6289,4.6289,4.6289,4.6289,4.6289,4.6289,4.6289,4.6289,4.6289,4.6289,4.6289,4.6289,4.6601,4.7109,4.7187,4.7656,4.8476,4.9101,4.957,4.9844,5.0391,5.0742,5.1055,5.1055,5.1211,5.1445,5.2266,5.2695,5.2773,5.332,5.2891,5.1484,5.0933,4.9705,4.7778,4.7452,4.7048,4.6547,4.6509,4.624,4.574,4.5586,4.5586,4.5586,4.5586,4.5586,4.5586,4.5663,4.5796,4.5896,4.5978,4.6089,4.6445,4.7422,4.7851,4.7969,4.9101,5.0351,5.0273,5.0742,5.0508,4.9508,4.9382,4.9317,4.9125,4.974,5.0317,5.0587,5.0702,5.0914,5.1376,5.1491,5.1876,5.2605,5.2797,5.3105,5.3857,5.4087,5.4434,5.5126,5.528,5.528,5.5511,5.5703,5.5703,5.5703,5.5665,5.5588,5.4874,5.422,5.3818,5.351,5.3087,5.2972,5.3223,5.3397,5.3512,5.3569,5.399,5.4664,5.536,5.5981,5.6466,4.9219,4.8476,4.8789,4.9023,4.9141,4.8008,4.7891,4.8164,4.6914,4.6289,4.6289,4.6289,4.6289,4.6289,4.6289,4.6289,4.6289,4.6289,4.6289,4.6289,4.6289,4.6289,4.6367,4.6641,4.7031,4.7578,4.793,4.8711,4.9805,5.0391,5.0976,5.1601,5.1797,5.207,5.2266,5.2031,5.1992,5.2422,5.3242,5.3672,5.3789,5.4219,5.3789,5.2461,5.183,5.083,4.949,4.9202,4.8548,4.7586,4.7335,4.7083,4.6583,4.6583,4.6544,4.6544,4.6544,4.6544,4.6565,4.6624,4.6604,4.675,4.686,4.6982,4.7344,4.8398,4.8633,4.8945,4.9922,5.0859,5.0781,5.1055,5.099,5.0364,5.0271,5.0144,5.001,5.0356,5.0625,5.0741,5.0952,5.1376,5.1742,5.2279,5.2702,5.3451,5.3703,5.3972,5.4664,5.4934,5.5318,5.5549,5.5549,5.5588,5.5665,5.5703,5.5703,5.5703,5.5703,5.5549,5.5164,5.4626,5.4164,5.4241,5.3933,5.3972,5.4164,5.4339,5.4454,5.4413,5.4314,5.5088,5.5882,5.6348,5.6916,4.8437,4.7695,4.8437,4.8359,4.7773,4.7539,4.7539,4.75,4.668,4.6289,4.6289,4.6289,4.6289,4.6328,4.6445,4.6523,4.6445,4.6641,4.6719,4.668,4.6641,4.6641,4.6641,4.7305,4.7812,4.8086,4.8633,4.9844,5.1289,5.1445,5.2305,5.3476,5.3047,5.3125,5.3476,5.3125,5.3125,5.375,5.4687,5.5117,5.5117,5.5312,5.4883,5.3818,5.2957,5.2031,5.1202,5.0894,4.9971,4.8471,4.8084,4.7948,4.8004,4.8081,4.791,4.7871,4.8043,4.793,4.8009,4.7817,4.7932,4.8025,4.8166,4.8542,4.8516,4.8828,4.9375,4.9844,5.0312,5.0703,5.1172,5.1386,5.1307,5.1225,5.099,5.0818,5.0702,5.0664,5.0664,5.0818,5.1337,5.1934,5.2068,5.2797,5.3622,5.4297,5.4549,5.4895,5.5241,5.5472,5.5626,5.5703,5.5703,5.5955,5.6032,5.6186,5.6263,5.6681,5.6451,5.6088,5.5665,5.5088,5.478,5.4818,5.4972,5.5011,5.5011,5.5109,5.5032,5.4836,5.5105,5.5742,5.6367,5.6982,5.7721,4.8594,4.6797,4.7578,4.7812,4.75,4.6953,4.7031,4.7461,4.668,4.6289,4.6328,4.6289,4.6289,4.6367,4.6992,4.7266,4.7344,4.7891,4.8203,4.8203,4.8203,4.7812,4.7539,4.8164,4.8906,4.9453,4.9844,5.0703,5.2226,5.2422,5.3008,5.3945,5.3867,5.375,5.3906,5.3828,5.375,5.4101,5.4883,5.5312,5.539,5.5859,5.5664,5.4823,5.4233,5.3569,5.2838,5.2626,5.1433,4.924,4.8394,4.8105,4.824,4.8279,4.8337,4.8414,4.8298,4.8164,4.8203,4.826,4.826,4.8279,4.8707,4.8549,4.8711,4.9414,4.9883,5.0312,5.0703,5.1172,5.1367,5.144,5.1591,5.1846,5.1433,5.0933,5.0856,5.0702,5.0702,5.0779,5.1549,5.2281,5.2859,5.3643,5.4528,5.5105,5.5318,5.5357,5.5626,5.5703,5.5703,5.5703,5.578,5.6186,5.6417,5.6609,5.6994,5.762,5.7527,5.7011,5.6395,5.5665,5.5472,5.5434,5.5742,5.5895,5.5665,5.5588,5.5434,5.5511,5.5742,5.6302,5.7197,5.7907,5.8797,4.7923,4.625,4.6758,4.6992,4.6992,4.6484,4.6797,4.7305,4.668,4.6523,4.6719,4.6445,4.6289,4.6406,4.7187,4.7617,4.7734,4.8516,4.8867,4.8945,4.9219,4.8906,4.8594,4.9297,5.0234,5.0742,5.1445,5.2539,5.3594,5.3789,5.4258,5.4922,5.4726,5.4726,5.5117,5.4687,5.4765,5.5117,5.5586,5.5742,5.582,5.6101,5.5734,5.5113,5.4762,5.428,5.3433,5.3241,5.2164,5.0433,4.9798,4.9702,4.9683,4.9683,4.9875,5.0144,5.024,5.0297,5.024,5.0259,5.0067,4.9933,4.999,4.9935,4.9922,5.0351,5.0703,5.082,5.1484,5.1875,5.1992,5.2142,5.2446,5.2724,5.2182,5.1741,5.1741,5.1838,5.1568,5.1703,5.2339,5.3116,5.3402,5.4413,5.5168,5.5588,5.5626,5.5626,5.5703,5.5703,5.5742,5.5818,5.6126,5.6571,5.7033,5.7264,5.7627,5.8274,5.8427,5.7934,5.7203,5.6434,5.6434,5.6472,5.6626,5.6703,5.6609,5.6533,5.6571,5.6669,5.6669,5.6883,5.7661,5.8526,5.9455,4.6857,4.6094,4.6094,4.617,4.6289,4.6289,4.6758,4.7344,4.6797,4.6875,4.7266,4.6758,4.6484,4.6367,4.7383,4.7773,4.7851,4.8945,4.9375,4.9766,5.0195,5.0234,5.0078,5.0859,5.1406,5.1758,5.3242,5.4219,5.4805,5.5117,5.5664,5.6015,5.5703,5.5859,5.6055,5.5742,5.5937,5.6484,5.6523,5.6562,5.6601,5.664,5.6175,5.5188,5.4972,5.4434,5.378,5.3433,5.2779,5.1048,5.1665,5.1838,5.1933,5.1991,5.2242,5.2666,5.2644,5.2756,5.3028,5.2682,5.2682,5.2049,5.2127,5.2056,5.1415,5.1406,5.1562,5.1562,5.2266,5.2617,5.293,5.3319,5.3624,5.3726,5.349,5.3472,5.3433,5.332,5.2916,5.2435,5.3725,5.4136,5.4251,5.4797,5.5857,5.5626,5.5703,5.5703,5.5703,5.5703,5.5857,5.6088,5.6511,5.7071,5.7533,5.7995,5.8434,5.8889,5.9065,5.8781,5.8127,5.7588,5.755,5.755,5.7473,5.761,5.7786,5.7786,5.7709,5.7593,5.7418,5.7555,5.7906,5.878,5.9744,4.6738,4.5918,4.5918,4.5949,4.5988,4.6027,4.6561,4.7383,4.7226,4.7305,4.7539,4.7383,4.6953,4.6406,4.7812,4.8633,4.8789,5.0,5.1172,5.1875,5.1992,5.25,5.2539,5.2656,5.2422,5.2734,5.3476,5.4453,5.5156,5.5547,5.5742,5.6484,5.6523,5.6445,5.6601,5.6562,5.6758,5.7422,5.7461,5.7383,5.748,5.766,5.717,5.5895,5.5626,5.5088,5.4587,5.4818,5.4318,5.3164,5.2877,5.3107,5.2972,5.2913,5.3067,5.328,5.3336,5.3294,5.3217,5.3336,5.3164,5.3049,5.3109,5.2962,5.2173,5.2277,5.2383,5.2422,5.2617,5.3164,5.3789,5.4294,5.4569,5.4651,5.4836,5.5049,5.4972,5.4049,5.3377,5.3435,5.4136,5.4765,5.4492,5.5398,5.5924,5.5745,5.5742,5.5703,5.5742,5.5818,5.6203,5.6588,5.7165,5.7802,5.838,5.8842,5.9281,5.9565,5.9681,5.9704,5.905,5.8588,5.8511,5.8319,5.8127,5.838,5.8803,5.8572,5.8418,5.8303,5.8264,5.8495,5.8847,5.9495,5.9882,4.6275,4.5851,4.5877,4.588,4.5919,4.5919,4.6441,4.7198,4.7318,4.764,4.8047,4.8125,4.7656,4.7031,4.8242,4.8867,4.9297,5.0625,5.1875,5.2461,5.2695,5.3164,5.3945,5.4023,5.3945,5.4062,5.4844,5.5508,5.5859,5.6289,5.6836,5.7148,5.7226,5.7539,5.7656,5.7422,5.7695,5.8281,5.8242,5.8148,5.8239,5.8308,5.8154,5.7225,5.6934,5.6549,5.5857,5.6011,5.5588,5.4818,5.4724,5.457,5.3933,5.3815,5.399,5.4297,5.4374,5.4353,5.4374,5.4336,5.4241,5.3857,5.3993,5.3591,5.3185,5.3096,5.3242,5.3398,5.375,5.4297,5.5117,5.5276,5.5514,5.5499,5.5626,5.5857,5.5972,5.5203,5.4318,5.4398,5.5034,5.5156,5.539,5.6094,5.6136,5.6032,5.6456,5.6456,5.6434,5.6549,5.6934,5.7396,5.7973,5.8588,5.9226,5.9727,6.0127,6.0319,6.0396,6.0358,6.005,5.9704,5.9435,5.9204,5.9011,5.9473,5.9804,5.9473,5.9204,5.9065,5.9165,5.9435,5.9688,6.0029,6.0299,4.5757,4.5757,4.5757,4.5796,4.5873,4.6005,4.6617,4.7339,4.7521,4.8202,4.875,4.8902,4.8476,4.8086,4.8476,4.8945,4.9726,5.0859,5.2266,5.3281,5.3398,5.3945,5.4609,5.5117,5.539,5.5586,5.6055,5.6484,5.6914,5.7461,5.7734,5.8047,5.8125,5.8359,5.8789,5.8555,5.8515,5.918,5.9062,5.8909,5.8911,5.8842,5.8765,5.8396,5.8066,5.778,5.7203,5.7126,5.6857,5.6203,5.678,5.6357,5.5511,5.4934,5.4989,5.5665,5.5472,5.5549,5.5643,5.5626,5.5318,5.4818,5.4857,5.4534,5.3999,5.3906,5.4062,5.4414,5.4844,5.5625,5.6484,5.6439,5.629,5.6175,5.5955,5.628,5.6665,5.6434,5.5878,5.5573,5.576,5.582,5.6094,5.6574,5.6437,5.6434,5.6879,5.7187,5.7187,5.7319,5.7703,5.8127,5.8665,5.9242,5.9858,6.0089,6.0589,6.0742,6.0858,6.0819,6.0742,6.0396,6.005,6.0012,6.005,6.0396,6.0512,6.0281,6.005,5.995,5.995,6.0127,6.0319,6.0512,6.0704,4.5624,4.5624,4.5642,4.5624,4.574,4.6432,4.7219,4.8141,4.8767,4.9341,4.9558,4.9708,4.9289,4.8743,4.8629,4.9469,5.0703,5.1836,5.3203,5.4453,5.4687,5.5117,5.582,5.6055,5.6289,5.6406,5.664,5.7031,5.75,5.7851,5.8476,5.8867,5.8984,5.918,5.9258,5.9062,5.9339,5.9963,5.9869,5.9726,5.9694,5.9935,5.9858,5.9335,5.8873,5.8434,5.8204,5.8088,5.8011,5.7896,5.8033,5.7879,5.7396,5.684,5.6417,5.6032,5.5972,5.6242,5.6604,5.6165,5.6165,5.6242,5.6011,5.5395,5.4868,5.4749,5.4922,5.5234,5.582,5.6484,5.6562,5.7024,5.682,5.658,5.6609,5.6896,5.7088,5.711,5.7159,5.7063,5.6847,5.6678,5.7004,5.7262,5.7288,5.7408,5.7819,5.8011,5.805,5.8204,5.8473,5.8896,5.9319,5.9896,6.0512,6.055,6.0781,6.0896,6.0973,6.105,6.0935,6.0819,6.0666,6.0704,6.0627,6.0627,6.0742,6.0781,6.0704,6.0396,6.055,6.0742,6.0704,6.0666,6.0819,4.5586,4.5586,4.5586,4.5855,4.6317,4.6701,4.7394,4.8259,4.9124,4.9567,4.9847,5.0158,5.0031,4.9433,4.9265,5.0057,5.1211,5.2187,5.3594,5.4961,5.5351,5.5742,5.6523,5.6601,5.6601,5.6719,5.7031,5.7461,5.7969,5.8867,5.9336,5.9687,5.9805,6.0039,6.0273,6.0078,6.0273,6.0654,6.0704,6.0589,6.0396,6.0704,6.0473,6.0165,5.9758,5.9396,5.8973,5.8934,5.8704,5.8434,5.8688,5.8627,5.8434,5.828,5.7918,5.7225,5.6994,5.7165,5.7566,5.7242,5.7319,5.7473,5.6934,5.6417,5.6,5.5831,5.5825,5.6406,5.6797,5.7461,5.793,5.8008,5.7853,5.7639,5.7627,5.7857,5.8088,5.8127,5.8297,5.8441,5.7922,5.7722,5.7978,5.8149,5.818,5.8412,5.8748,5.8835,5.8934,5.905,5.9242,5.9627,6.0012,6.0319,6.0819,6.0935,6.1243,6.1358,6.1358,6.1396,6.155,6.1589,6.155,6.1512,6.132,6.1127,6.0819,6.0858,6.0819,6.0858,6.0935,6.0935,6.0858,6.0819,6.1127,4.5586,4.5586,4.5586,4.6086,4.6855,4.7086,4.7625,4.8432,4.9317,4.9798,4.9913,5.049,5.0565,5.0158,5.0153,5.0568,5.1457,5.2344,5.3867,5.5312,5.5625,5.6015,5.6406,5.6601,5.664,5.6758,5.7734,5.8164,5.8515,5.9531,6.0312,6.0625,6.0664,6.0937,6.1328,6.0937,6.1133,6.1186,6.1366,6.1189,6.0973,6.0858,6.0781,6.0781,6.0781,6.0396,5.9858,5.9742,5.9511,5.9281,5.9358,5.9511,5.9088,5.9412,5.9435,5.8902,5.8534,5.8396,5.845,5.8242,5.8165,5.8434,5.7742,5.7418,5.7247,5.6946,5.6908,5.7687,5.8008,5.8203,5.8633,5.8906,5.8784,5.8564,5.8527,5.8742,5.905,5.9249,5.9493,5.9347,5.885,5.8789,5.9023,5.9068,5.9108,5.9399,5.9742,5.9719,5.9781,5.9781,5.9973,6.0358,6.0666,6.0819,6.1089,6.1281,6.1743,6.2267,6.2166,6.2166,6.2397,6.2627,6.2512,6.232,6.2089,6.182,6.1358,6.1089,6.1266,6.1381,6.1304,6.1304,6.1381,6.1627,6.1973,4.5586,4.5586,4.5586,4.6086,4.6932,4.7625,4.8432,4.924,5.0087,5.0548,5.0471,5.076,5.0837,5.0756,5.0833,5.1331,5.2161,5.3164,5.4492,5.5937,5.625,5.6367,5.6562,5.6601,5.6719,5.6992,5.8281,5.8945,5.9297,6.0039,6.082,6.1328,6.1406,6.1601,6.164,6.1484,6.1468,6.1327,6.1311,6.1151,6.0896,6.0819,6.0781,6.0781,6.0781,6.0742,6.0512,6.0473,6.0358,6.0396,6.0473,6.055,6.0512,6.055,6.0627,6.0089,5.9373,5.8619,5.9142,5.8912,5.8835,5.9127,5.8588,5.8242,5.8033,5.8055,5.8063,5.8445,5.8627,5.8822,5.9143,5.9382,5.9149,5.9147,5.9204,5.9435,5.9727,6.0055,6.0306,6.0522,6.0075,5.9961,6.0,6.0,6.0025,6.0404,6.0666,6.0589,6.0512,6.0396,6.0627,6.0973,6.1266,6.1381,6.1766,6.192,6.2397,6.3051,6.2897,6.2897,6.3397,6.3628,6.332,6.3089,6.2897,6.2704,6.2397,6.219,6.2036,6.1997,6.2113,6.2113,6.2059,6.2421,6.2719,4.5586,4.5586,4.5586,4.6086,4.6971,4.7778,4.8586,4.9471,5.0317,5.0702,5.0702,5.0741,5.0779,5.0952,5.126,5.2011,5.2915,5.3843,5.4986,5.6045,5.6406,5.6484,5.6484,5.6601,5.6758,5.7539,5.8515,5.9453,5.9961,6.0664,6.1406,6.1601,6.1719,6.168,6.1719,6.1719,6.1518,6.1303,6.1118,6.092,6.0819,6.0781,6.0781,6.0781,6.0781,6.0781,6.0781,6.0781,6.0781,6.0781,6.0781,6.0781,6.0781,6.0781,6.0781,6.0704,6.0181,5.995,6.0142,5.9858,5.9896,5.9858,5.9435,5.8819,5.8511,5.8495,5.8842,5.9281,5.9374,5.9584,5.9968,6.0324,6.021,6.0118,5.9935,6.0127,6.0371,6.0631,6.0934,6.1136,6.125,6.0976,6.0625,6.039,6.0316,6.0535,6.0742,6.0742,6.0704,6.0666,6.1035,6.1574,6.1766,6.192,6.2421,6.2767,6.3281,6.3743,6.3397,6.3589,6.4436,6.4628,6.4359,6.4128,6.3935,6.3705,6.3474,6.3089,6.2844,6.2921,6.306,6.2998,6.2921,6.2911,6.3424,4.5586,4.5624,4.5817,4.6432,4.7278,4.8086,4.8933,4.9779,5.0394,5.0818,5.0971,5.1048,5.1125,5.1279,5.1838,5.2473,5.3685,5.4395,5.5228,5.5903,5.6277,5.6328,5.6406,5.6523,5.6992,5.789,5.8711,5.957,6.039,6.1133,6.164,6.1719,6.1719,6.1719,6.1719,6.1697,6.1564,6.1297,6.098,6.0843,6.0781,6.0781,6.0781,6.0781,6.0781,6.0781,6.0819,6.1127,6.1166,6.1166,6.1512,6.1574,6.1304,6.1535,6.1266,6.1089,6.0781,6.0858,6.0781,6.0589,6.0781,6.0589,6.0319,5.9627,5.9204,5.905,5.9242,5.9988,6.0096,6.0525,6.0958,6.0943,6.0789,6.0673,6.0704,6.0858,6.0965,6.1039,6.1149,6.13,6.1406,6.1445,6.1094,6.0664,6.059,6.075,6.0819,6.0935,6.105,6.1127,6.1651,6.2252,6.2421,6.269,6.3344,6.3782,6.4295,6.4641,6.4334,6.4705,6.5782,6.5859,6.5513,6.5282,6.5089,6.5089,6.5051,6.432,6.3628,6.3782,6.3897,6.3897,6.3834,6.3809,6.4347,4.5586,4.5663,4.6471,4.724,4.8009,4.8933,4.9779,5.0356,5.0587,5.1125,5.1664,5.1818,5.2125,5.2664,5.2492,5.2992,5.4395,5.4605,5.5227,5.5768,5.6136,5.6311,5.6475,5.6719,5.7109,5.7969,5.8945,5.9765,6.043,6.1328,6.164,6.1719,6.1719,6.1719,6.168,6.1658,6.1516,6.1292,6.0981,6.0804,6.0781,6.0819,6.0819,6.0896,6.0858,6.0819,6.0858,6.1589,6.2012,6.2012,6.2435,6.2536,6.219,6.2483,6.2175,6.1589,6.1535,6.1574,6.132,6.0935,6.0781,6.0781,6.0666,6.0473,6.0204,6.0473,6.0666,6.0589,6.0589,6.0666,6.0819,6.0819,6.0819,6.0819,6.0858,6.0896,6.1032,6.1173,6.1277,6.1456,6.1523,6.1523,6.164,6.1211,6.1125,6.1281,6.155,6.1666,6.1897,6.205,6.2497,6.2945,6.3176,6.3614,6.4397,6.491,6.5397,6.6051,6.6205,6.6744,6.7628,6.7321,6.6628,6.6551,6.6436,6.6551,6.6513,6.582,6.5282,6.491,6.4834,6.5013,6.5089,6.5141,6.5833,4.5586,4.5701,4.7048,4.7548,4.7471,4.8817,4.9586,4.9971,5.0471,5.1125,5.1933,5.1972,5.2395,5.301,5.3608,5.38,5.4549,5.5126,5.5472,5.5934,5.6382,5.6772,5.7063,5.7625,5.8476,5.918,5.9805,6.039,6.1211,6.1562,6.164,6.1719,6.1719,6.1719,6.168,6.1534,6.1423,6.1267,6.1012,6.0819,6.0781,6.0819,6.105,6.1574,6.1612,6.192,6.232,6.2627,6.2781,6.2935,6.3205,6.3128,6.2998,6.3291,6.2959,6.2257,6.232,6.219,6.2012,6.1435,6.0819,6.0781,6.0781,6.0781,6.0781,6.0781,6.0781,6.0781,6.0819,6.0896,6.0781,6.0819,6.0781,6.0781,6.0896,6.105,6.1164,6.1427,6.1668,6.19,6.1725,6.1562,6.168,6.1758,6.1758,6.1834,6.2166,6.2435,6.2666,6.2935,6.3344,6.3907,6.4152,6.4768,6.5551,6.6076,6.6538,6.7231,6.7898,6.8321,6.8641,6.8282,6.7744,6.7744,6.7667,6.7628,6.7475,6.7269,6.6859,6.632,6.6244,6.6359,6.6436,6.6359,6.7013,4.5586,4.5778,4.7394,4.7778,4.7509,4.9086,4.9779,4.9894,5.0433,5.1164,5.1933,5.2164,5.2779,5.3587,5.4147,5.4647,5.4934,5.5395,5.5588,5.6049,5.6588,5.7126,5.7657,5.8294,5.9102,6.0138,6.0469,6.082,6.1562,6.168,6.1719,6.1719,6.1719,6.1719,6.164,6.1456,6.1306,6.1246,6.1281,6.0973,6.0896,6.142,6.1535,6.2151,6.2267,6.2666,6.3103,6.3411,6.3666,6.382,6.3974,6.3949,6.3897,6.3844,6.3743,6.3372,6.3103,6.3051,6.2781,6.2127,6.1089,6.0858,6.0781,6.0781,6.0781,6.0819,6.0781,6.0819,6.0973,6.1089,6.105,6.1243,6.1435,6.1589,6.1897,6.205,6.1897,6.206,6.2196,6.2407,6.2194,6.2178,6.2797,6.303,6.2906,6.2834,6.268,6.3065,6.3589,6.3858,6.4128,6.473,6.5268,6.6038,6.6808,6.7167,6.759,6.8282,6.8833,6.9064,6.9217,6.8975,6.8821,6.8706,6.8629,6.859,6.8513,6.8398,6.8039,6.7577,6.7385,6.7013,6.6898,6.6821,6.7552,4.5586,4.5778,4.7394,4.8086,4.8202,4.9933,5.0587,5.0548,5.0664,5.1164,5.1972,5.2664,5.3549,5.4241,5.457,5.4993,5.5395,5.5626,5.5703,5.5934,5.6819,5.711,5.7719,5.8513,5.975,6.0111,6.0547,6.1055,6.168,6.1719,6.1719,6.1719,6.1719,6.1719,6.168,6.1417,6.1306,6.1395,6.1805,6.1512,6.155,6.2305,6.256,6.2728,6.3026,6.3424,6.3872,6.4334,6.4551,6.4628,6.5128,6.5128,6.4897,6.5243,6.4936,6.3847,6.4193,6.3988,6.332,6.2512,6.1858,6.1166,6.1089,6.105,6.0896,6.0858,6.1089,6.1381,6.1689,6.1651,6.1766,6.205,6.2243,6.2397,6.2666,6.2743,6.2589,6.2613,6.2754,6.2947,6.2974,6.3115,6.3951,6.4449,6.4218,6.3924,6.3488,6.3757,6.4512,6.4936,6.5282,6.5884,6.6538,6.7077,6.777,6.8141,6.8614,6.9294,6.9871,7.0179,7.0256,7.0206,7.0014,6.9744,6.9513,6.936,6.9513,6.9629,6.9386,6.9001,6.777,6.7308,6.7192,6.75,6.8321,4.5586,4.574,4.7394,4.8086,4.8355,4.9933,5.0702,5.0702,5.0741,5.1164,5.1972,5.2818,5.3664,5.4395,5.5049,5.5395,5.5626,5.5703,5.5703,5.5895,5.7126,5.7857,5.851,5.9506,6.0555,6.1055,6.1289,6.1289,6.1719,6.1719,6.1719,6.1719,6.1719,6.1719,6.164,6.1495,6.1485,6.1967,6.2142,6.2166,6.2488,6.3036,6.3484,6.3666,6.3962,6.4347,6.4795,6.5218,6.5359,6.5397,6.5936,6.5936,6.5897,6.6346,6.5859,6.5295,6.5513,6.418,6.3718,6.3281,6.3051,6.2281,6.1666,6.1666,6.1651,6.1627,6.192,6.229,6.2598,6.2613,6.2796,6.2872,6.3012,6.3012,6.3128,6.3166,6.3089,6.3205,6.3317,6.3518,6.362,6.4176,6.4888,6.5743,6.5735,6.5667,6.5295,6.541,6.6051,6.632,6.6628,6.7269,6.7872,6.827,6.8706,6.9025,6.9563,7.0256,7.0948,7.1525,7.1525,7.1398,7.136,7.1245,7.0667,7.0167,7.0514,7.081,7.0887,7.0425,6.9232,6.8462,6.8462,6.8809,6.9398,4.5418,4.5611,4.7222,4.7933,4.8201,4.9932,5.0702,5.0779,5.1241,5.1741,5.2125,5.3126,5.3933,5.4626,5.528,5.5703,5.5703,5.5703,5.6049,5.6242,5.755,5.8473,5.9436,6.0507,6.1136,6.164,6.1719,6.1719,6.1719,6.1719,6.1719,6.1719,6.1719,6.168,6.168,6.179,6.2043,6.2527,6.2732,6.3166,6.3449,6.3858,6.4345,6.4526,6.4872,6.5295,6.5705,6.5936,6.6013,6.6128,6.6244,6.6538,6.6885,6.6731,6.659,6.6718,6.6705,6.568,6.5564,6.5628,6.5205,6.3782,6.2974,6.2536,6.2521,6.2497,6.2704,6.3113,6.3561,6.3512,6.3424,6.3526,6.4051,6.4051,6.4089,6.4128,6.4243,6.4397,6.4306,6.4464,6.457,6.5173,6.5979,6.669,6.7286,6.7263,6.7218,6.7398,6.7398,6.7436,6.7667,6.8309,6.877,6.9117,6.9436,6.9821,7.0437,7.1206,7.186,7.2419,7.264,7.2514,7.2591,7.2629,7.2129,7.1745,7.1811,7.1964,7.1964,7.1657,7.0821,7.0233,6.9886,6.9886,7.009,4.509,4.5322,4.6892,4.764,4.799,4.991,5.0779,5.0856,5.2356,5.2587,5.201,5.3626,5.4318,5.4626,5.5357,5.5665,5.5703,5.5703,5.6088,5.6857,5.778,5.8765,5.9765,6.074,6.1346,6.1601,6.1719,6.1719,6.1719,6.168,6.168,6.168,6.164,6.1733,6.1914,6.2354,6.2648,6.302,6.368,6.3949,6.418,6.491,6.5089,6.518,6.5397,6.5667,6.5936,6.6051,6.6436,6.6551,6.6513,6.7192,6.7346,6.6821,6.7345,6.7806,6.8179,6.7948,6.7782,6.7744,6.7282,6.5743,6.4628,6.3844,6.3407,6.3498,6.382,6.4166,6.4614,6.4141,6.3847,6.468,6.5436,6.5474,6.5513,6.559,6.5743,6.5743,6.5628,6.5642,6.5595,6.6178,6.7424,6.82,6.8548,6.8434,6.841,6.859,6.8475,6.7975,6.8321,6.8975,6.9463,6.9809,7.0194,7.0706,7.1129,7.1849,7.2447,7.3034,7.3255,7.3524,7.3514,7.3514,7.3476,7.3322,7.3157,7.3042,7.2965,7.2514,7.2091,7.1129,7.0502,7.009,7.0167,4.4751,4.4927,4.6801,4.7617,4.8006,5.0448,5.1241,5.0894,5.1856,5.2087,5.1972,5.3087,5.4049,5.4549,5.5357,5.5626,5.5703,5.5703,5.5818,5.6549,5.7703,5.8473,5.9456,6.0546,6.1268,6.1601,6.168,6.1719,6.168,6.1634,6.1578,6.1562,6.1489,6.1756,6.2316,6.311,6.3201,6.3515,6.4282,6.4705,6.4949,6.559,6.5628,6.5667,6.5667,6.5897,6.6051,6.6474,6.6898,6.7013,6.7513,6.827,6.904,6.8309,6.8179,6.8229,6.8371,6.8359,6.8398,6.841,6.8179,6.7782,6.7013,6.5782,6.5114,6.4806,6.5128,6.5513,6.6038,6.5897,6.5526,6.6013,6.6513,6.659,6.6628,6.6782,6.6898,6.6821,6.6731,6.6902,6.688,6.756,6.8768,6.9381,6.9633,6.9538,6.9525,6.9629,6.9475,6.8936,6.8975,6.9629,7.0321,7.0771,7.1233,7.1734,7.2003,7.2426,7.3091,7.3755,7.4178,7.437,7.4361,7.4322,7.4207,7.4207,7.4273,7.412,7.3889,7.3822,7.3409,7.2206,7.1206,7.0975,7.0783,4.4345,4.4589,4.6165,4.7419,4.8635,5.0873,5.1433,5.101,5.1933,5.2433,5.2549,5.3395,5.4164,5.4972,5.5472,5.5703,5.5703,5.5742,5.5934,5.6703,5.7627,5.855,5.9474,6.0492,6.1268,6.1562,6.168,6.1719,6.164,6.156,6.1505,6.1434,6.1346,6.1621,6.2133,6.2914,6.3484,6.3921,6.4512,6.532,6.5705,6.5897,6.5897,6.5897,6.5897,6.6051,6.6397,6.6949,6.7359,6.7821,6.859,6.9001,6.9797,6.9655,6.909,6.9217,6.9371,6.9513,6.959,6.9513,6.9283,6.9013,6.8898,6.7898,6.7116,6.6654,6.6821,6.7064,6.7654,6.7988,6.7577,6.7282,6.7436,6.759,6.7705,6.7821,6.7821,6.7821,6.795,6.818,6.8578,6.9167,6.9811,7.0377,7.0622,7.0464,7.0321,7.0321,7.0129,6.9667,6.9821,7.036,7.1156,7.1849,7.2234,7.2619,7.3004,7.335,7.386,7.4447,7.4947,7.5178,7.5168,7.5053,7.4899,7.5043,7.5197,7.4966,7.4735,7.4668,7.4447,7.3486,7.2668,7.2283,7.2129,4.3985,4.4132,4.5368,4.7296,4.9394,5.1009,5.1278,5.0894,5.2164,5.3049,5.3241,5.3972,5.4703,5.5357,5.5665,5.5703,5.5703,5.5703,5.6126,5.6973,5.7819,5.8704,5.9742,6.0771,6.1334,6.1523,6.1601,6.168,6.164,6.1483,6.1343,6.1304,6.1235,6.1366,6.179,6.2897,6.3589,6.4026,6.4974,6.5897,6.5859,6.5897,6.5897,6.5897,6.609,6.6359,6.691,6.7448,6.8013,6.8821,6.9398,6.959,7.0206,7.0706,7.0283,7.0167,7.0283,7.0437,7.0475,7.0437,7.0244,6.9975,6.9744,6.9283,6.8744,6.8193,6.8205,6.8102,6.8513,6.8552,6.8179,6.8256,6.841,6.8513,6.8552,6.8821,6.9013,6.8937,6.8883,6.914,6.9566,7.0113,7.048,7.0976,7.1186,7.1171,7.1168,7.1091,7.1168,7.0744,7.0821,7.1283,7.2195,7.2888,7.2822,7.3245,7.3937,7.4399,7.4716,7.5062,7.5476,7.5745,7.5938,7.5784,7.5592,7.5899,7.6082,7.5851,7.5659,7.5438,7.5168,7.4601,7.4139,7.3899,7.3283,4.3767,4.4177,4.597,4.7629,4.9066,5.0106,5.0632,5.0702,5.1087,5.2087,5.3087,5.351,5.4357,5.5588,5.5703,5.5703,5.5703,5.5742,5.6242,5.7011,5.7896,5.8819,5.9819,6.0789,6.1304,6.1484,6.1601,6.164,6.1484,6.1306,6.1089,6.105,6.1012,6.1127,6.1766,6.2935,6.3628,6.4064,6.5205,6.5974,6.6013,6.5936,6.5897,6.6128,6.6397,6.6833,6.7525,6.8448,6.9013,6.9629,7.0167,7.0514,7.086,7.0898,7.0821,7.0706,7.0898,7.1129,7.1168,7.1206,7.1052,7.086,7.0629,7.0514,7.0206,6.9694,6.9348,6.9179,6.9036,6.8998,6.8998,6.9217,6.9371,6.9371,6.9398,6.9744,7.0129,6.9976,6.9794,7.0081,7.0465,7.0781,7.1133,7.142,7.1649,7.1783,7.1898,7.2052,7.2591,7.2514,7.2129,7.2552,7.3465,7.3966,7.3745,7.3976,7.4707,7.5014,7.5216,7.5592,7.5976,7.6169,7.6322,7.6322,7.6322,7.6659,7.6852,7.6929,7.6698,7.6284,7.6053,7.5601,7.6015,7.5976,7.4899,4.3597,4.4003,4.5522,4.7057,4.8334,4.9196,4.9991,5.0606,5.0702,5.1625,5.3049,5.3318,5.4126,5.5549,5.5703,5.5703,5.5703,5.5703,5.6242,5.7049,5.7896,5.8781,5.9742,6.0789,6.1174,6.1445,6.1523,6.1523,6.1325,6.1142,6.0973,6.0896,6.0858,6.1089,6.1843,6.2666,6.3589,6.4128,6.5243,6.5974,6.623,6.6128,6.6192,6.6436,6.6859,6.741,6.841,6.9321,6.9706,7.0167,7.0629,7.0744,7.1014,7.1332,7.1486,7.1629,7.1849,7.2041,7.2014,7.1975,7.1937,7.186,7.1514,7.1398,7.1283,7.0771,7.0206,7.0063,7.0102,7.0063,7.0025,7.014,7.0206,7.0206,7.0206,7.0398,7.0591,7.0593,7.0595,7.082,7.1055,7.1133,7.1484,7.1847,7.2058,7.214,7.2294,7.2822,7.3399,7.4014,7.3707,7.3745,7.4581,7.4697,7.435,7.4745,7.5515,7.5707,7.5745,7.5861,7.6092,7.6438,7.6669,7.6823,7.7044,7.7314,7.7506,7.766,7.7391,7.6929,7.6784,7.6639,7.7246,7.7707,7.6938,4.3497,4.364,4.4804,4.609,4.7408,4.8302,4.9357,5.0375,5.051,5.151,5.3087,5.3203,5.4203,5.5241,5.5703,5.5703,5.5703,5.5703,5.6242,5.7242,5.7973,5.8973,5.9935,6.0773,6.1174,6.139,6.1446,6.1292,6.1078,6.0973,6.0896,6.0819,6.0781,6.0819,6.1281,6.2281,6.3435,6.3935,6.4897,6.6192,6.6423,6.6423,6.6615,6.6923,6.7436,6.8179,6.9179,6.991,7.0283,7.0898,7.136,7.1541,7.1706,7.2101,7.2255,7.2476,7.2811,7.3091,7.3206,7.314,7.3217,7.3168,7.2629,7.2206,7.2014,7.1552,7.1014,7.1014,7.1091,7.1091,7.1052,7.1052,7.1052,7.0975,7.0975,7.0898,7.0975,7.1129,7.133,7.1505,7.164,7.164,7.1914,7.2305,7.2572,7.2657,7.2947,7.3447,7.4014,7.463,7.4861,7.5014,7.5543,7.5428,7.5159,7.5361,7.6092,7.6169,7.6169,7.613,7.6322,7.6976,7.7361,7.7476,7.7737,7.816,7.8284,7.8331,7.8015,7.7737,7.7545,7.7583,7.8062,7.8515,7.8746,4.3497,4.3569,4.4703,4.5594,4.6278,4.7061,4.8234,4.9509,4.974,5.0933,5.2741,5.3318,5.4126,5.5703,5.5703,5.5703,5.5703,5.5703,5.6763,5.7956,5.8127,5.9204,6.0211,6.086,6.1264,6.1373,6.1351,6.1214,6.0973,6.0896,6.0819,6.0781,6.0781,6.0896,6.1127,6.2243,6.3372,6.3949,6.5051,6.6423,6.6731,6.6808,6.7,6.75,6.8179,6.8833,6.959,7.036,7.1091,7.1849,7.2465,7.2723,7.285,7.3004,7.3206,7.3332,7.364,7.3793,7.3909,7.3909,7.3947,7.3822,7.3168,7.2476,7.2129,7.1552,7.1398,7.1783,7.186,7.1937,7.1937,7.1937,7.1898,7.1668,7.158,7.1245,7.1129,7.1426,7.1684,7.2008,7.2305,7.2383,7.2539,7.3035,7.3613,7.3783,7.4091,7.4553,7.5053,7.5515,7.5976,7.6245,7.6515,7.6813,7.6813,7.613,7.6438,7.6553,7.6707,7.6823,7.7139,7.7823,7.8169,7.8284,7.8776,7.9276,7.9285,7.9138,7.9092,7.8853,7.8459,7.8459,7.8938,7.9331,7.9631]},{"header":{"parameterUnit":"m.s-1","parameterCategory":1,"la1":31.0,"la2":29.5877,"lo1":-88.7671,"lo2":-86.6584,"dy":0.0162,"dx":0.0185,"nx":115,"ny":88,"refTime":"2024-03-27T06:00:00:Z","depth":0,"parameterNumber":3,"parameterNumberName":"V-component_of_WINDS"},"data":[0.0,0.0,0.0,0.0,0.0,0.0,0.0,0.0,0.0,0.0,0.0,0.0,0.0,0.0,0.0,0.0,0.0,0.0,0.0,0.0,0.0,0.0,0.0,0.0,0.0,0.0,0.0,0.0,0.0,0.0,0.0,0.0,0.0,0.0,0.0,0.0,0.0,0.0,0.0,0.0,0.0,0.0,0.0,0.0,0.0,0.0,0.0,0.0,0.0,0.0,0.0,0.0,0.0,0.0,0.0,0.0,0.0,0.0,0.0,0.0,0.0,0.0,0.0,0.0,0.0,0.0,0.0,0.0,0.0,0.0,0.0,0.0,0.0,0.0,0.0,0.0,0.0,0.0,0.0,0.0,0.0,0.0,0.0,0.0,0.0,0.0,0.0,0.0,0.0,0.0,0.0,0.0,0.0,0.0,0.0,0.0,0.0,0.0,0.0,0.0,0.0,0.0,0.0,0.0,0.0,0.0,0.0,0.0,0.0,0.0,0.0,0.0,0.0,0.0,0.0,0.0,0.0,0.0,0.0,0.0,0.0,0.0,0.0,0.0,0.0,0.0,0.0,0.0,0.0,0.0,0.0,0.0,0.0,0.0,0.0,0.0,0.0,0.0,0.0,0.0,0.0,0.0,0.0,0.0,0.0,0.0,0.0,0.0,0.0,0.0,0.0,0.0,0.0,0.0,0.0,0.0,0.0,0.0,0.0,0.0,0.0,0.0,0.0,0.0,0.0,0.0,0.0,0.0,0.0,0.0,0.0,0.0,0.0,0.0,0.0,0.0,0.0,0.0,0.0,0.0,0.0,0.0,0.0,0.0,0.0,0.0,0.0,0.0,0.0,0.0,0.0,0.0,0.0,0.0,0.0,0.0,0.0,0.0,0.0,0.0,0.0,0.0,0.0,0.0,0.0,0.0,0.0,0.0,0.0,0.0,0.0,0.0,0.0,0.0,0.0,0.0,0.0,0.0,0.0,0.0,0.0,0.0,0.0,0.0,0.0,0.0,0.0,0.0,0.0,0.0,0.0,0.0,0.0,0.0,0.0,0.0,0.0,0.0,0.0,0.0,0.0,0.0,0.0,0.0,0.0,0.0,0.0,0.0,0.0,0.0,0.0,0.0,0.0,0.0,0.0,0.0,0.0,0.0,0.0,0.0,0.0,0.0,0.0,0.0,0.0,0.0,0.0,0.0,0.0,0.0,0.0,0.0,0.0,0.0,0.0,0.0,0.0,0.0,0.0,0.0,0.0,0.0,0.0,0.0,0.0,0.0,0.0,0.0,0.0,0.0,0.0,0.0,0.0,0.0,0.0,0.0,0.0,0.0,0.0,0.0,0.0,0.0,0.0,0.0,0.0,0.0,0.0,0.0,0.0,0.0,0.0,0.0,0.0,0.0,0.0,0.0,0.0,0.0,0.0,0.0,0.0,0.0,0.0,0.0,0.0,0.0,0.0,0.0,0.0,0.0,0.0,0.0,0.0,0.0,0.0,0.0,0.0,0.0,0.0,0.0,0.0,0.0,0.0,0.0,0.0,0.0,0.0,0.0,0.0,0.0,0.0,0.0,0.0,0.0,0.0,0.0,0.0,0.0,0.0,0.0,0.0,0.0,0.0,0.0,0.0,0.0,0.0,0.0,0.0,0.0,0.0,0.0,0.0,0.0,0.0,0.0,0.0,0.0,0.0,0.0,0.0,0.0,0.0,0.0,0.0,0.0,0.0,0.0,0.0,0.0,0.0,0.0,0.0,0.0,0.0,0.0,0.0,0.0,0.0,0.0,0.0,0.0,0.0,0.0,0.0,0.0,0.0,0.0,0.0,0.0,0.0,0.0,0.0,0.0,0.0,0.0,0.0,0.0,0.0,0.0,0.0,0.0,0.0,0.0,0.0,0.0,0.0,0.0,0.0,0.0,0.0,0.0,0.0,0.0,0.0,0.0,0.0,0.0,0.0,0.0,0.0,0.0,0.0,0.0,0.0,0.0,0.0,0.0,0.0,0.0,0.0,0.0,0.0,0.0,0.0,0.0,0.0,0.0,0.0,0.0,0.0,0.0,0.0,0.0,0.0,0.0,0.0,0.0,0.0,0.0,0.0,0.0,0.0,0.0,0.0,0.0,0.0,0.0,0.0,0.0,0.0,0.0,0.0,0.0,0.0,0.0,0.0,0.0,0.0,0.0,0.0,0.0,0.0,0.0,0.0,0.0,0.0,0.0,0.0,0.0,0.0,0.0,0.0,0.0,0.0,0.0,0.0,0.0,0.0,0.0,0.0,0.0,0.0,0.0,0.0,0.0,0.0,0.0,0.0,0.0,0.0,0.0,0.0,0.0,0.0,0.0,0.0,0.0,0.0,0.0,0.0,0.0,0.0,0.0,0.0,0.0,0.0,0.0,0.0,0.0,0.0,0.0,0.0,0.0,0.0,0.0,0.0,0.0,0.0,0.0,0.0,0.0,0.0,0.0,0.0,0.0,0.0,0.0,0.0,0.0,0.0,0.0,0.0,0.0,0.0,0.0,0.0,0.0,0.0,0.0,0.0,0.0,0.0,0.0,0.0,0.0,0.0,0.0,0.0,0.0,0.0,0.0,0.0,0.0,0.0,0.0,0.0,0.0,0.0,0.0,0.0,0.0,0.0,0.0,0.0,0.0,0.0,0.0,0.0,0.0,0.0,0.0,0.0,0.0,0.0,0.0,0.0,0.0,0.0,0.0,0.0,0.0,0.0,0.0,0.0,0.0,0.0,0.0,0.0,0.0,0.0,0.0,0.0,0.0,0.0,0.0,0.0,0.0,0.0,0.0,0.0,0.0,0.0,0.0,0.0,0.0,0.0,0.0,0.0,0.0,0.0,0.0,0.0,0.0,0.0,0.0,0.0,0.0,0.0,0.0,0.0,0.0,0.0,0.0,0.0,0.0,0.0,0.0,0.0,0.0,0.0,0.0,0.0,0.0,0.0,0.0,0.0,0.0,0.0,0.0,0.0,0.0,0.0,0.0,0.0,0.0,0.0,0.0,0.0,0.0,0.0,0.0,0.0,0.0,0.0,0.0,0.0,0.0,0.0,0.0,0.0,0.0,0.0,0.0,0.0,0.0,0.0,0.0,0.0,0.0,0.0,0.0,0.0,0.0,0.0,0.0,0.0,0.0,0.0,0.0,0.0,0.0,0.0,0.0,0.0,0.0,0.0,0.0,0.0,0.0,0.0,0.0,0.0,0.0,0.0,0.0,0.0,0.0,0.0,0.0,0.0,0.0,0.0,0.0,0.0,0.0,0.0,0.0,0.0,0.0,0.0,0.0,0.0,0.0,0.0,0.0,0.0,0.0,0.0,0.0,0.0,0.0,0.0,0.0,0.0,0.0,0.0,0.0,0.0,0.0,0.0,0.0,0.0,0.0,0.0,0.0,0.0,0.0,0.0,0.0,0.0,0.0,0.0,0.0,0.0,0.0,0.0,0.0,0.0,0.0,0.0,0.0,0.0,0.0,0.0,0.0,0.0,0.0,0.0,0.0,0.0,0.0,0.0,0.0,0.0,0.0,0.0,0.0,0.0,0.0,0.0,0.0,0.0,0.0,0.0,0.0,0.0,0.0,0.0,0.0,0.0,0.0,0.0,0.0,0.0,0.0,0.0,0.0,0.0,0.0,0.0,0.0,0.0,0.0,0.0,0.0,0.0,0.0,0.0,0.0,0.0,0.0,0.0,0.0,0.0,0.0,0.0,0.0,0.0,0.0,0.0,0.0,0.0,0.0,0.0,0.0,0.0,0.0,0.0,0.0,0.0,0.0,0.0,0.0,0.0,0.0,0.0,0.0,0.0,0.0,0.0,0.0,0.0,0.0,0.0,0.0,0.0,0.0,0.0,0.0,0.0,0.0,0.0,0.0,0.0,0.0,0.0,0.0,0.0,0.0,0.0,0.0,0.0,0.0,0.0,0.0,0.0,0.0,0.0,0.0,0.0,0.0,0.0,0.0,0.0,0.0,0.0,0.0,0.0,0.0,0.0,0.0,0.0,0.0,0.0,0.0,0.0,0.0,0.0,0.0,0.0,0.0,0.0,0.0,0.0,0.0,0.0,0.0,0.0,0.0,0.0,0.0,0.0,0.0,0.0,0.0,0.0,0.0,0.0,0.0,0.0,0.0,0.0,0.0,0.0,0.0,0.0,0.0,0.0,0.0,0.0,0.0,0.0,0.0,0.0,0.0,0.0,0.0,0.0,0.0,0.0,0.0,0.0,0.0,0.0,0.0,0.0,0.0,0.0,0.0,0.0,0.0,0.0,0.0,0.0,0.0,-0.5389,0.0,0.0,0.0,0.0,0.0,0.0,0.0,0.0,0.0,0.0,0.0,0.0,0.0,0.0,0.0,0.0,0.0,0.0,0.0,0.0,0.0,0.0,0.0,0.0,0.0,0.0,0.0,0.0,0.0,0.0,0.0,0.0,0.0,0.0,0.0,0.0,0.0,0.0,0.0,0.0,0.0,0.0,0.0,0.0,0.0,0.0,0.0,0.0,0.0,0.0,0.0,0.0,0.0,0.0,0.0,0.0,0.0,0.0,0.0,0.0,0.0,0.0,0.0,0.0,0.0,0.0,0.0,0.0,0.0,0.0,0.0,0.0,0.0,0.0,0.0,0.0,0.0,0.0,0.0,0.0,0.0,0.0,0.0,0.0,0.0,0.0,0.0,0.0,0.0,0.0,0.0,0.0,0.0,0.0,0.0,0.0,0.0,0.0,0.0,0.0,0.0,0.0,0.0,0.0,0.0,0.0,0.0,0.0,0.0,0.0,-0.5515,-0.5778,-0.5508,-0.5386,-0.5375,0.0,0.0,0.0,0.0,0.0,0.0,0.0,0.0,0.0,0.0,0.0,0.0,0.0,0.0,0.0,0.0,0.0,0.0,0.0,0.0,0.0,0.0,0.0,0.0,0.0,0.0,0.0,0.0,0.0,0.0,0.0,0.0,0.0,0.0,0.0,0.0,0.0,0.0,0.0,0.0,0.0,0.0,0.0,0.0,0.0,0.0,0.0,0.0,0.0,0.0,0.0,0.0,0.0,0.0,0.0,0.0,0.0,0.0,0.0,0.0,0.0,0.0,0.0,0.0,0.0,0.0,0.0,0.0,0.0,0.0,0.0,0.0,0.0,0.0,0.0,0.0,0.0,0.0,0.0,0.0,0.0,0.0,0.0,0.0,0.0,0.0,0.0,0.0,0.0,0.0,0.0,0.0,0.0,0.0,0.0,0.0,0.0,0.0,0.0,0.0,0.0,0.0,0.0,0.0,0.0,0.0,0.0,0.0,0.0,0.0,0.0,0.0,-0.5725,-0.5818,-0.5628,0.0,0.0,0.0,0.0,0.0,0.0,0.0,0.0,0.0,0.0,0.0,0.0,0.0,0.0,0.0,0.0,0.0,0.0,0.0,0.0,0.0,0.0,0.0,0.0,0.0,0.0,0.0,0.0,0.0,0.0,0.0,0.0,0.0,0.0,0.0,0.0,0.0,0.0,0.0,0.0,0.0,0.0,0.0,0.0,0.0,0.0,0.0,0.0,0.0,0.0,0.0,0.0,0.0,0.0,0.0,0.0,0.0,0.0,0.0,0.0,0.0,0.0,0.0,0.0,0.0,0.0,0.0,0.0,0.0,0.0,0.0,0.0,0.0,0.0,0.0,0.0,0.0,0.0,0.0,0.0,0.0,0.0,0.0,0.0,0.0,0.0,0.0,0.0,0.0,0.0,0.0,0.0,0.0,0.0,0.0,0.0,0.0,0.0,0.0,0.0,0.0,0.0,0.0,0.0,0.0,0.0,0.0,0.0,0.0,0.0,-0.5409,-0.5381,-0.6706,0.0,-0.6228,0.0,0.0,0.0,0.0,0.0,0.0,0.0,0.0,0.0,0.0,0.0,0.0,0.0,0.0,0.0,0.0,0.0,0.0,0.0,0.0,0.0,0.0,0.0,0.0,0.0,0.0,0.0,0.0,0.0,0.0,0.0,0.0,0.0,0.0,0.0,0.0,0.0,0.0,0.0,0.0,0.0,0.0,0.0,0.0,0.0,0.0,0.0,0.0,0.0,0.0,0.0,0.0,0.0,0.0,0.0,0.0,0.0,0.0,0.0,0.0,0.0,0.0,0.0,0.0,0.0,0.0,0.0,0.0,0.0,0.0,0.0,0.0,0.0,0.0,0.0,0.0,0.0,0.0,0.0,0.0,0.0,0.0,0.0,0.0,0.0,0.0,0.0,0.0,0.0,0.0,0.0,0.0,0.0,0.0,0.0,0.0,0.0,0.0,0.0,0.0,0.0,0.0,0.0,0.0,0.0,0.0,0.0,0.0,0.0,0.0,-0.713,-0.5448,-0.7693,-0.7965,0.0,0.0,0.0,0.0,0.0,0.0,0.0,0.0,0.0,0.0,0.0,0.0,0.0,0.0,0.0,0.0,0.0,0.0,0.0,0.0,0.0,0.0,0.0,0.0,0.0,0.0,0.0,0.0,0.0,0.0,0.0,0.0,0.0,0.0,0.0,0.0,0.0,0.0,0.0,0.0,0.0,0.0,0.0,0.0,0.0,0.0,0.0,0.0,0.0,0.0,0.0,0.0,0.0,0.0,0.0,0.0,0.0,0.0,0.0,0.0,0.0,0.0,0.0,0.0,0.0,0.0,0.0,0.0,0.0,0.0,0.0,0.0,0.0,0.0,0.0,0.0,0.0,0.0,0.0,0.0,0.0,0.0,0.0,0.0,0.0,0.0,0.0,0.0,0.0,0.0,0.0,0.0,0.0,0.0,0.0,0.0,0.0,0.0,0.0,0.0,0.0,0.0,0.0,0.0,0.0,0.0,0.0,0.0,0.0,0.0,-0.7496,-0.7711,-0.6102,-0.7914,-0.8006,-0.5782,0.0,0.0,0.0,0.0,0.0,0.0,0.0,0.0,0.0,0.0,0.0,0.0,0.0,0.0,0.0,0.0,0.0,0.0,0.0,0.0,0.0,0.0,0.0,0.0,0.0,0.0,0.0,0.0,0.0,0.0,0.0,0.0,0.0,0.0,0.0,0.0,0.0,0.0,0.0,0.0,0.0,0.0,0.0,0.0,0.0,0.0,0.0,0.0,0.0,0.0,0.0,0.0,0.0,0.0,0.0,0.0,0.0,0.0,0.0,0.0,0.0,0.0,0.0,0.0,0.0,0.0,0.0,0.0,0.0,0.0,0.0,0.0,0.0,0.0,0.0,0.0,0.0,0.0,0.0,0.0,0.0,0.0,0.0,0.0,0.0,0.0,0.0,0.0,0.0,0.0,0.0,0.0,0.0,0.0,0.0,0.0,0.0,0.0,0.0,0.0,0.0,0.0,0.0,0.0,0.0,0.0,0.0,0.0,-0.5368,-0.5594,-0.6078,-0.6975,-0.7133,-0.6812,0.0,0.0,0.0,0.0,0.0,0.0,0.0,0.0,0.0,0.0,0.0,0.0,0.0,0.0,0.0,0.0,0.0,0.0,0.0,0.0,0.0,0.0,0.0,0.0,0.0,0.0,0.0,0.0,0.0,0.0,0.0,0.0,0.0,0.0,0.0,0.0,0.0,0.0,0.0,0.0,0.0,0.0,0.0,0.0,0.0,0.0,0.0,0.0,0.0,0.0,0.0,0.0,0.0,0.0,0.0,0.0,0.0,0.0,0.0,0.0,0.0,0.0,0.0,0.0,0.0,0.0,0.0,0.0,0.0,0.0,0.0,0.0,0.0,0.0,0.0,0.0,0.0,0.0,0.0,0.0,0.0,0.0,0.0,0.0,0.0,0.0,0.0,0.0,0.0,0.0,0.0,0.0,0.0,0.0,0.0,0.0,0.0,0.0,0.0,0.0,0.0,0.0,0.0,0.0,0.0,0.0,0.0,0.0,0.0,-0.5445,-0.6874,-0.7112,-0.6063,-0.6047,-0.6077,0.0,0.0,0.0,0.0,0.0,0.0,0.0,0.0,0.0,0.0,0.0,0.0,0.0,0.0,0.0,0.0,0.0,0.0,0.0,0.0,0.0,0.0,0.0,0.0,0.0,0.0,0.0,0.0,0.0,0.0,0.0,0.0,0.0,0.0,0.0,0.0,0.0,0.0,0.0,0.0,0.0,0.0,0.0,0.0,0.0,0.0,0.0,0.0,0.0,0.0,0.0,0.0,0.0,0.0,0.0,0.0,0.0,0.0,0.0,0.0,0.0,0.0,0.0,0.0,0.0,0.0,0.0,0.0,0.0,0.0,0.0,0.0,0.0,0.0,0.0,0.0,0.0,0.0,0.0,0.0,0.0,0.0,0.0,0.0,0.0,0.0,0.0,0.0,0.0,0.0,0.0,0.0,0.0,0.0,0.0,0.0,0.0,0.0,0.0,0.0,0.0,0.0,0.0,0.0,0.0,0.0,0.0,0.0,0.0,-0.5434,0.0,-0.5817,-0.5458,-0.5652,-0.5861,0.0,0.0,0.0,0.0,0.0,0.0,0.0,0.0,0.0,0.0,0.0,0.0,0.0,0.0,0.0,0.0,0.0,0.0,0.0,0.0,0.0,0.0,0.0,0.0,0.0,0.0,0.0,0.0,0.0,0.0,0.0,0.0,0.0,0.0,0.0,0.0,0.0,0.0,0.0,0.0,0.0,0.0,0.0,0.0,0.0,0.0,0.0,0.0,0.0,0.0,0.0,0.0,0.0,0.0,0.0,0.0,0.0,0.0,0.0,0.0,0.0,0.0,0.0,0.0,0.0,0.0,0.0,0.0,0.0,0.0,0.0,0.0,0.0,0.0,0.0,0.0,0.0,0.0,0.0,0.0,0.0,0.0,0.0,0.0,0.0,0.0,0.0,0.0,0.0,0.0,0.0,0.0,0.0,0.0,0.0,0.0,0.0,0.0,0.0,0.0,0.0,0.0,0.0,0.0,0.0,0.0,0.0,0.0,-0.5099,-0.5311,-0.1975,-0.1891,-0.522,-0.6105,-0.6022,0.0,0.0,0.0,0.0,0.0,0.0,0.0,0.0,0.0,0.0,0.0,0.0,0.0,0.0,0.0,0.0,0.0,0.0,0.0,0.0,0.0,0.0,0.0,0.0,0.0,0.0,0.0,0.0,0.0,0.0,0.0,0.0,0.0,0.0,0.0,0.0,0.0,0.0,0.0,0.0,0.0,0.0,0.0,0.0,0.0,0.0,0.0,0.0,0.0,0.0,0.0,0.0,0.0,0.0,0.0,0.0,0.0,0.0,0.0,0.0,0.0,0.0,0.0,0.0,0.0,0.0,0.0,0.0,0.0,0.0,0.0,0.0,0.0,0.0,0.0,0.0,0.0,0.0,0.0,0.0,0.0,0.0,0.0,0.0,0.0,0.0,0.0,0.0,0.0,0.0,0.0,0.0,0.0,0.0,0.0,0.0,0.0,0.0,0.0,0.0,0.0,0.0,0.0,0.0,0.0,0.0,0.0,0.0,0.0,-0.7048,-0.245,-0.0521,-0.1721,-0.3955,-0.4049,0.0,0.0,0.0,0.0,0.0,0.0,0.0,0.0,0.0,0.0,0.0,0.0,0.0,0.0,0.0,0.0,0.0,0.0,0.0,0.0,0.0,0.0,0.0,0.0,0.0,0.0,0.0,0.0,0.0,0.0,0.0,0.0,0.0,0.0,0.0,0.0,0.0,0.0,0.0,0.0,0.0,0.0,0.0,0.0,0.0,0.0,0.0,0.0,0.0,0.0,0.0,0.0,0.0,0.0,0.0,0.0,0.0,0.0,0.0,0.0,0.0,0.0,0.0,0.0,0.0,0.0,0.0,0.0,0.0,0.0,0.0,0.0,0.0,0.0,0.0,0.0,0.0,0.0,0.0,0.0,0.0,0.0,0.0,0.0,0.0,0.0,0.0,0.0,0.0,0.0,0.0,0.0,0.0,0.0,0.0,0.0,0.0,0.0,0.0,0.0,0.0,0.0,0.0,0.0,0.0,0.0,0.0,0.0,0.0,-0.7844,-0.4471,-0.1803,-0.0,-0.1869,-0.2492,-0.175,0.0,0.0,0.0,0.0,0.0,0.0,0.0,0.0,0.0,0.0,0.0,0.0,0.0,0.0,0.0,0.0,0.0,0.0,0.0,0.0,0.0,0.0,0.0,0.0,0.0,0.0,0.0,0.0,0.0,0.0,0.0,0.0,0.0,0.0,0.0,0.0,0.0,0.0,0.0,0.0,0.0,0.0,0.0,0.0,0.0,0.0,0.0,0.0,0.0,0.0,0.0,0.0,0.0,0.0,0.0,0.0,0.0,0.0,0.0,0.0,0.0,0.0,0.0,0.0,0.0,0.0,0.0,0.0,0.0,0.0,0.0,0.0,0.0,0.0,0.0,0.0,0.0,0.0,0.0,0.0,0.0,0.0,0.0,0.0,0.0,0.0,0.0,0.0,0.0,0.0,0.0,0.0,0.0,0.0,0.0,0.0,0.0,0.0,0.0,0.0,0.0,0.0,0.0,0.0,0.0,0.0,0.0,0.0,-0.8007,-0.7441,-0.4794,0.0,0.0,-0.1333,0.0,0.0,0.0,0.0,0.0,0.0,0.0,0.0,0.0,0.0,0.0,0.0,0.0,0.0,0.0,0.0,0.0,0.0,0.0,0.0,0.0,0.0,0.0,0.0,0.0,0.0,0.0,0.0,0.0,0.0,0.0,0.0,0.0,0.0,0.0,0.0,0.0,0.0,0.0,0.0,0.0,0.0,0.0,0.0,0.0,0.0,0.0,0.0,0.0,0.0,0.0,0.0,0.0,0.0,0.0,0.0,0.0,0.0,0.0,0.0,0.0,0.0,0.0,0.0,0.0,0.0,0.0,0.0,0.0,0.0,0.0,0.0,0.0,0.0,0.0,0.0,0.0,0.0,0.0,0.0,0.0,0.0,0.0,0.0,0.0,0.0,0.0,0.0,0.0,0.0,0.0,0.0,0.0,0.0,0.0,0.0,0.0,0.0,0.0,0.0,0.0,0.0,0.0,0.0,0.0,0.0,0.0,0.0,0.0,-0.7929,-0.7874,-0.5263,0.0,0.0,-0.0336,0.0,0.0,0.0,0.0,0.0,0.0,0.0,0.0,0.0,0.0,0.0,0.0,0.0,0.0,0.0,0.0,0.0,0.0,0.0,0.0,0.0,0.0,0.0,0.0,0.0,0.0,0.0,0.0,0.0,0.0,0.0,0.0,0.0,0.0,0.0,0.0,0.0,0.0,0.0,0.0,0.0,0.0,0.0,0.0,0.0,0.0,0.0,0.0,0.0,0.0,0.0,0.0,0.0,0.0,0.0,0.0,0.0,0.0,0.0,0.0,0.0,0.0,0.0,0.0,0.0,0.0,0.0,0.0,0.0,0.0,0.0,0.0,0.0,0.0,0.0,0.0,0.0,0.0,0.0,0.0,0.0,0.0,0.0,0.0,0.0,0.0,0.0,0.0,0.0,0.0,0.0,0.0,0.0,0.0,0.0,0.0,0.0,0.0,0.0,0.0,0.0,0.0,0.0,0.0,0.0,0.0,0.0,0.0,-0.6128,-0.6118,-0.7334,-0.5401,0.0,0.0,-0.0365,0.0,0.0,0.0,0.0,0.0,0.0,0.0,0.0,0.0,0.0,0.0,0.0,0.0,0.0,0.0,0.0,0.0,0.0,0.0,0.0,0.0,0.0,0.0,0.0,0.0,0.0,0.0,0.0,0.0,0.0,0.0,0.0,0.0,0.0,0.0,0.0,0.0,0.0,0.0,0.0,0.0,0.0,0.0,0.0,0.0,0.0,0.0,0.0,0.0,0.0,0.0,0.0,0.0,0.0,0.0,0.0,0.0,0.0,0.0,0.0,0.0,0.0,0.0,0.0,0.0,0.0,0.0,0.0,0.0,0.0,0.0,0.0,0.0,0.0,0.0,0.0,0.0,0.0,0.0,0.0,0.0,0.0,0.0,0.0,0.0,0.0,0.0,0.0,0.0,0.0,0.0,0.0,0.0,0.0,0.0,0.0,0.0,0.0,0.0,0.0,0.0,0.0,0.0,0.0,0.0,0.0,0.0,0.0,-0.5244,-0.3907,-0.5992,-0.492,0.0,0.0,-0.0984,0.0,0.0,0.0,0.0,0.0,0.0,0.0,0.0,0.0,0.0,0.0,0.0,0.0,0.0,0.0,0.0,0.0,0.0,0.0,0.0,0.0,0.0,0.0,0.0,0.0,0.0,0.0,0.0,0.0,0.0,0.0,0.0,0.0,0.0,0.0,0.0,0.0,0.0,0.0,0.0,0.0,0.0,0.0,0.0,0.0,0.0,0.0,0.0,0.0,0.0,0.0,0.0,0.0,0.0,0.0,0.0,0.0,0.0,0.0,0.0,0.0,0.0,0.0,0.0,0.0,0.0,0.0,0.0,0.0,0.0,0.0,0.0,0.0,0.0,0.0,0.0,0.0,0.0,0.0,0.0,0.0,0.0,0.0,0.0,0.0,0.0,0.0,0.0,0.0,0.0,0.0,0.0,0.0,0.0,0.0,0.0,0.0,0.0,0.0,0.0,0.0,0.0,0.0,0.0,0.0,0.0,0.0,0.0,-0.6256,-0.5721,-0.3109,-0.1233,0.0,0.0,-0.1553,0.0,0.0,0.0,0.0,0.0,0.0,0.0,0.0,0.0,0.0,0.0,0.0,0.0,0.0,0.0,0.0,0.0,0.0,0.0,0.0,0.0,0.0,0.0,0.0,0.0,0.0,0.0,0.0,0.0,0.0,0.0,0.0,0.0,0.0,0.0,0.0,0.0,0.0,0.0,0.0,0.0,0.0,0.0,0.0,0.0,0.0,0.0,0.0,-0.645,0.0,0.0,0.0,0.0,0.0,0.0,0.0,0.0,0.0,0.0,0.0,0.0,0.0,0.0,0.0,0.0,0.0,0.0,0.0,0.0,0.0,0.0,0.0,0.0,0.0,0.0,0.0,0.0,0.0,0.0,0.0,0.0,0.0,0.0,0.0,0.0,0.0,0.0,0.0,0.0,0.0,0.0,0.0,0.0,0.0,0.0,0.0,0.0,0.0,0.0,0.0,0.0,0.0,0.0,0.0,0.0,0.0,0.0,0.0,-0.5683,-0.6898,-0.2409,0.0,0.0,0.0,-0.1296,0.0,0.0,0.0,0.0,0.0,0.0,0.0,0.0,0.0,0.0,0.0,0.0,0.0,0.0,0.0,0.0,0.0,0.0,0.0,0.0,0.0,0.0,0.0,0.0,0.0,0.0,0.0,0.0,0.0,0.0,0.0,0.0,0.0,0.0,0.0,0.0,0.0,0.0,0.0,0.0,0.0,0.0,0.0,0.0,0.0,0.0,0.0,0.0,0.0,0.0,0.0,0.0,0.0,0.0,0.0,0.0,0.0,0.0,0.0,0.0,0.0,0.0,0.0,0.0,0.0,0.0,0.0,0.0,0.0,0.0,0.0,0.0,0.0,0.0,0.0,0.0,0.0,0.0,0.0,0.0,0.0,0.0,0.0,0.0,0.0,0.0,0.0,0.0,0.0,0.0,0.0,0.0,0.0,0.0,0.0,0.0,0.0,0.0,0.0,0.0,0.0,0.0,0.0,0.0,0.0,0.0,0.0,-0.4377,-0.4378,-0.6476,-0.2308,0.0,0.0,0.0,-0.0828,-0.2608,0.0,0.0,0.0,0.0,0.0,0.0,0.0,0.0,0.0,0.0,0.0,0.0,0.0,0.0,0.0,0.0,0.0,0.0,0.0,0.0,0.0,0.0,0.0,0.0,0.0,0.0,0.0,0.0,0.0,0.0,0.0,0.0,0.0,0.0,0.0,0.0,0.0,0.0,-1.0863,-1.1396,0.0,0.0,0.0,0.0,0.0,0.0,0.0,0.0,-0.734,0.0,0.0,0.0,0.0,0.0,0.0,0.0,0.0,0.0,0.0,0.0,0.0,0.0,0.0,0.0,0.0,0.0,0.0,0.0,0.0,0.0,0.0,0.0,0.0,0.0,0.0,0.0,0.0,0.0,0.0,0.0,0.0,0.0,0.0,0.0,0.0,0.0,0.0,0.0,0.0,0.0,0.0,0.0,0.0,0.0,0.0,0.0,0.0,0.0,0.0,0.0,0.0,0.0,0.0,0.0,0.0,-0.7709,-0.495,-0.2775,-0.1293,-0.0486,0.0,0.0,0.0,-0.0838,-0.2618,0.0,0.0,0.0,0.0,0.0,0.0,0.0,0.0,0.0,0.0,0.0,0.0,0.0,0.0,0.0,0.0,0.0,0.0,0.0,0.0,0.0,0.0,0.0,0.0,0.0,0.0,0.0,0.0,0.0,0.0,0.0,0.0,0.0,0.0,0.0,0.0,0.0,0.0,0.0,-1.1422,-1.0709,0.0,0.0,0.0,0.0,0.0,0.0,0.0,0.0,-0.7075,0.0,0.0,0.0,0.0,0.0,0.0,0.0,0.0,0.0,0.0,0.0,0.0,0.0,0.0,0.0,0.0,0.0,0.0,0.0,0.0,0.0,0.0,0.0,0.0,0.0,0.0,0.0,0.0,0.0,0.0,0.0,0.0,0.0,0.0,0.0,0.0,0.0,0.0,0.0,0.0,0.0,0.0,0.0,0.0,0.0,0.0,0.0,0.0,0.0,0.0,0.0,0.0,0.0,0.0,0.0,-0.6551,-0.4774,-0.2629,0.0,0.0,0.0,0.0,-0.1523,-0.1992,0.0,0.0,0.0,0.0,0.0,0.0,0.0,0.0,0.0,0.0,0.0,0.0,0.0,0.0,0.0,0.0,0.0,0.0,0.0,0.0,0.0,0.0,0.0,0.0,0.0,0.0,0.0,0.0,0.0,0.0,0.0,0.0,0.0,0.0,0.0,0.0,0.0,0.0,0.0,0.0,-1.1724,-1.1035,-1.0357,0.0,0.0,0.0,0.0,0.0,0.0,-0.7595,-0.7764,0.0,0.0,0.0,0.0,0.0,0.0,0.0,0.0,0.0,0.0,0.0,0.0,0.0,0.0,0.0,0.0,0.0,0.0,0.0,0.0,0.0,0.0,0.0,0.0,0.0,0.0,0.0,0.0,0.0,0.0,0.0,0.0,0.0,0.0,0.0,0.0,0.0,0.0,0.0,0.0,0.0,0.0,0.0,0.0,0.0,0.0,0.0,0.0,0.0,0.0,0.0,0.0,0.0,0.0,0.0,-0.5354,-0.4289,-0.2545,0.0,0.0,0.0,0.0,-0.229,-0.2778,0.0,0.0,0.0,0.0,0.0,0.0,0.0,0.0,0.0,0.0,0.0,0.0,0.0,0.0,0.0,0.0,0.0,0.0,0.0,0.0,0.0,0.0,0.0,0.0,0.0,0.0,0.0,0.0,0.0,0.0,0.0,0.0,0.0,0.0,0.0,0.0,0.0,0.0,0.0,0.0,0.0,-1.1222,-0.9696,-0.9183,0.0,0.0,0.0,0.0,-0.6886,-0.7975,0.0,0.0,0.0,0.0,0.0,0.0,0.0,0.0,0.0,0.0,0.0,0.0,0.0,0.0,0.0,0.0,0.0,0.0,0.0,0.0,0.0,0.0,0.0,0.0,0.0,0.0,0.0,0.0,0.0,0.0,0.0,0.0,0.0,0.0,0.0,0.0,0.0,0.0,0.0,0.0,0.0,0.0,0.0,0.0,0.0,0.0,0.0,0.0,0.0,0.0,0.0,0.0,0.0,0.0,0.0,0.0,-0.5302,-0.3711,-0.1967,0.0,0.0,0.0,0.0,-0.0324,-0.1598,0.0,0.0,0.0,0.0,0.0,0.0,0.0,0.0,0.0,0.0,0.0,0.0,0.0,0.0,0.0,0.0,0.0,0.0,0.0,0.0,0.0,0.0,0.0,0.0,0.0,0.0,0.0,0.0,0.0,0.0,0.0,0.0,0.0,0.0,0.0,0.0,0.0,0.0,0.0,0.0,0.0,-1.0156,-0.9588,-0.8653,-0.7952,0.0,0.0,-0.6942,-0.759,-0.795,0.0,0.0,0.0,0.0,0.0,0.0,0.0,0.0,0.0,0.0,0.0,0.0,0.0,0.0,0.0,0.0,0.0,0.0,0.0,0.0,0.0,0.0,0.0,0.0,0.0,0.0,0.0,0.0,0.0,0.0,0.0,0.0,0.0,0.0,0.0,0.0,0.0,0.0,0.0,0.0,0.0,0.0,0.0,0.0,0.0,0.0,0.0,0.0,0.0,0.0,0.0,0.0,0.0,0.0,0.0,-0.5925,-0.6362,-0.595,-0.3899,0.0,0.0,0.0,0.0,0.0,-0.0646,0.0,0.0,0.0,0.0,0.0,0.0,0.0,0.0,0.0,0.0,0.0,0.0,0.0,0.0,0.0,0.0,0.0,0.0,0.0,0.0,0.0,0.0,0.0,0.0,0.0,0.0,0.0,0.0,0.0,0.0,0.0,0.0,0.0,0.0,0.0,0.0,0.0,0.0,0.0,0.0,0.0,0.0,-0.8962,-0.8549,0.0,0.0,0.0,-0.7753,-0.816,0.0,0.0,0.0,0.0,0.0,0.0,0.0,0.0,0.0,0.0,0.0,0.0,0.0,0.0,0.0,0.0,0.0,0.0,0.0,0.0,0.0,0.0,0.0,0.0,0.0,0.0,0.0,0.0,0.0,0.0,0.0,0.0,0.0,0.0,0.0,0.0,0.0,0.0,0.0,0.0,0.0,0.0,0.0,0.0,0.0,0.0,0.0,0.0,0.0,0.0,0.0,0.0,0.0,0.0,0.0,0.0,0.0,-0.5352,-0.6905,-0.529,0.0,0.0,0.0,0.0,0.0,0.0,0.0,0.0,0.0,0.0,0.0,0.0,0.0,0.0,0.0,0.0,0.0,0.0,0.0,0.0,0.0,0.0,0.0,0.0,0.0,0.0,0.0,0.0,0.0,0.0,0.0,0.0,-0.4882,0.0,0.0,0.0,0.0,0.0,0.0,0.0,0.0,0.0,0.0,0.0,0.0,0.0,0.0,-0.887,-0.8295,-0.8431,-0.856,0.0,0.0,-0.8404,-0.8465,-0.8529,-0.8802,0.0,0.0,0.0,0.0,0.0,0.0,0.0,0.0,0.0,0.0,0.0,0.0,0.0,0.0,0.0,0.0,0.0,0.0,0.0,0.0,0.0,0.0,0.0,0.0,0.0,0.0,0.0,0.0,0.0,0.0,0.0,0.0,0.0,0.0,0.0,0.0,0.0,0.0,0.0,0.0,0.0,0.0,0.0,0.0,0.0,0.0,0.0,0.0,0.0,0.0,0.0,0.0,0.0,0.0,0.0,-0.0755,-0.4882,-0.4839,0.0,0.0,0.0,0.0,0.0,-0.1553,0.0,0.0,0.0,0.0,0.0,0.0,0.0,0.0,0.0,0.0,0.0,0.0,0.0,0.0,0.0,0.0,0.0,0.0,0.0,0.0,0.0,0.0,0.0,0.0,0.0,0.0,0.0,0.0,0.0,0.0,0.0,0.0,0.0,0.0,0.0,0.0,0.0,0.0,0.0,0.0,0.0,-0.8045,-0.8052,-0.854,-0.8906,0.0,0.0,-0.8415,-0.8611,-0.9161,-0.937,-0.8352,0.0,0.0,0.0,0.0,0.0,0.0,0.0,0.0,0.0,0.0,0.0,0.0,0.0,0.0,0.0,0.0,0.0,0.0,0.0,0.0,0.0,0.0,0.0,0.0,0.0,0.0,0.0,0.0,0.0,0.0,0.0,0.0,0.0,0.0,0.0,0.0,0.0,0.0,0.0,0.0,0.0,0.0,0.0,0.0,0.0,0.0,0.0,0.0,0.0,0.0,0.0,0.0,0.0,-0.4777,-0.3353,-0.2893,-0.18,0.0,0.0,0.0,0.0,-0.1828,-0.3387,0.0,0.0,0.0,0.0,0.0,0.0,0.0,0.0,0.0,0.0,0.0,0.0,0.0,0.0,0.0,0.0,0.0,0.0,0.0,0.0,0.0,0.0,0.0,0.0,0.0,0.0,0.0,0.0,-0.5325,-0.5345,-0.5521,0.0,0.0,0.0,0.0,0.0,0.0,0.0,0.0,0.0,0.0,-0.8592,-0.854,-0.8866,0.0,0.0,-0.8903,-0.885,-0.8789,-0.8961,-0.868,-0.7614,-0.7124,0.0,0.0,0.0,0.0,0.0,0.0,0.0,0.0,0.0,0.0,0.0,0.0,0.0,0.0,0.0,0.0,0.0,0.0,0.0,0.0,0.0,0.0,0.0,0.0,0.0,0.0,0.0,0.0,0.0,0.0,0.0,0.0,0.0,0.0,0.0,0.0,0.0,0.0,0.0,0.0,0.0,0.0,0.0,0.0,0.0,0.0,0.0,0.0,0.0,0.0,0.0,0.0,-0.5127,-0.4578,-0.1572,0.0,0.0,0.0,-0.0721,-0.2057,-0.4189,-0.4858,0.0,0.0,0.0,0.0,0.0,0.0,0.0,0.0,0.0,0.0,0.0,0.0,0.0,0.0,0.0,0.0,0.0,0.0,0.0,0.0,0.0,0.0,0.0,0.0,0.0,0.0,0.0,0.0,-0.5505,-0.5596,-0.584,0.0,0.0,0.0,0.0,0.0,0.0,0.0,0.0,0.0,0.0,-0.8947,-0.8859,-0.9096,-0.9239,-0.9279,-0.9211,-0.9137,-0.9096,-0.8791,-0.8287,-0.7309,0.0,0.0,0.0,0.0,0.0,0.0,0.0,0.0,0.0,0.0,0.0,0.0,0.0,0.0,0.0,0.0,0.0,0.0,0.0,0.0,0.0,0.0,0.0,0.0,0.0,0.0,0.0,0.0,0.0,0.0,0.0,0.0,0.0,0.0,0.0,0.0,0.0,0.0,0.0,0.0,0.0,0.0,0.0,0.0,0.0,0.0,0.0,0.0,0.0,0.0,0.0,0.0,0.0,-0.4525,-0.2763,-0.0907,0.0,0.0,0.0,-0.2125,-0.6507,-0.7019,-0.5679,-0.2935,0.0,0.0,0.0,0.0,0.0,0.0,0.0,0.0,0.0,0.0,0.0,0.0,0.0,0.0,0.0,0.0,0.0,0.0,0.0,0.0,0.0,0.0,0.0,0.0,0.0,0.0,-0.5739,-0.5786,-0.5854,0.0,0.0,0.0,0.0,0.0,0.0,0.0,0.0,0.0,0.0,-0.8293,-0.8855,-0.8872,-0.9184,-0.9408,-0.9557,-0.9334,-0.9216,-0.9307,-0.9138,-0.8508,0.0,0.0,0.0,0.0,0.0,0.0,0.0,0.0,0.0,0.0,0.0,0.0,0.0,0.0,0.0,0.0,0.0,0.0,0.0,0.0,0.0,0.0,0.0,0.0,0.0,0.0,0.0,0.0,0.0,0.0,0.0,0.0,0.0,0.0,0.0,0.0,0.0,0.0,0.0,0.0,-0.5532,-0.4247,0.0,0.0,0.0,0.0,0.0,0.0,0.0,0.0,0.0,0.0,0.0,0.0,-0.4107,-0.1036,-0.0275,0.0,0.0,0.0,-0.0707,-0.2324,-0.5274,-0.611,-0.457,0.0,0.0,0.0,0.0,0.0,0.0,0.0,0.0,0.0,0.0,0.0,0.0,0.0,0.0,0.0,0.0,0.0,0.0,0.0,0.0,0.0,0.0,0.0,0.0,0.0,-0.581,0.0,0.0,0.0,0.0,0.0,0.0,0.0,0.0,0.0,0.0,0.0,-0.6675,-0.7771,-0.8329,-0.8699,-0.873,-0.896,-0.9103,0.0,0.0,0.0,0.0,0.0,0.0,0.0,0.0,0.0,0.0,0.0,0.0,0.0,0.0,-0.8696,-0.7896,-0.7574,-0.7336,-0.7099,0.0,0.0,0.0,0.0,0.0,0.0,0.0,0.0,0.0,0.0,0.0,0.0,0.0,0.0,0.0,0.0,0.0,0.0,0.0,0.0,0.0,0.0,0.0,0.0,0.0,-0.6054,-0.5606,-0.4632,-0.2695,-0.3394,0.0,-0.6084,-0.5786,0.0,0.0,0.0,0.0,0.0,0.0,0.0,0.0,-0.4632,-0.225,-0.0734,0.0,0.0,0.0,0.0,0.0,-0.3705,-0.5686,-0.5777,-0.5669,-0.5521,0.0,0.0,0.0,0.0,0.0,0.0,0.0,0.0,0.0,0.0,0.0,0.0,0.0,0.0,0.0,0.0,0.0,0.0,0.0,0.0,0.0,0.0,0.0,-0.6054,0.0,0.0,0.0,0.0,0.0,0.0,0.0,0.0,0.0,-0.6325,-0.661,-0.719,-0.8181,-0.8364,-0.8392,-0.873,0.0,0.0,0.0,0.0,0.0,0.0,0.0,-0.8381,-0.8001,-0.8209,-0.8425,-0.8425,-0.8784,-0.9028,-0.8886,0.0,0.0,-0.8285,-0.7931,-0.7637,-0.7203,-0.7228,-0.7511,-0.77,-0.8292,-0.8672,0.0,0.0,0.0,0.0,0.0,0.0,0.0,0.0,0.0,0.0,0.0,0.0,0.0,0.0,0.0,0.0,0.0,0.0,0.0,0.0,-0.684,-0.5567,-0.2869,-0.0978,-0.2136,-0.5987,-0.6725,-0.6523,-0.551,-0.5992,0.0,0.0,0.0,0.0,0.0,0.0,-0.5959,-0.6022,-0.2089,0.0,0.0,0.0,0.0,0.0,-0.2336,-0.4601,-0.6445,-0.6186,-0.5827,-0.5399,-0.563,0.0,0.0,0.0,0.0,0.0,0.0,0.0,0.0,0.0,0.0,0.0,0.0,0.0,0.0,0.0,0.0,0.0,0.0,0.0,0.0,-0.6026,0.0,0.0,0.0,0.0,0.0,0.0,0.0,0.0,0.0,0.0,-0.6503,-0.7307,-0.819,-0.8831,0.0,0.0,0.0,0.0,-0.8988,-0.913,-0.9273,-0.9361,-0.9238,-0.9354,-0.9205,-0.8567,0.0,0.0,-0.8798,-0.8872,-0.894,-0.8784,-0.8906,-0.885,-0.8719,-0.8334,-0.789,-0.7346,-0.7648,-0.818,-0.8744,-0.9078,-0.9399,0.0,0.0,0.0,0.0,0.0,0.0,0.0,0.0,0.0,0.0,0.0,0.0,0.0,0.0,0.0,0.0,0.0,0.0,-0.6331,-0.6607,-0.6536,-0.6224,-0.5676,-0.1824,-0.0676,-0.1895,-0.5435,-0.6972,-0.6629,-0.6002,-0.5663,-0.5676,0.0,0.0,0.0,0.0,-0.5764,-0.5968,-0.213,0.0,0.0,0.0,0.0,0.0,-0.2302,-0.4519,-0.6613,-0.6207,-0.5922,-0.5684,-0.5555,0.0,0.0,0.0,0.0,0.0,0.0,0.0,0.0,0.0,0.0,0.0,0.0,0.0,0.0,0.0,0.0,0.0,0.0,0.0,-0.1885,-0.423,-0.6029,0.0,0.0,0.0,0.0,0.0,0.0,0.0,0.0,0.0,-0.803,-0.7699,-0.7707,0.0,0.0,-0.8984,-0.8893,-0.894,-0.8988,-0.913,0.0,0.0,0.0,-0.913,-0.8943,-0.8798,-0.9279,-0.96,-0.9503,-0.9537,-0.9551,-0.9503,-0.9456,-0.9415,-0.9272,-0.8765,-0.8441,-0.8375,-0.8521,-0.8629,-0.8913,-0.9349,-0.9666,0.0,0.0,0.0,0.0,0.0,0.0,0.0,0.0,0.0,0.0,0.0,0.0,0.0,0.0,0.0,0.0,0.0,0.0,-0.6739,-0.7075,-0.6796,-0.6339,-0.5751,-0.3993,-0.1999,-0.0196,-0.2909,-0.5289,-0.7074,-0.6428,-0.5073,-0.3406,0.0,0.0,-0.3895,-0.5089,-0.51,-0.3813,-0.1292,0.0,0.0,0.0,0.0,0.0,-0.2185,-0.445,-0.6627,-0.624,-0.5956,-0.5806,-0.5583,-0.5535,0.0,0.0,0.0,0.0,0.0,0.0,0.0,0.0,0.0,0.0,0.0,-0.546,-0.5406,0.0,0.0,0.0,-0.5563,-0.423,-0.1513,-0.335,0.0,0.0,0.0,0.0,0.0,0.0,0.0,-0.6008,-0.6673,-0.7437,-0.8364,-0.8058,-0.8044,-0.8852,-0.9275,-0.9275,-0.9085,0.0,-0.9008,-0.9211,-0.9293,-0.9354,-0.9408,-0.9347,-0.9198,-0.9285,-0.9564,-0.9834,-0.9802,-0.9822,-0.9822,-0.9808,-0.9754,-0.9693,-0.9693,-0.9272,-0.897,-0.9044,-0.9238,-0.9257,-0.9225,-0.9606,-0.9849,0.0,0.0,0.0,0.0,0.0,0.0,0.0,0.0,0.0,0.0,0.0,0.0,0.0,0.0,0.0,0.0,0.0,-0.6233,-0.7313,-0.7617,-0.7259,-0.6128,-0.4418,-0.6369,-0.481,0.0,0.0,-0.2269,-0.6345,-0.691,-0.4715,-0.0259,-0.425,-0.4187,-0.0471,-0.3858,-0.3914,-0.0087,0.0,0.0,0.0,0.0,-0.0192,-0.0554,-0.2159,-0.4185,-0.6562,-0.619,-0.5949,-0.5806,-0.5727,-0.5576,-0.5439,0.0,0.0,0.0,0.0,0.0,0.0,0.0,0.0,0.0,0.0,0.0,0.0,0.0,0.0,0.0,-0.55,0.0,-0.299,-0.3131,0.0,0.0,0.0,-0.6335,-0.6491,-0.6512,-0.6463,-0.6331,0.0,0.0,0.0,0.0,-0.8701,-0.9127,-0.9262,-0.9363,-0.9243,-0.9089,-0.9096,-0.9388,-0.953,-0.9546,-0.9754,-0.9774,-0.9768,-0.9774,-0.9822,-0.9808,-0.9802,-0.9795,-0.9802,-0.9795,-0.9802,-0.9802,-0.9815,-0.9774,-0.9673,-0.9467,-0.9537,-0.9655,-0.9792,-0.978,-0.9786,0.0,0.0,0.0,0.0,0.0,0.0,0.0,0.0,0.0,0.0,0.0,0.0,0.0,0.0,0.0,-0.1493,-0.4142,-0.6618,-0.7785,-0.7691,-0.772,-0.7521,-0.6882,-0.3534,-0.1209,0.0,0.0,-0.0583,-0.1836,-0.5325,-0.4714,-0.0443,-0.4239,-0.4219,-0.0165,-0.0986,-0.1012,0.0,0.0,0.0,0.0,0.0,-0.1553,-0.4709,-0.351,-0.3965,-0.6309,-0.6029,-0.584,-0.58,-0.5624,-0.5466,-0.5432,-0.5542,0.0,0.0,0.0,0.0,0.0,0.0,0.0,0.0,0.0,-0.5596,-0.561,0.0,-0.3998,0.0,-0.2988,-0.1103,-0.0845,-0.3658,0.0,0.0,-0.6496,-0.6525,-0.679,-0.6824,-0.68,-0.6923,-0.731,-0.7657,-0.7988,-0.8327,-0.8594,-0.8893,-0.9203,-0.9462,-0.9449,-0.9476,-0.951,-0.9666,-0.9734,-0.9781,-0.9815,-0.9822,-0.9822,-0.9822,-0.9822,-0.9788,-0.968,-0.9659,-0.9659,-0.9659,-0.9659,-0.97,-0.9795,-0.9741,-0.9836,-0.9641,-0.9412,-0.9219,-0.972,-0.9747,-0.9781,0.0,0.0,0.0,0.0,0.0,0.0,0.0,0.0,0.0,0.0,0.0,0.0,0.0,0.0,0.0,-0.148,-0.4103,-0.6804,-0.7931,-0.7648,-0.5513,-0.5651,-0.7717,-0.2523,0.0,0.0,0.0,0.0,0.0,-0.2692,-0.2544,-0.009,-0.2376,-0.2348,0.0,0.0,0.0,0.0,0.0,0.0,0.0,0.0,-0.1163,-0.3364,-0.4018,-0.4768,-0.5848,-0.6009,-0.5981,-0.5895,-0.5596,-0.5484,-0.5631,-0.5507,-0.5411,0.0,0.0,0.0,0.0,0.0,0.0,0.0,0.0,0.0,0.0,0.0,-0.3676,0.0,-0.1121,0.0,0.0,-0.2143,-0.433,-0.6437,-0.6743,-0.686,-0.7,-0.7143,-0.7255,-0.7266,-0.7555,-0.7865,-0.7988,-0.8262,-0.8594,-0.8899,-0.9062,-0.9239,-0.9456,-0.951,-0.9564,-0.97,-0.9727,-0.9754,-0.9808,-0.9822,-0.9795,-0.962,-0.9607,-0.968,-0.9537,-0.9503,-0.951,-0.951,-0.951,-0.9551,-0.9686,-0.9724,-0.9614,-0.951,-0.9189,-0.9129,-0.9625,-0.9854,-0.9822,0.0,0.0,0.0,0.0,0.0,0.0,0.0,0.0,0.0,0.0,0.0,0.0,0.0,0.0,0.0,-0.1257,-0.3632,-0.6617,-0.7984,-0.7672,-0.2513,-0.2517,-0.6687,-0.2221,0.0,0.0,0.0,0.0,0.0,0.0,0.0,0.0,0.0,0.0,0.0,0.0,0.0,0.0,0.0,0.0,0.0,0.0,0.0,0.0,-0.3557,-0.5518,-0.5509,-0.5954,-0.6165,-0.603,-0.5706,-0.5635,-0.6029,-0.5627,-0.5427,0.0,-0.5892,0.0,0.0,0.0,0.0,0.0,0.0,0.0,0.0,-0.5333,-0.3377,0.0,0.0,0.0,0.0,0.0,-0.1683,-0.5762,-0.6748,-0.7155,-0.7217,-0.7468,-0.7678,-0.7627,-0.7858,-0.8046,-0.8007,-0.8262,-0.8594,-0.8886,-0.8943,-0.9084,-0.932,-0.9374,-0.9449,-0.9585,-0.9731,-0.9779,-0.9847,-0.9768,-0.9734,-0.9493,-0.9459,-0.9406,-0.9374,-0.9354,-0.9347,-0.9354,-0.9354,-0.9401,-0.9551,-0.9573,-0.9518,-0.949,-0.9189,-0.9142,-0.9573,-0.9744,-0.9788,0.0,0.0,0.0,0.0,0.0,0.0,0.0,0.0,0.0,0.0,0.0,0.0,0.0,0.0,0.0,-0.03,-0.1,-0.5832,-0.7999,-0.7811,-0.2515,-0.0504,-0.1414,-0.0505,0.0,0.0,0.0,0.0,0.0,0.0,0.0,0.0,0.0,0.0,0.0,0.0,0.0,0.0,0.0,0.0,0.0,0.0,0.0,0.0,-0.0799,0.0,-0.5951,-0.5922,-0.5901,-0.6017,-0.6061,0.0,0.0,0.0,0.0,0.0,0.0,0.0,0.0,0.0,0.0,0.0,-0.4528,-0.439,-0.5989,-0.3099,-0.0771,0.0,0.0,0.0,0.0,0.0,-0.1213,-0.4142,-0.6042,-0.7224,-0.7651,-0.7733,-0.7828,-0.7878,-0.7925,-0.7945,-0.8001,-0.8262,-0.8601,-0.8893,-0.8943,-0.9037,-0.9191,-0.93,-0.9435,-0.9578,-0.9585,-0.9564,-0.9717,-0.9822,-0.9731,-0.9469,-0.9305,-0.9245,-0.9232,-0.9198,-0.9198,-0.9198,-0.9198,-0.9245,-0.9388,-0.9422,-0.9446,-0.9353,-0.9097,-0.9036,-0.9634,-0.9849,-0.9806,0.0,0.0,0.0,0.0,0.0,0.0,0.0,0.0,0.0,0.0,0.0,0.0,0.0,0.0,0.0,0.0,0.0,-0.2823,-0.5464,-0.7717,-0.2421,0.0,0.0,0.0,0.0,0.0,0.0,0.0,0.0,0.0,0.0,0.0,0.0,0.0,0.0,0.0,0.0,0.0,0.0,0.0,0.0,0.0,0.0,0.0,0.0,0.0,0.0,0.0,0.0,0.0,0.0,0.0,0.0,0.0,0.0,-0.5813,-0.5872,-0.5987,-0.6228,-0.6297,-0.6234,-0.6159,-0.4164,-0.3015,-0.3224,-0.1256,0.0,0.0,0.0,0.0,0.0,0.0,-0.1082,-0.3677,-0.6117,-0.7597,-0.7794,-0.7882,-0.7957,-0.8018,-0.8038,-0.8153,-0.8438,-0.8479,-0.8608,-0.8886,-0.8883,-0.8957,-0.9144,-0.9211,-0.93,-0.9252,-0.9381,-0.9504,-0.9757,-0.9752,-0.9641,-0.9225,-0.9096,-0.9043,-0.9083,-0.9049,-0.9049,-0.9049,-0.9049,-0.9096,-0.9218,-0.9264,-0.9181,-0.9356,-0.9096,-0.9004,-0.934,-0.9621,-0.9779,0.0,0.0,0.0,0.0,0.0,0.0,0.0,0.0,0.0,0.0,0.0,0.0,0.0,0.0,0.0,0.0,0.0,0.0,-0.2423,-0.6279,-0.2019,0.0,0.0,0.0,0.0,0.0,0.0,0.0,0.0,0.0,0.0,0.0,0.0,0.0,0.0,0.0,0.0,0.0,0.0,0.0,0.0,0.0,0.0,0.0,0.0,-0.2014,-0.6152,-0.6363,-0.6414,-0.6342,-0.6566,-0.6641,-0.6687,-0.6512,-0.6324,-0.6332,-0.6388,-0.6388,-0.6388,-0.6423,-0.6342,-0.6277,-0.4451,-0.2373,0.0,0.0,0.0,0.0,0.0,0.0,0.0,0.0,-0.1034,-0.3718,-0.6435,-0.8,-0.7868,-0.7963,-0.8031,-0.8038,-0.8038,-0.8254,-0.8758,-0.8696,-0.8594,-0.8859,-0.8947,-0.8974,-0.9089,-0.9137,-0.9157,-0.9017,-0.9051,-0.9319,-0.9523,-0.9573,-0.9435,-0.9178,-0.9003,-0.8882,-0.891,-0.894,-0.894,-0.8947,-0.894,-0.8994,-0.9076,-0.9028,-0.8981,-0.9321,-0.914,-0.887,-0.8897,-0.9347,-0.9689,0.0,0.0,0.0,0.0,0.0,0.0,0.0,0.0,0.0,0.0,0.0,0.0,0.0,0.0,0.0,0.0,0.0,0.0,-0.0404,0.0,-0.0303,0.0,0.0,0.0,0.0,0.0,0.0,0.0,0.0,0.0,0.0,0.0,0.0,0.0,0.0,0.0,0.0,0.0,0.0,0.0,0.0,0.0,0.0,0.0,0.0,-0.2078,-0.644,-0.6654,-0.6641,-0.6641,-0.6675,-0.6688,-0.6668,-0.6668,-0.6565,-0.6355,-0.6777,-0.6859,-0.6688,-0.6709,-0.6572,-0.6344,-0.5954,-0.4193,0.0,0.0,0.0,0.0,0.0,0.0,0.0,0.0,-0.1069,-0.3704,-0.6361,-0.7945,-0.8004,-0.8024,-0.8038,-0.8038,-0.8038,-0.8254,-0.8744,-0.8696,-0.8601,-0.8859,-0.894,-0.8947,-0.8988,-0.9076,-0.9089,-0.8903,-0.8957,-0.8984,-0.9083,-0.9003,-0.9266,-0.9594,-0.9216,-0.8917,-0.8856,-0.894,-0.894,-0.894,-0.894,-0.8947,-0.8974,-0.896,-0.8954,-0.8988,-0.8954,-0.887,-0.8878,-0.9084,-0.932,0.0,0.0,0.0,0.0,0.0,0.0,0.0,0.0,0.0,0.0,0.0,0.0,0.0,0.0,0.0,0.0,0.0,0.0,0.0,0.0,0.0,0.0,0.0,0.0,0.0,0.0,0.0,0.0,0.0,0.0,0.0,0.0,0.0,0.0,0.0,0.0,0.0,0.0,0.0,0.0,0.0,0.0,0.0,0.0,0.0,-0.2155,-0.6708,-0.6937,-0.6867,-0.6702,-0.6851,-0.682,-0.6746,-0.6806,-0.682,-0.6746,-0.6916,-0.704,-0.6957,-0.6798,-0.6074,-0.4695,-0.5667,-0.451,0.0,0.0,0.0,0.0,0.0,0.0,0.0,0.0,-0.1083,-0.3768,-0.642,-0.7972,-0.7945,-0.8038,-0.8038,-0.8038,-0.8038,-0.8153,-0.8661,-0.8591,-0.8707,-0.8872,-0.894,-0.894,-0.894,-0.8988,-0.9015,-0.8954,-0.8883,-0.889,-0.896,-0.8878,-0.9144,-0.9661,-0.9286,-0.8963,-0.8856,-0.894,-0.894,-0.894,-0.894,-0.894,-0.894,-0.894,-0.894,-0.894,-0.894,-0.8863,-0.891,-0.9089,-0.9205,0.0,0.0,0.0,0.0,0.0,0.0,0.0,0.0,0.0,0.0,0.0,0.0,0.0,0.0,0.0,0.0,0.0,0.0,0.0,0.0,0.0,0.0,0.0,0.0,0.0,0.0,0.0,0.0,0.0,0.0,0.0,0.0,0.0,0.0,0.0,0.0,0.0,0.0,0.0,0.0,0.0,0.0,0.0,0.0,0.0,-0.2247,-0.6858,-0.7253,-0.7076,-0.6912,-0.7122,-0.7101,-0.6913,-0.7094,-0.7197,-0.7088,-0.7232,-0.7254,-0.7168,-0.6892,-0.5723,-0.3442,-0.5132,-0.4491,0.0,0.0,0.0,0.0,0.0,0.0,0.0,0.0,-0.1091,-0.371,-0.6348,-0.7979,-0.7945,-0.8038,-0.7959,-0.7979,-0.7992,-0.8208,-0.8445,-0.8533,-0.8755,-0.8872,-0.894,-0.894,-0.894,-0.894,-0.894,-0.894,-0.894,-0.894,-0.8947,-0.8871,-0.9123,-0.9557,-0.9209,-0.899,-0.8897,-0.894,-0.894,-0.894,-0.894,-0.894,-0.894,-0.894,-0.894,-0.894,-0.894,-0.8954,-0.9008,-0.9123,-0.9184,0.0,0.0,0.0,0.0,0.0,0.0,0.0,0.0,0.0,0.0,0.0,0.0,0.0,0.0,0.0,0.0,0.0,0.0,0.0,0.0,0.0,0.0,0.0,0.0,0.0,0.0,0.0,0.0,0.0,0.0,0.0,0.0,0.0,0.0,0.0,0.0,0.0,0.0,0.0,0.0,0.0,0.0,0.0,0.0,0.0,-0.2355,-0.7282,-0.7543,-0.7516,-0.7516,-0.7529,-0.755,-0.7529,-0.7449,-0.7263,-0.7143,-0.7416,-0.7616,-0.7502,-0.723,-0.6001,-0.4036,-0.5115,-0.4374,0.0,0.0,0.0,0.0,0.0,0.0,0.0,0.0,0.0,-0.3714,-0.6348,-0.7979,-0.7945,-0.8038,-0.7992,-0.8024,-0.8106,-0.8357,-0.8481,-0.8676,-0.8757,-0.8906,-0.894,-0.894,-0.894,-0.8954,-0.896,-0.8954,-0.8947,-0.8947,-0.8863,-0.8944,-0.895,-0.9015,-0.8944,-0.8957,-0.8923,-0.8947,-0.894,-0.894,-0.8954,-0.896,-0.894,-0.894,-0.8947,-0.894,-0.8954,-0.8981,-0.911,-0.9239,-0.9286,0.0,0.0,0.0,0.0,0.0,0.0,0.0,0.0,0.0,0.0,0.0,0.0,0.0,0.0,0.0,0.0,0.0,0.0,0.0,0.0,0.0,0.0,0.0,0.0,0.0,0.0,0.0,0.0,0.0,0.0,0.0,0.0,0.0,0.0,0.0,0.0,0.0,0.0,0.0,0.0,0.0,0.0,0.0,0.0,-0.3031,-0.562,-0.7574,-0.7767,-0.7691,-0.7604,-0.7678,-0.7685,-0.7604,-0.7678,-0.7685,-0.7611,-0.7792,-0.7792,-0.7597,-0.7282,-0.6045,-0.3796,-0.293,-0.1805,0.0,0.0,0.0,0.0,0.0,0.0,0.0,0.0,-0.1109,-0.3717,-0.6348,-0.7979,-0.8045,-0.8038,-0.7965,-0.8019,-0.8032,-0.8255,-0.8632,-0.8737,-0.8859,-0.8927,-0.894,-0.894,-0.894,-0.9008,-0.9062,-0.9076,-0.9017,-0.8878,-0.8903,-0.8871,-0.9017,-0.9286,-0.9305,-0.9151,-0.8923,-0.9022,-0.9042,-0.896,-0.9001,-0.9001,-0.8947,-0.8897,-0.893,-0.889,-0.914,-0.9202,-0.9144,-0.9273,-0.9327,0.0,0.0,0.0,0.0,0.0,0.0,0.0,0.0,0.0,0.0,0.0,0.0,0.0,0.0,0.0,0.0,0.0,0.0,0.0,0.0,0.0,0.0,0.0,0.0,0.0,0.0,0.0,0.0,0.0,0.0,0.0,0.0,0.0,0.0,0.0,0.0,0.0,0.0,0.0,0.0,0.0,0.0,0.0,0.0,-0.5191,-0.8041,-0.8034,-0.7897,-0.7822,-0.7726,-0.7821,-0.7828,-0.7733,-0.7918,-0.8028,-0.8027,-0.802,-0.7917,-0.7719,-0.7521,-0.6261,-0.3854,-0.1444,0.0,0.0,0.0,0.0,0.0,0.0,0.0,0.0,0.0,0.0,-0.3717,-0.6448,-0.7972,-0.8045,-0.8065,-0.8026,-0.8046,-0.8146,-0.8316,-0.8793,-0.8913,-0.8933,-0.8933,-0.894,-0.894,-0.8947,-0.9022,-0.9096,-0.915,-0.9124,-0.9118,-0.8984,-0.8983,-0.9191,-0.9511,-0.9537,-0.9354,-0.9069,-0.911,-0.9103,-0.8988,-0.9062,-0.9069,-0.8981,-0.8923,-0.8891,-0.8943,-0.9195,-0.9405,-0.9339,-0.9347,-0.9449,0.0,0.0,0.0,0.0,0.0,0.0,0.0,0.0,0.0,0.0,0.0,0.0,0.0,0.0,0.0,0.0,0.0,0.0,0.0,0.0,0.0,0.0,0.0,0.0,0.0,0.0,0.0,0.0,0.0,0.0,0.0,0.0,0.0,0.0,0.0,0.0,0.0,0.0,0.0,0.0,0.0,0.0,0.0,0.0,-0.5183,-0.7972,-0.7959,-0.8031,-0.8011,-0.8011,-0.8011,-0.8018,-0.8011,-0.8018,-0.8011,-0.8004,-0.8011,-0.8011,-0.7991,-0.7916,-0.6813,-0.4178,0.0,0.0,0.0,0.0,0.0,0.0,0.0,0.0,0.0,0.0,0.0,-0.3723,-0.6358,-0.7779,-0.8058,-0.8167,-0.8206,-0.8105,-0.8428,-0.8655,-0.8859,-0.8927,-0.894,-0.894,-0.894,-0.8947,-0.8967,-0.8967,-0.9049,-0.927,-0.9332,-0.9446,-0.9218,-0.9182,-0.9332,-0.9525,-0.9511,-0.9365,-0.93,-0.925,-0.9069,-0.9001,-0.9015,-0.9008,-0.8981,-0.8903,-0.8977,-0.8997,-0.9257,-0.9325,-0.93,-0.9483,-0.9598,0.0,0.0,0.0,0.0,0.0,0.0,0.0,0.0,0.0,0.0,0.0,0.0,0.0,0.0,0.0,0.0,0.0,0.0,0.0,0.0,0.0,0.0,0.0,0.0,0.0,0.0,0.0,0.0,0.0,0.0,0.0,0.0,0.0,0.0,0.0,0.0,0.0,0.0,0.0,0.0,0.0,0.0,0.0,0.0,-0.5175,-0.7978,-0.7979,-0.7952,-0.8038,-0.8038,-0.8038,-0.8038,-0.8038,-0.8038,-0.8038,-0.8038,-0.8038,-0.8038,-0.8038,-0.8018,-0.6807,-0.421,-0.1499,0.0,0.0,0.0,0.0,0.0,0.0,0.0,0.0,0.0,-0.1129,-0.3786,-0.6358,-0.8018,-0.8201,-0.8241,-0.8323,-0.8361,-0.8615,-0.8737,-0.858,-0.8653,-0.8933,-0.894,-0.894,-0.8981,-0.9076,-0.915,-0.9259,-0.9415,-0.9641,-0.9717,-0.9639,-0.9605,-0.9578,-0.9523,-0.9503,-0.9456,-0.9442,-0.9394,-0.9225,-0.9062,-0.9022,-0.9028,-0.893,-0.9147,-0.9103,-0.8984,-0.9137,-0.9313,-0.9367,-0.9571,-0.9713,0.0,0.0,0.0,0.0,0.0,0.0,0.0,0.0,0.0,0.0,0.0,0.0,0.0,0.0,0.0,0.0,0.0,0.0,0.0,0.0,0.0,0.0,0.0,0.0,0.0,0.0,0.0,0.0,0.0,0.0,0.0,0.0,0.0,0.0,0.0,0.0,0.0,0.0,0.0,0.0,0.0,0.0,0.0,0.0,-0.4461,-0.7279,-0.7892,-0.7952,-0.8038,-0.8038,-0.8038,-0.8038,-0.8038,-0.8038,-0.8038,-0.8038,-0.8038,-0.8038,-0.8045,-0.7959,-0.726,-0.5331,0.0,0.0,0.0,0.0,0.0,0.0,0.0,0.0,0.0,0.0,0.0,-0.3865,-0.6588,-0.817,-0.835,-0.8391,-0.8486,-0.8621,-0.873,-0.8675,-0.8458,-0.8653,-0.8954,-0.8994,-0.9008,-0.9069,-0.9205,-0.9306,-0.9435,-0.9585,-0.9659,-0.972,-0.9754,-0.972,-0.97,-0.9652,-0.9618,-0.9655,-0.9559,-0.9415,-0.9327,-0.9157,-0.9089,-0.899,-0.9103,-0.9314,-0.9202,-0.897,-0.9144,-0.9345,-0.9439,-0.9673,-0.9176,0.0,0.0,0.0,0.0,0.0,0.0,0.0,0.0,0.0,0.0,0.0,0.0,0.0,0.0,0.0,0.0,0.0,0.0,0.0,0.0,0.0,0.0,0.0,0.0,0.0,0.0,0.0,0.0,0.0,0.0,0.0,0.0,0.0,0.0,0.0,0.0,0.0,0.0,0.0,0.0,0.0,0.0,0.0,0.0,-0.3069,-0.5854,-0.7918,-0.8079,-0.8072,-0.8058,-0.8052,-0.8045,-0.8045,-0.8038,-0.8038,-0.8038,-0.8038,-0.8038,-0.8045,-0.7959,-0.7972,-0.6965,-0.3118,0.0,0.0,0.0,0.0,0.0,0.0,0.0,0.0,0.0,0.0,-0.4156,-0.6817,-0.8428,-0.852,-0.8615,-0.8764,-0.8872,-0.8913,-0.8933,-0.894,-0.885,-0.9015,-0.9236,-0.927,-0.9211,-0.9347,-0.9408,-0.9462,-0.9578,-0.9673,-0.9741,-0.9788,-0.9815,-0.9815,-0.9802,-0.9774,-0.972,-0.9689,-0.9621,-0.9422,-0.9279,-0.9205,-0.9211,-0.9138,-0.9245,-0.9266,-0.9069,-0.9248,-0.9473,-0.9447,-0.9284,-0.7872,0.0,0.0,0.0,0.0,0.0,0.0,0.0,0.0,0.0,0.0,0.0,0.0,0.0,0.0,0.0,0.0,0.0,0.0,0.0,0.0,0.0,0.0,0.0,0.0,0.0,0.0,0.0,0.0,0.0,0.0,0.0,0.0,0.0,0.0,0.0,0.0,0.0,0.0,0.0,0.0,0.0,0.0,0.0,0.0,-0.2892,-0.5773,-0.8425,-0.8474,-0.8296,-0.8208,-0.8201,-0.8153,-0.8065,-0.8038,-0.8038,-0.8038,-0.8038,-0.8038,-0.8038,-0.8052,-0.7972,-0.7372,-0.463,-0.2012,0.0,0.0,0.0,0.0,0.0,0.0,0.0,0.0,0.0,-0.4223,-0.705,-0.8696,-0.8662,-0.8771,-0.8872,-0.892,-0.894,-0.8863,-0.8943,-0.8963,-0.903,-0.9394,-0.9428,-0.9483,-0.9496,-0.9537,-0.9598,-0.972,-0.9747,-0.9747,-0.9788,-0.9822,-0.9822,-0.9822,-0.9815,-0.9802,-0.9799,-0.9683,-0.949,-0.9435,-0.9361,-0.934,-0.9265,-0.9175,-0.9195,-0.9325,-0.9641,-0.9639,-0.9513,-0.8616,-0.7434,0.0,0.0,0.0,0.0,0.0,0.0,0.0,0.0,0.0,0.0,0.0,0.0,0.0,0.0,0.0,0.0,0.0,0.0,0.0,0.0,0.0,0.0,0.0,0.0,0.0,0.0,0.0,0.0,0.0,0.0,0.0,0.0,0.0,0.0,0.0,0.0,0.0,0.0,0.0,0.0,0.0,0.0,0.0,0.0,-0.2943,-0.5904,-0.8615,-0.8676,-0.856,-0.8391,-0.824,-0.809,-0.8004,-0.8004,-0.7998,-0.7998,-0.7998,-0.7998,-0.8106,-0.8221,-0.8113,-0.7718,-0.5546,-0.2874,0.0,0.0,0.0,0.0,0.0,0.0,0.0,0.0,-0.2561,-0.4296,-0.7177,-0.8729,-0.8818,-0.8879,-0.8927,-0.8947,-0.887,-0.8943,-0.8891,-0.9218,-0.9293,-0.9545,-0.9469,-0.9517,-0.9639,-0.9686,-0.9754,-0.9795,-0.9795,-0.9802,-0.9815,-0.9822,-0.9822,-0.9822,-0.9822,-0.9795,-0.9727,-0.9632,-0.9551,-0.9564,-0.951,-0.9517,-0.9551,-0.9459,-0.9479,-0.9717,-0.9822,-0.9713,-0.9477,-0.8547,-0.6988,0.0,0.0,0.0,0.0,0.0,0.0,0.0,0.0,0.0,0.0,0.0,0.0,0.0,0.0,0.0,0.0,0.0,0.0,0.0,0.0,0.0,0.0,0.0,0.0,0.0,0.0,0.0,0.0,0.0,0.0,0.0,0.0,0.0,0.0,0.0,0.0,0.0,0.0,0.0,0.0,0.0,0.0,0.0,-0.1057,-0.3703,-0.6389,-0.8568,-0.8974,-0.8811,-0.8547,-0.8262,-0.8131,-0.8033,-0.8046,-0.8125,-0.8118,-0.804,-0.8236,-0.8465,-0.8431,-0.8452,-0.8144,-0.6128,-0.2969,0.0,0.0,0.0,0.0,0.0,0.0,0.0,-0.2468,-0.4263,-0.5158,-0.7393,-0.8732,-0.894,-0.8933,-0.8933,-0.896,-0.8937,-0.8924,-0.9064,-0.9428,-0.9697,-0.9696,-0.9618,-0.968,-0.9741,-0.9781,-0.9808,-0.9822,-0.9822,-0.9741,-0.9754,-0.9781,-0.9794,-1.0122,-1.0081,-0.989,-0.9815,-0.9713,-0.9659,-0.9666,-0.9693,-0.97,-0.97,-0.9593,-0.958,-0.9792,-0.984,-0.9829,-0.918,-0.8262,-0.7471,0.0,0.0,0.0,0.0,0.0,0.0,0.0,0.0,0.0,0.0,0.0,0.0,0.0,0.0,0.0,0.0,0.0,0.0,0.0,0.0,0.0,0.0,0.0,0.0,0.0,0.0,0.0,0.0,0.0,0.0,0.0,0.0,0.0,0.0,0.0,0.0,0.0,0.0,0.0,0.0,0.0,0.0,0.0,-0.6731,-0.7622,-0.8365,-0.9198,-0.9279,-0.9069,-0.8682,-0.8533,-0.8374,-0.8506,-0.8513,-0.8632,-0.8646,-0.8625,-0.8709,-0.8716,-0.8618,-0.8618,-0.8513,-0.7605,-0.521,0.0,0.0,0.0,0.0,0.0,0.0,0.0,-0.2921,-0.5422,-0.7748,-0.8607,-0.8981,-0.8967,-0.894,-0.894,-0.8954,-0.8858,-0.8983,-0.8845,-0.958,-0.9737,-0.984,-0.9754,-0.9761,-0.9808,-0.9822,-0.9822,-0.9822,-0.9836,-0.9781,-0.9821,-0.9854,-0.9921,-1.0419,-1.0273,-1.0053,-0.9944,-0.9815,-0.9781,-0.9774,-0.9829,-0.9856,-0.9815,-0.9802,-0.9774,-0.9788,-0.9829,-0.9801,-0.8931,-0.8138,-0.8263,-0.2092,0.0,0.0,0.0,0.0,0.0,0.0,0.0,0.0,0.0,0.0,0.0,0.0,0.0,0.0,0.0,0.0,0.0,0.0,0.0,0.0,0.0,0.0,0.0,0.0,0.0,0.0,0.0,0.0,0.0,0.0,0.0,0.0,0.0,0.0,0.0,0.0,0.0,0.0,0.0,0.0,-0.2817,-0.5612,-0.9099,-0.9533,-0.9571,-0.9422,-0.9388,-0.9198,-0.8893,-0.8669,-0.8764,-0.8872,-0.8872,-0.8907,-0.8955,-0.9085,-0.9208,-0.9085,-0.8975,-0.8941,-0.8804,-0.8702,-0.6463,0.0,0.0,0.0,0.0,0.0,0.0,0.0,-0.2961,-0.6207,-0.8705,-0.9319,-0.9123,-0.9123,-0.9024,-0.8977,-0.8884,-0.8876,-0.7702,-0.6439,-0.8011,-0.948,-0.9802,-0.9808,-0.9808,-0.9822,-0.9822,-0.9829,-0.9842,-0.9897,-0.9848,-0.9928,-0.9968,-1.0161,-1.0538,-1.0565,-1.0215,-1.0086,-0.9951,-0.9951,-0.9958,-0.9985,-0.9998,-0.9854,-0.9841,-0.9848,-0.9738,-0.9738,-0.9647,-0.9004,-0.8225,-0.8356,-0.5235,0.0,0.0,-0.0403,0.0,0.0,0.0,0.0,0.0,0.0,0.0,0.0,0.0,0.0,0.0,0.0,0.0,0.0,0.0,0.0,0.0,0.0,0.0,0.0,0.0,0.0,0.0,0.0,0.0,0.0,0.0,0.0,0.0,0.0,0.0,0.0,0.0,0.0,0.0,0.0,0.0,-0.6328,-0.8897,-0.9359,-0.9693,-0.9598,-0.9483,-0.9422,-0.9306,-0.9001,-0.8878,-0.9024,-0.9157,-0.9051,-0.8977,-0.905,-0.9401,-0.9659,-0.947,-0.9408,-0.9408,-0.9178,-0.8957,-0.7664,-0.4385,0.0,0.0,0.0,0.0,0.0,0.0,-0.2911,-0.6228,-0.887,-0.9552,-0.9429,-0.9422,-0.9162,-0.8974,-0.8775,-0.8629,-0.5094,-0.3675,-0.5156,-0.9849,-0.9808,-0.9822,-0.9822,-0.9822,-0.9822,-0.9849,-0.989,-0.9964,-0.9935,-1.0015,-1.0096,-1.0304,-1.0649,-1.0548,-1.0365,-1.0249,-1.0154,-1.0148,-1.0148,-1.0134,-1.0029,-0.9929,-0.9929,-0.9916,-0.9896,-0.9995,-0.989,-0.969,-0.8654,-0.8264,-0.7298,-0.6147,-0.4017,-0.3112,-0.3115,-0.3118,-0.1931,0.0,0.0,0.0,0.0,0.0,0.0,0.0,0.0,0.0,0.0,0.0,0.0,0.0,0.0,0.0,0.0,0.0,0.0,0.0,0.0,0.0,0.0,0.0,0.0,0.0,0.0,0.0,0.0,0.0,0.0,0.0,0.0,0.0,-0.6549,-0.8489,-0.9824,-0.9856,-0.9808,-0.9713,-0.9625,-0.9666,-0.9578,-0.9374,-0.9205,-0.9245,-0.934,-0.9449,-0.9476,-0.9395,-0.9525,-0.9757,-0.9743,-0.9525,-0.9374,-0.9354,-0.9007,-0.7679,-0.4679,-0.1711,0.0,0.0,0.0,0.0,0.0,-0.2964,-0.6217,-0.8778,-0.9792,-0.9707,-0.9693,-0.953,-0.9292,-0.8463,-0.5094,0.0,0.0,-0.5823,-0.8983,-0.9579,-0.9829,-0.9822,-0.9829,-0.9842,-0.991,-0.9978,-1.008,-1.0062,-1.0163,-1.0243,-1.0453,-1.0637,-1.0658,-1.0527,-1.0412,-1.0331,-1.0317,-1.0283,-1.0249,-1.0163,-1.0236,-1.0196,-1.0169,-1.0149,-1.0143,-1.0183,-0.998,-0.8892,-0.8682,-0.7951,-0.7879,-0.6448,-0.5837,-0.5842,-0.5842,-0.5086,-0.3715,-0.248,-0.1247,0.0,0.0,0.0,0.0,0.0,0.0,0.0,0.0,0.0,0.0,0.0,0.0,0.0,0.0,0.0,0.0,0.0,0.0,0.0,0.0,0.0,0.0,0.0,0.0,0.0,0.0,0.0,0.0,0.0,-0.3302,-0.9094,-0.9888,-0.9862,-0.9962,-1.0039,-0.9971,-0.9849,-0.9876,-0.9802,-0.9666,-0.9526,-0.9499,-0.951,-0.9731,-0.9641,-0.9696,-0.971,-0.9829,-0.971,-0.9703,-0.9564,-0.9496,-0.9399,-0.7413,-0.477,-0.1738,0.0,0.0,0.0,0.0,0.0,-0.2897,-0.6202,-0.8914,-0.9808,-0.9849,-0.9869,-0.9734,-0.9578,-0.8373,-0.4211,0.0,0.0,0.0,-0.8891,-0.9754,-0.9828,-0.9828,-0.9951,-0.9971,-1.0039,-1.012,-1.0222,-1.0331,-1.031,-1.0397,-1.0602,-1.0636,-1.0649,-1.0643,-1.0588,-1.0527,-1.048,-1.0439,-1.0405,-1.0487,-1.0411,-1.0487,-1.0439,-1.0548,-1.0432,-1.048,-1.039,-0.9776,-0.982,-0.7965,-0.7965,-0.7965,-0.7972,-0.7985,-0.7905,-0.7801,-0.7498,-0.594,-0.3899,0.0,-0.064,0.0,0.0,0.0,0.0,0.0,0.0,0.0,0.0,0.0,0.0,0.0,0.0,0.0,0.0,0.0,0.0,0.0,0.0,0.0,0.0,0.0,0.0,0.0,0.0,0.0,0.0,0.0,-0.4766,-0.9594,-1.0243,-1.023,-1.0297,-1.0369,-1.0188,-1.0086,-1.0073,-1.0025,-0.991,-1.0012,-0.9937,-0.9788,-0.9686,-0.982,-0.9815,-0.9781,-0.9795,-0.9937,-0.9808,-0.9754,-0.9666,-0.9673,-0.8515,-0.5676,0.0,0.0,0.0,0.0,0.0,0.0,-0.3081,-0.6289,-0.8897,-0.9741,-0.9924,-0.9992,-0.9951,-0.9727,-0.8181,-0.5738,0.0,0.0,-0.5447,-0.7932,-0.9951,-0.9901,-0.9955,-0.9955,-1.0107,-1.0175,-1.0249,-1.0344,-1.0446,-1.0555,-1.0595,-1.0683,-1.0711,-1.0731,-1.0724,-1.0711,-1.0649,-1.0588,-1.0582,-1.0588,-1.0649,-1.067,-1.0629,-1.0588,-1.0706,-1.0706,-1.0602,-1.0636,-1.067,-1.0704,-0.8045,-0.8045,-0.7945,-0.8045,-0.8065,-0.8187,-0.822,-0.8164,-0.7724,-0.7594,-0.6634,-0.2388,-0.2907,-0.5231,-0.651,-0.4219,0.0,0.0,0.0,0.0,0.0,0.0,0.0,0.0,0.0,0.0,0.0,0.0,0.0,0.0,0.0,0.0,0.0,0.0,0.0,0.0,-0.298,-0.6832,-0.7616,-0.9193,-1.0123,-1.0568,-1.0555,-1.0596,-1.0513,-1.0304,-1.0263,-1.0243,-1.0229,-1.0209,-1.0102,-1.0076,-1.012,-0.9895,-0.9821,-0.9754,-0.9869,-0.9917,-1.0108,-0.9903,-0.9903,-0.9917,-0.9876,-0.9768,-0.7589,-0.3828,0.0,0.0,0.0,0.0,0.0,-0.3113,-0.6474,-0.8835,-0.9854,-1.0032,-1.0066,-0.9942,-0.8925,-0.6754,-0.6226,-0.6332,-0.5866,-0.564,-0.7161,-0.9349,-1.0195,-1.0229,-1.0236,-1.0263,-1.031,-1.0385,-1.046,-1.0561,-1.067,-1.0677,-1.0717,-1.0738,-1.0751,-1.0765,-1.0744,-1.0724,-1.0697,-1.0704,-1.069,-1.069,-1.0711,-1.0717,-1.0704,-1.0649,-1.0677,-1.0711,-1.0704,-1.0697,-1.0724,-0.8038,-0.8038,-0.8038,-0.8085,-0.8167,-0.8235,-0.8357,-0.8401,-0.8441,-0.8629,-0.7895,-0.5937,-0.4928,-0.607,-0.6158,-0.372,0.0,0.0,0.0,0.0,0.0,0.0,0.0,0.0,0.0,0.0,0.0,0.0,0.0,0.0,0.0,0.0,0.0,0.0,0.0,0.0,0.0,-0.9065,-1.0704,-1.0683,-1.0649,-1.0704,-1.0663,-1.0609,-1.0671,-1.0473,-1.0399,-1.0392,-1.0351,-1.0304,-1.0216,-1.0337,-1.0304,-1.0276,-1.0082,-0.9962,-0.9921,-1.008,-1.028,-1.0093,-1.0107,-1.0134,-1.0039,-0.9821,-0.9246,-0.6855,-0.3537,0.0,0.0,0.0,0.0,0.0,-0.6719,-0.9387,-1.0161,-1.0202,-1.0243,-1.0249,-0.8453,-0.5627,-0.3796,-0.4416,-0.699,-0.6882,-0.7272,-0.8469,-1.0095,-1.0507,-1.0392,-1.0412,-1.0446,-1.0514,-1.0582,-1.0636,-1.0724,-1.0744,-1.0799,-1.0819,-1.0819,-1.0826,-1.0853,-1.086,-1.0853,-1.0846,-1.0812,-1.0778,-1.0724,-1.0731,-1.0724,-1.0731,-1.0744,-1.0744,-1.0731,-1.0724,-1.0778,-0.8038,-0.8038,-0.8038,-0.8126,-0.8262,-0.8303,-0.8397,-0.854,-0.8696,-0.8669,-0.8689,-0.8562,-0.7332,-0.5937,-0.5271,-0.4202,-0.1685,0.0,0.0,0.0,0.0,0.0,0.0,0.0,0.0,0.0,0.0,0.0,0.0,0.0,0.0,0.0,0.0,0.0,0.0,0.0,0.0,-0.7784,-1.0545,-1.0652,-1.0751,-1.0731,-1.0717,-1.0717,-1.0717,-1.0649,-1.0555,-1.0534,-1.0493,-1.0453,-1.0466,-1.0493,-1.0419,-1.061,-1.048,-1.0121,-1.0189,-1.0297,-1.0438,-1.027,-1.0256,-1.0304,-1.0181,-0.9995,-0.9837,-0.9019,-0.7366,-0.3149,0.0,0.0,0.0,0.0,-0.6828,-0.9538,-1.0452,-1.0358,-1.0412,-1.0181,-0.9423,-0.6369,-0.2569,0.0,0.0,-0.8301,-0.857,-0.901,-1.0534,-1.0664,-1.0541,-1.0541,-1.0575,-1.0643,-1.0697,-1.0724,-1.0772,-1.0806,-1.0887,-1.0839,-1.0962,-1.0962,-1.1002,-1.1043,-1.1023,-1.0989,-1.0948,-1.09,-1.0819,-1.0772,-1.0665,-1.0685,-1.0672,-1.0672,-1.0685,-1.0867,-1.0928,-0.8038,-0.8038,-0.8038,-0.8126,-0.8275,-0.8397,-0.854,-0.8682,-0.8832,-0.8913,-0.8899,-0.8836,-0.8621,-0.8152,-0.8165,-0.8015,-0.6289,0.0,0.0,0.0,0.0,0.0,0.0,0.0,0.0,0.0,0.0,0.0,0.0,0.0,0.0,0.0,0.0,0.0,0.0,0.0,-0.5108,-0.6581,-0.9163,-1.0645,-1.0738,-1.0724,-1.0717,-1.0717,-1.0717,-1.0711,-1.067,-1.0663,-1.0643,-1.0649,-1.0663,-1.0677,-1.067,-1.0677,-1.069,-1.0595,-1.0603,-1.06,-1.0561,-1.052,-1.0507,-1.0426,-1.0331,-1.027,-1.0102,-0.9976,-0.9456,-0.978,-0.4357,-0.2311,-0.4265,-0.5195,-0.7394,-0.9104,-1.0439,-1.048,-1.0397,-0.9109,-0.8475,-0.7431,-0.3806,0.0,0.0,0.0,-1.0045,-1.0379,-1.0697,-1.0683,-1.067,-1.0649,-1.069,-1.0751,-1.0665,-1.0685,-1.0752,-1.0779,-1.1002,-1.1118,-1.109,-1.109,-1.1179,-1.1219,-1.1165,-1.1124,-1.109,-1.1056,-1.1002,-1.0826,-1.0799,-1.0792,-1.0812,-1.0812,-1.0664,-1.0866,-1.12,-0.8038,-0.8038,-0.8038,-0.8126,-0.8282,-0.8425,-0.8567,-0.8723,-0.8872,-0.894,-0.894,-0.8947,-0.8954,-0.887,-0.8923,-0.8937,-0.8499,-0.6373,-0.4327,-0.2325,0.0,0.0,0.0,0.0,0.0,0.0,0.0,0.0,0.0,0.0,0.0,0.0,0.0,0.0,0.0,0.0,-0.4977,-0.6443,-0.859,-1.0605,-1.0724,-1.0717,-1.0717,-1.0717,-1.0717,-1.0717,-1.0717,-1.0717,-1.0717,-1.0717,-1.0717,-1.0717,-1.0717,-1.0717,-1.0717,-1.0704,-1.0747,-1.0706,-1.074,-1.0555,-1.0561,-1.0555,-1.048,-1.0371,-1.0317,-1.0183,-1.0243,-1.0453,-0.8081,-0.7052,-0.7762,-0.8344,-0.9133,-1.0195,-1.0568,-1.0602,-1.0103,-0.8117,-0.6943,-0.6156,0.0,0.0,0.0,0.0,-0.9958,-1.0538,-1.0711,-1.0711,-1.0704,-1.0697,-1.0625,-1.0719,-1.0752,-1.0779,-1.0866,-1.0926,-1.1158,-1.124,-1.1179,-1.1212,-1.1362,-1.1396,-1.1348,-1.1307,-1.1274,-1.1233,-1.1192,-1.1124,-1.094,-1.0953,-1.0836,-1.0967,-1.0953,-1.1234,-1.1469,-0.8038,-0.8045,-0.8079,-0.8187,-0.8336,-0.8479,-0.8628,-0.8777,-0.8886,-0.896,-0.8988,-0.9001,-0.9015,-0.9042,-0.9024,-0.9017,-0.9345,-0.9591,-0.8377,-0.5876,-0.3812,0.0,0.0,0.0,0.0,0.0,0.0,0.0,0.0,0.0,0.0,0.0,0.0,0.0,0.0,-0.3503,-0.5792,-0.7526,-0.9522,-1.0591,-1.0717,-1.0717,-1.0717,-1.0717,-1.0717,-1.0717,-1.0724,-1.0778,-1.0785,-1.0785,-1.0846,-1.0719,-1.0672,-1.0712,-1.0665,-1.0772,-1.0717,-1.0731,-1.0717,-1.0683,-1.0717,-1.0683,-1.0636,-1.0514,-1.0439,-1.0412,-1.0446,-1.0713,-1.0326,-1.0128,-1.0611,-1.0472,-1.0445,-1.0426,-1.0704,-1.0731,-1.0339,-0.8307,-0.5619,-0.3615,0.0,0.0,0.0,0.0,-0.9732,-1.0439,-1.0724,-1.0744,-1.0765,-1.0778,-1.0732,-1.0697,-1.0866,-1.0913,-1.1027,-1.1246,-1.1482,-1.1543,-1.1489,-1.1409,-1.1599,-1.1613,-1.1552,-1.1511,-1.1477,-1.1477,-1.147,-1.1341,-1.1219,-1.1246,-1.1267,-1.1267,-1.1399,-1.1538,-1.1636,-0.8038,-0.8052,-0.8194,-0.833,-0.8465,-0.8628,-0.8777,-0.8879,-0.892,-0.9015,-0.911,-0.9137,-0.9191,-0.9286,-0.9138,-0.9225,-0.9591,-0.9751,-0.9366,-0.9207,-0.8891,-0.6789,-0.4817,0.0,0.0,0.0,0.0,0.0,0.0,0.0,0.0,0.0,0.0,0.0,0.0,-0.3501,-0.7009,-0.875,-1.0478,-1.0585,-1.0717,-1.0724,-1.0724,-1.0738,-1.0731,-1.0724,-1.0731,-1.086,-1.0934,-1.0934,-1.1009,-1.0886,-1.0826,-1.0736,-1.0684,-1.086,-1.0712,-1.0719,-1.0812,-1.0744,-1.0717,-1.0717,-1.0697,-1.0663,-1.0616,-1.0663,-1.0697,-1.0683,-1.0683,-1.0697,-1.0724,-1.0724,-1.0724,-1.0724,-1.0731,-1.0738,-0.994,-0.8189,-0.5496,-0.1878,0.0,0.0,0.0,0.0,-1.0092,-1.0806,-1.0853,-1.0873,-1.0914,-1.0941,-1.0879,-1.0816,-1.0856,-1.1074,-1.1355,-1.1592,-1.1531,-1.1647,-1.1674,-1.1769,-1.1925,-1.187,-1.1748,-1.1735,-1.1714,-1.1735,-1.1728,-1.1606,-1.1511,-1.1592,-1.1578,-1.1463,-1.1477,-1.1633,-1.1756,-0.8038,-0.8058,-0.8296,-0.8384,-0.837,-0.8608,-0.8743,-0.8811,-0.8899,-0.9015,-0.9157,-0.9164,-0.9239,-0.9347,-0.9332,-0.9365,-0.9618,-0.972,-0.9781,-0.9863,-0.9562,-0.9119,-0.7386,-0.593,0.0,0.0,0.0,0.0,0.0,0.0,0.0,0.0,0.0,0.0,0.0,-0.3629,-0.7134,-0.9704,-1.0758,-1.0724,-1.0717,-1.0724,-1.0765,-1.0719,-1.0725,-1.0779,-1.0989,-1.1043,-1.107,-1.1097,-1.1145,-1.1131,-1.0967,-1.0875,-1.096,-1.1118,-1.0989,-1.0826,-1.0934,-1.0833,-1.0724,-1.0717,-1.0717,-1.0717,-1.0717,-1.0717,-1.0717,-1.0717,-1.0724,-1.0738,-1.0717,-1.0724,-1.0717,-1.0717,-1.0738,-1.0765,-1.0098,-0.8633,-0.5938,-0.2567,-0.2021,0.0,0.0,0.0,-1.0335,-1.1042,-1.0962,-1.1009,-1.105,-1.1097,-1.1027,-1.0981,-1.1168,-1.1275,-1.1558,-1.1502,-1.1583,-1.1703,-1.1972,-1.2047,-1.2258,-1.204,-1.1945,-1.1945,-1.1932,-1.1925,-1.1898,-1.171,-1.1789,-1.1694,-1.1681,-1.1701,-1.1714,-1.1701,-1.1816,-0.8038,-0.8072,-0.8357,-0.8425,-0.8377,-0.8655,-0.8777,-0.8798,-0.8893,-0.9022,-0.9157,-0.9198,-0.9306,-0.9449,-0.9426,-0.9513,-0.9686,-0.9768,-0.9802,-0.9883,-0.9978,-1.0073,-0.9519,-0.8193,-0.5691,-0.2626,0.0,0.0,0.0,0.0,0.0,0.0,0.0,0.0,0.0,-0.3624,-0.7121,-0.9837,-1.0806,-1.0751,-1.0738,-1.0692,-1.0712,-1.0819,-1.0839,-1.105,-1.1269,-1.1324,-1.1226,-1.1253,-1.128,-1.142,-1.1267,-1.1114,-1.124,-1.1317,-1.1269,-1.1118,-1.107,-1.0955,-1.0772,-1.0731,-1.0717,-1.0717,-1.0717,-1.0724,-1.0717,-1.0724,-1.0751,-1.0772,-1.0765,-1.0799,-1.0833,-1.086,-1.0914,-1.0941,-1.0914,-0.9691,-0.6537,-0.3407,-0.2987,-0.2443,-0.7155,-1.0548,-1.0809,-1.1221,-1.1193,-1.1262,-1.1212,-1.126,-1.1307,-1.1268,-1.1362,-1.1496,-1.163,-1.1843,-1.1918,-1.204,-1.2292,-1.2333,-1.2361,-1.2162,-1.2135,-1.2115,-1.2101,-1.2094,-1.2081,-1.206,-1.1844,-1.1764,-1.173,-1.1816,-1.1796,-1.1782,-1.1911,-0.8038,-0.8072,-0.8357,-0.8479,-0.8499,-0.8804,-0.892,-0.8913,-0.8933,-0.9022,-0.9164,-0.9286,-0.9442,-0.9564,-0.9499,-0.9573,-0.9768,-0.9808,-0.9822,-0.9863,-1.0019,-0.9942,-0.8884,-0.7444,-0.5885,-0.7248,0.0,0.0,0.0,0.0,0.0,0.0,0.0,0.0,0.0,-0.3622,-0.7121,-1.0136,-1.0759,-1.0846,-1.0853,-1.0846,-1.075,-1.092,-1.1255,-1.1469,-1.1406,-1.1489,-1.1382,-1.1396,-1.1484,-1.1484,-1.1443,-1.1504,-1.145,-1.1545,-1.1608,-1.1427,-1.1165,-1.1023,-1.0907,-1.0785,-1.0772,-1.0765,-1.0738,-1.0731,-1.0772,-1.0685,-1.0739,-1.0732,-1.0752,-1.0941,-1.0975,-1.1002,-1.105,-1.1063,-1.1036,-1.09,-0.7844,-0.523,-0.3025,-0.248,-0.7711,-1.1509,-1.1468,-1.1559,-1.1337,-1.1386,-1.1375,-1.145,-1.1511,-1.1469,-1.1583,-1.1677,-1.1797,-1.2168,-1.2407,-1.2374,-1.2477,-1.2532,-1.2546,-1.2379,-1.2345,-1.2298,-1.2257,-1.223,-1.2257,-1.2277,-1.2079,-1.2012,-1.1797,-1.1717,-1.1697,-1.175,-1.2047,-0.8038,-0.8065,-0.8357,-0.8479,-0.8526,-0.8804,-0.894,-0.894,-0.8947,-0.9022,-0.9164,-0.9313,-0.9462,-0.9591,-0.9707,-0.9768,-0.9808,-0.9822,-0.9822,-0.9856,-1.0073,-1.0202,-0.9136,-0.7043,-0.4766,0.0,0.0,0.0,0.0,0.0,0.0,0.0,0.0,0.0,0.0,-0.3627,-0.7277,-1.0509,-1.1097,-1.0962,-1.1159,-1.0973,-1.0908,-1.1226,-1.1566,-1.1636,-1.1571,-1.1646,-1.1525,-1.1531,-1.1626,-1.1626,-1.1619,-1.1549,-1.1613,-1.166,-1.1552,-1.1461,-1.1379,-1.1158,-1.1118,-1.0982,-1.0873,-1.0873,-1.0732,-1.0867,-1.0779,-1.0703,-1.0756,-1.09,-1.1214,-1.1228,-1.1111,-1.1111,-1.1131,-1.1138,-1.1124,-1.1145,-0.9745,-0.7377,-0.5147,-0.5051,-0.8399,-1.0413,-1.0706,-1.1579,-1.166,-1.1681,-1.1647,-1.1694,-1.1748,-1.171,-1.1663,-1.1884,-1.2115,-1.2326,-1.2422,-1.2546,-1.267,-1.2773,-1.2773,-1.2589,-1.2583,-1.2562,-1.2461,-1.2372,-1.2433,-1.2326,-1.234,-1.2259,-1.2052,-1.1918,-1.1918,-1.1978,-1.2237,-0.9137,-0.8763,-0.9072,-0.91,-0.9151,-0.9029,-0.894,-0.8954,-0.9035,-0.9123,-0.9191,-0.9367,-0.951,-0.9632,-0.9747,-0.9822,-0.9822,-0.9822,-0.9883,-0.9917,-1.0148,-1.031,-0.9281,-0.6894,-0.3739,0.0,0.0,0.0,0.0,0.0,0.0,0.0,0.0,0.0,-0.3098,-0.4999,-0.6111,-0.9484,-1.1344,-1.1138,-1.1331,-1.126,-1.1201,-1.1523,-1.1585,-1.166,-1.1586,-1.1626,-1.164,-1.166,-1.1681,-1.1583,-1.1643,-1.1616,-1.1742,-1.1914,-1.1762,-1.1729,-1.1708,-1.1572,-1.1497,-1.1246,-1.1104,-1.0886,-1.0743,-1.0879,-1.1056,-1.0987,-1.0922,-1.1199,-1.1469,-1.1344,-1.1294,-1.1294,-1.1301,-1.1307,-1.1328,-1.1355,-1.1194,-0.8916,-0.636,-0.6994,-0.7517,-0.878,-0.9606,-1.0804,-1.2004,-1.1884,-1.1884,-1.1891,-1.1932,-1.1891,-1.1971,-1.2032,-1.2244,-1.2311,-1.242,-1.2556,-1.2671,-1.3096,-1.2972,-1.2786,-1.28,-1.2807,-1.2718,-1.2651,-1.2501,-1.2527,-1.2527,-1.2474,-1.2488,-1.2226,-1.2166,-1.2166,-1.2359,-1.1138,-1.0151,-1.0288,-1.0344,-1.0201,-0.9363,-0.8954,-0.8967,-0.9232,-0.9273,-0.9171,-0.9456,-0.9578,-0.9632,-0.9761,-0.9815,-0.9822,-0.9822,-0.989,-1.0025,-1.0188,-1.023,-0.9199,-0.692,-0.3483,0.0,0.0,0.0,0.0,0.0,0.0,0.0,0.0,-0.4182,-0.5825,-0.6141,-0.6723,-1.0122,-1.1372,-1.142,-1.1461,-1.1592,-1.1477,-1.164,-1.1531,-1.1579,-1.1626,-1.1647,-1.1714,-1.1735,-1.1728,-1.1697,-1.1724,-1.1782,-1.2178,-1.2261,-1.2175,-1.2134,-1.1952,-1.1945,-1.1864,-1.1592,-1.1396,-1.1114,-1.0895,-1.1054,-1.1253,-1.1314,-1.1248,-1.1454,-1.1545,-1.155,-1.1538,-1.1545,-1.1552,-1.1565,-1.1592,-1.1592,-1.1572,-0.9518,-0.6316,-0.5499,-0.5602,-0.6567,-0.9329,-1.1145,-1.2216,-1.2094,-1.2074,-1.1986,-1.2047,-1.2162,-1.2092,-1.2152,-1.2219,-1.2467,-1.2542,-1.2507,-1.2937,-1.3207,-1.3082,-1.313,-1.2963,-1.2963,-1.2956,-1.2929,-1.2735,-1.2715,-1.2702,-1.2786,-1.2712,-1.2542,-1.2273,-1.2359,-1.2372,-1.1678,-1.1306,-1.0697,-1.0448,-1.0314,-0.9464,-0.9035,-0.8974,-0.9144,-0.9184,-0.9164,-0.9361,-0.953,-0.9618,-0.9761,-0.9808,-0.9822,-0.9822,-0.9842,-0.9971,-1.0175,-1.031,-0.9151,-0.6898,-0.3479,0.0,0.0,0.0,0.0,-0.3905,-0.7152,0.0,-0.4839,-0.7309,-0.8481,-0.8729,-0.9728,-1.0486,-1.1335,-1.1409,-1.1598,-1.1565,-1.1572,-1.1579,-1.1579,-1.1619,-1.1647,-1.1721,-1.1796,-1.1816,-1.1904,-1.1884,-1.1553,-1.1891,-1.2175,-1.2338,-1.221,-1.2054,-1.206,-1.2216,-1.2175,-1.1952,-1.1816,-1.1599,-1.1335,-1.1281,-1.1484,-1.1552,-1.1496,-1.1619,-1.1701,-1.164,-1.1728,-1.1742,-1.1748,-1.1775,-1.1796,-1.1782,-1.1616,-0.9254,-0.5998,-0.428,-0.4357,-0.6528,-0.9167,-1.1169,-1.2416,-1.2277,-1.225,-1.2155,-1.2162,-1.2277,-1.24,-1.232,-1.24,-1.2487,-1.2534,-1.2608,-1.2888,-1.3171,-1.3246,-1.3281,-1.3112,-1.3105,-1.3085,-1.3085,-1.2929,-1.2903,-1.2862,-1.3017,-1.3109,-1.2732,-1.2556,-1.2515,-1.2481,-1.3136,-1.2575,-1.151,-1.0621,-0.9784,-0.9314,-0.9069,-0.8994,-0.9157,-0.9245,-0.9266,-0.9415,-0.9551,-0.9693,-0.9781,-0.9822,-0.9822,-0.9829,-0.9863,-0.9998,-1.0161,-1.0324,-0.9287,-0.7026,-0.3479,0.0,0.0,0.0,0.0,-0.6606,-1.043,-1.0143,-0.8076,-0.8935,-0.998,-1.0528,-1.0908,-1.1127,-1.1375,-1.1518,-1.1586,-1.1619,-1.1619,-1.1619,-1.1619,-1.1647,-1.1708,-1.1955,-1.1877,-1.1959,-1.2094,-1.2012,-1.1993,-1.2126,-1.2182,-1.2361,-1.2388,-1.2257,-1.2271,-1.2257,-1.2216,-1.2169,-1.2149,-1.1972,-1.1683,-1.1603,-1.1782,-1.1976,-1.1777,-1.1682,-1.1764,-1.1864,-1.1891,-1.1918,-1.1938,-1.1959,-1.1959,-1.1959,-1.0458,-0.8523,-0.6301,-0.423,-0.4576,-0.6777,-0.9141,-1.1318,-1.24,-1.24,-1.2366,-1.2284,-1.2311,-1.2406,-1.2387,-1.2507,-1.2574,-1.2641,-1.2708,-1.2769,-1.3024,-1.3295,-1.3384,-1.3425,-1.3254,-1.3234,-1.3207,-1.3063,-1.309,-1.305,-1.301,-1.3166,-1.3295,-1.3123,-1.2813,-1.2745,-1.2718,-1.5038,-1.3703,-1.2688,-1.081,-0.8932,-0.9224,-0.9273,-0.8974,-0.9198,-0.9354,-0.9388,-0.9517,-0.9646,-0.9761,-0.9815,-0.9822,-0.9822,-0.9822,-0.9897,-1.0046,-1.0195,-1.0351,-0.9596,-0.7327,-0.4289,0.0,0.0,0.0,0.0,-0.6598,-1.0678,-1.0672,-1.0385,-1.0545,-1.0617,-1.109,-1.1212,-1.1434,-1.1457,-1.1619,-1.1613,-1.1619,-1.1619,-1.1619,-1.1653,-1.1701,-1.1949,-1.2045,-1.1993,-1.2135,-1.2237,-1.2271,-1.2379,-1.2467,-1.2393,-1.2372,-1.2393,-1.242,-1.2427,-1.242,-1.2386,-1.2338,-1.2298,-1.2216,-1.2121,-1.1871,-1.2026,-1.2162,-1.2081,-1.2088,-1.2175,-1.2189,-1.2216,-1.2081,-1.2088,-1.2135,-1.2169,-1.1691,-1.0295,-0.7725,-0.4103,-0.2448,-0.3077,-0.5274,-1.048,-1.207,-1.2549,-1.2535,-1.2549,-1.2474,-1.2488,-1.2569,-1.2568,-1.2688,-1.284,-1.2915,-1.3037,-1.3119,-1.3343,-1.3404,-1.3308,-1.3356,-1.339,-1.3363,-1.3329,-1.3383,-1.3244,-1.3204,-1.3171,-1.3302,-1.3254,-1.3322,-1.324,-1.303,-1.2922,-1.507,-1.3823,-1.2857,-1.1105,-0.9205,-1.0194,-0.9957,-0.894,-0.9008,-0.9184,-0.9361,-0.9435,-0.9585,-0.9802,-0.9822,-0.9822,-0.9822,-0.9829,-0.9917,-1.0053,-1.0209,-1.0371,-1.0548,-0.9221,-0.5633,0.0,0.0,0.0,0.0,-0.7121,-1.0772,-1.0765,-1.0758,-1.0778,-1.0752,-1.1097,-1.1219,-1.144,-1.1497,-1.1633,-1.164,-1.1626,-1.1619,-1.166,-1.1708,-1.1935,-1.2058,-1.2223,-1.2169,-1.2277,-1.2372,-1.2433,-1.2494,-1.2501,-1.2488,-1.2467,-1.2501,-1.2542,-1.2549,-1.2556,-1.2528,-1.2494,-1.2454,-1.2433,-1.2379,-1.2132,-1.2072,-1.2354,-1.2484,-1.2477,-1.2477,-1.2361,-1.2388,-1.2388,-1.2237,-1.2298,-1.2366,-1.1396,-1.0275,-0.6594,-0.2461,0.0,0.0,-0.5621,-1.0548,-1.2657,-1.2678,-1.2705,-1.28,-1.2786,-1.2718,-1.2793,-1.2789,-1.2876,-1.3003,-1.3044,-1.3173,-1.3227,-1.3432,-1.3329,-1.3397,-1.3431,-1.3458,-1.3458,-1.3458,-1.3345,-1.3378,-1.3392,-1.3351,-1.3451,-1.341,-1.3501,-1.3403,-1.3397,-1.3207,-1.5439,-1.4617,-1.3701,-1.2279,-1.0826,-1.0907,-1.0171,-0.9037,-0.894,-0.9103,-0.9354,-0.9401,-0.9544,-0.9795,-0.9822,-0.9822,-0.9822,-0.9822,-0.9917,-1.0059,-1.0209,-1.0365,-1.0534,-1.0445,-0.724,0.0,0.0,0.0,-0.4423,-0.7507,-1.0751,-1.0738,-1.0731,-1.0772,-1.0766,-1.105,-1.1212,-1.1307,-1.1504,-1.1633,-1.1529,-1.166,-1.1523,-1.1714,-1.1789,-1.2038,-1.2216,-1.2223,-1.2291,-1.2372,-1.2454,-1.2474,-1.2522,-1.2738,-1.2766,-1.263,-1.2507,-1.2541,-1.2698,-1.2691,-1.2684,-1.2671,-1.261,-1.2589,-1.2569,-1.232,-1.2379,-1.2512,-1.2519,-1.2512,-1.2505,-1.2525,-1.2379,-1.2379,-1.2379,-1.2413,-1.2447,-1.1972,-0.9921,-0.6663,0.0,0.0,0.0,-0.7393,-1.1735,-1.2883,-1.291,-1.284,-1.2942,-1.3051,-1.2996,-1.3003,-1.2983,-1.3003,-1.2943,-1.318,-1.3315,-1.3349,-1.3356,-1.3376,-1.3417,-1.3478,-1.3519,-1.3546,-1.3412,-1.3459,-1.3492,-1.3519,-1.3472,-1.3392,-1.3539,-1.3686,-1.362,-1.3702,-1.3566,-1.5832,-1.5668,-1.4558,-1.3434,-1.2481,-1.1485,-1.0154,-0.8996,-0.8906,-0.9083,-0.9361,-0.9381,-0.9557,-0.9741,-0.9822,-0.9822,-0.9822,-0.9822,-0.9917,-1.0093,-1.0222,-1.0399,-1.0568,-1.0306,-0.724,-0.5101,-0.3086,-0.5767,-0.9401,-1.0751,-1.0738,-1.0724,-1.0717,-1.0724,-1.0806,-1.0982,-1.1185,-1.1274,-1.1443,-1.1523,-1.1563,-1.1563,-1.1596,-1.165,-1.1891,-1.2175,-1.2354,-1.2484,-1.2393,-1.2501,-1.2583,-1.2454,-1.2644,-1.2876,-1.2903,-1.2779,-1.2675,-1.2888,-1.2908,-1.3061,-1.3075,-1.2901,-1.2807,-1.2732,-1.2698,-1.2617,-1.2522,-1.2522,-1.2535,-1.2535,-1.2528,-1.2528,-1.2528,-1.2515,-1.2515,-1.2501,-1.2515,-1.2542,-1.0025,-0.6885,0.0,0.0,0.0,0.0,-1.1494,-1.2648,-1.3027,-1.3116,-1.3051,-1.3159,-1.32,-1.3227,-1.315,-1.313,-1.3083,-1.3288,-1.3417,-1.3431,-1.3431,-1.3424,-1.3458,-1.3573,-1.3641,-1.3661,-1.3532,-1.3606,-1.3804,-1.3988,-1.3756,-1.3532,-1.3499,-1.3506,-1.394,-1.3844,-1.3885,-1.5832,-1.575,-1.4741,-1.3181,-1.1539,-1.1952,-1.0914,-0.8953,-0.8771,-0.8981,-0.93,-0.9401,-0.9544,-0.9822,-0.9822,-0.9822,-0.9822,-0.9822,-0.9881,-1.0089,-1.0249,-1.0439,-1.0346,-0.9775,-0.6439,-0.483,-0.5098,-0.9285,-1.0751,-1.0738,-1.0724,-1.0717,-1.0717,-1.0738,-1.0778,-1.0975,-1.1317,-1.142,-1.147,-1.1563,-1.1616,-1.163,-1.1663,-1.175,-1.2175,-1.2292,-1.2271,-1.2406,-1.2535,-1.2507,-1.2615,-1.2496,-1.2682,-1.2708,-1.2908,-1.3095,-1.315,-1.3178,-1.3198,-1.3198,-1.3205,-1.3017,-1.2901,-1.2779,-1.2718,-1.2617,-1.2589,-1.2657,-1.2671,-1.2684,-1.2684,-1.2684,-1.2678,-1.2637,-1.246,-1.2562,-1.2542,-1.2434,-1.1354,-0.7727,0.0,0.0,0.0,-1.2058,-1.2154,-1.301,-1.3064,-1.3146,-1.3234,-1.3315,-1.3397,-1.3444,-1.3492,-1.3372,-1.3372,-1.3424,-1.3478,-1.3498,-1.3526,-1.3546,-1.3775,-1.3722,-1.3783,-1.3804,-1.3713,-1.38,-1.398,-1.4132,-1.3946,-1.3727,-1.3482,-1.3482,-1.3919,-1.4167,-1.4041]}]]